<?xml version="1.0" encoding="UTF-8" standalone="no" ?>
<gpx xmlns="http://www.topografix.com/GPX/1/1" xmlns:xsi="http://www.w3.org/2001/XMLSchema-instance" xsi:schemaLocation="http://www.topografix.com/GPX/1/1 http://www.topografix.com/GPX/1/1/gpx.xsd" version="1.1" creator="VisuGPX - https://www.visugpx.com">
  <metadata>
    <name>Hauteur Condrieu</name>
    <desc><![CDATA[20 km départ St clair du Rhône la celle St Michel Verin Condrieu]]></desc>
  </metadata>
  <trk>
    <name><![CDATA[20181224184156-uZJRW]]></name>
    <trkseg>
      <trkpt lat="45.44816" lon="4.76918">
        <ele>107.40000152588</ele>
        <time>2018-12-24T09:16:15.000Z</time>
      </trkpt>
      <trkpt lat="45.44816" lon="4.76918">
        <ele>107.19999694824</ele>
        <time>2018-12-24T09:16:16.000Z</time>
      </trkpt>
      <trkpt lat="45.44804" lon="4.76914">
        <ele>108</ele>
        <time>2018-12-24T09:16:24.000Z</time>
      </trkpt>
      <trkpt lat="45.44801" lon="4.76914">
        <ele>108</ele>
        <time>2018-12-24T09:16:25.000Z</time>
      </trkpt>
      <trkpt lat="45.44799" lon="4.76914">
        <ele>108</ele>
        <time>2018-12-24T09:16:26.000Z</time>
      </trkpt>
      <trkpt lat="45.44794" lon="4.76914">
        <ele>108.19999694824</ele>
        <time>2018-12-24T09:16:28.000Z</time>
      </trkpt>
      <trkpt lat="45.44789" lon="4.76913">
        <ele>108.40000152588</ele>
        <time>2018-12-24T09:16:30.000Z</time>
      </trkpt>
      <trkpt lat="45.44788" lon="4.76913">
        <ele>108.40000152588</ele>
        <time>2018-12-24T09:16:31.000Z</time>
      </trkpt>
      <trkpt lat="45.44786" lon="4.76913">
        <ele>108.59999847412</ele>
        <time>2018-12-24T09:16:32.000Z</time>
      </trkpt>
      <trkpt lat="45.44781" lon="4.76911">
        <ele>109</ele>
        <time>2018-12-24T09:16:34.000Z</time>
      </trkpt>
      <trkpt lat="45.44774" lon="4.76908">
        <ele>109.40000152588</ele>
        <time>2018-12-24T09:16:37.000Z</time>
      </trkpt>
      <trkpt lat="45.44772" lon="4.76907">
        <ele>109.40000152588</ele>
        <time>2018-12-24T09:16:38.000Z</time>
      </trkpt>
      <trkpt lat="45.44772" lon="4.76899">
        <ele>109.59999847412</ele>
        <time>2018-12-24T09:16:41.000Z</time>
      </trkpt>
      <trkpt lat="45.44773" lon="4.76895">
        <ele>109.40000152588</ele>
        <time>2018-12-24T09:16:42.000Z</time>
      </trkpt>
      <trkpt lat="45.44776" lon="4.76886">
        <ele>108.40000152588</ele>
        <time>2018-12-24T09:16:45.000Z</time>
      </trkpt>
      <trkpt lat="45.4478" lon="4.76875">
        <ele>107.40000152588</ele>
        <time>2018-12-24T09:16:48.000Z</time>
      </trkpt>
      <trkpt lat="45.44781" lon="4.76871">
        <ele>107.19999694824</ele>
        <time>2018-12-24T09:16:49.000Z</time>
      </trkpt>
      <trkpt lat="45.44789" lon="4.76853">
        <ele>106.19999694824</ele>
        <time>2018-12-24T09:16:55.000Z</time>
      </trkpt>
      <trkpt lat="45.4479" lon="4.7685">
        <ele>105.80000305176</ele>
        <time>2018-12-24T09:16:56.000Z</time>
      </trkpt>
      <trkpt lat="45.44793" lon="4.76844">
        <ele>105</ele>
        <time>2018-12-24T09:16:58.000Z</time>
      </trkpt>
      <trkpt lat="45.44796" lon="4.76838">
        <ele>104.19999694824</ele>
        <time>2018-12-24T09:17:01.000Z</time>
      </trkpt>
      <trkpt lat="45.448" lon="4.76829">
        <ele>104</ele>
        <time>2018-12-24T09:17:04.000Z</time>
      </trkpt>
      <trkpt lat="45.44801" lon="4.76819">
        <ele>104</ele>
        <time>2018-12-24T09:17:06.000Z</time>
      </trkpt>
      <trkpt lat="45.44803" lon="4.76806">
        <ele>103.40000152588</ele>
        <time>2018-12-24T09:17:09.000Z</time>
      </trkpt>
      <trkpt lat="45.44804" lon="4.76806">
        <ele>103.59999847412</ele>
        <time>2018-12-24T09:17:10.000Z</time>
      </trkpt>
      <trkpt lat="45.44806" lon="4.76811">
        <ele>104.80000305176</ele>
        <time>2018-12-24T09:17:15.000Z</time>
      </trkpt>
      <trkpt lat="45.44807" lon="4.76812">
        <ele>105</ele>
        <time>2018-12-24T09:17:16.000Z</time>
      </trkpt>
      <trkpt lat="45.44808" lon="4.76813">
        <ele>105.80000305176</ele>
        <time>2018-12-24T09:17:18.000Z</time>
      </trkpt>
      <trkpt lat="45.44809" lon="4.76816">
        <ele>105.80000305176</ele>
        <time>2018-12-24T09:17:20.000Z</time>
      </trkpt>
      <trkpt lat="45.44815" lon="4.76819">
        <ele>106</ele>
        <time>2018-12-24T09:17:23.000Z</time>
      </trkpt>
      <trkpt lat="45.4482" lon="4.76823">
        <ele>106.19999694824</ele>
        <time>2018-12-24T09:17:25.000Z</time>
      </trkpt>
      <trkpt lat="45.44838" lon="4.76831">
        <ele>106</ele>
        <time>2018-12-24T09:17:33.000Z</time>
      </trkpt>
      <trkpt lat="45.44844" lon="4.76834">
        <ele>106.40000152588</ele>
        <time>2018-12-24T09:17:36.000Z</time>
      </trkpt>
      <trkpt lat="45.4485" lon="4.76837">
        <ele>106.40000152588</ele>
        <time>2018-12-24T09:17:39.000Z</time>
      </trkpt>
      <trkpt lat="45.44852" lon="4.76838">
        <ele>106.40000152588</ele>
        <time>2018-12-24T09:17:40.000Z</time>
      </trkpt>
      <trkpt lat="45.44863" lon="4.76842">
        <ele>106.59999847412</ele>
        <time>2018-12-24T09:17:45.000Z</time>
      </trkpt>
      <trkpt lat="45.44881" lon="4.76852">
        <ele>106</ele>
        <time>2018-12-24T09:17:52.000Z</time>
      </trkpt>
      <trkpt lat="45.44883" lon="4.76853">
        <ele>106</ele>
        <time>2018-12-24T09:17:53.000Z</time>
      </trkpt>
      <trkpt lat="45.44891" lon="4.76859">
        <ele>106</ele>
        <time>2018-12-24T09:17:57.000Z</time>
      </trkpt>
      <trkpt lat="45.44895" lon="4.76861">
        <ele>106.19999694824</ele>
        <time>2018-12-24T09:17:59.000Z</time>
      </trkpt>
      <trkpt lat="45.44901" lon="4.76866">
        <ele>106.40000152588</ele>
        <time>2018-12-24T09:18:02.000Z</time>
      </trkpt>
      <trkpt lat="45.44909" lon="4.76871">
        <ele>106.40000152588</ele>
        <time>2018-12-24T09:18:06.000Z</time>
      </trkpt>
      <trkpt lat="45.44918" lon="4.76876">
        <ele>106.40000152588</ele>
        <time>2018-12-24T09:18:10.000Z</time>
      </trkpt>
      <trkpt lat="45.44922" lon="4.76878">
        <ele>106.40000152588</ele>
        <time>2018-12-24T09:18:12.000Z</time>
      </trkpt>
      <trkpt lat="45.44932" lon="4.76885">
        <ele>107.19999694824</ele>
        <time>2018-12-24T09:18:16.000Z</time>
      </trkpt>
      <trkpt lat="45.44936" lon="4.76888">
        <ele>107.19999694824</ele>
        <time>2018-12-24T09:18:18.000Z</time>
      </trkpt>
      <trkpt lat="45.4494" lon="4.76891">
        <ele>107.19999694824</ele>
        <time>2018-12-24T09:18:20.000Z</time>
      </trkpt>
      <trkpt lat="45.44949" lon="4.76898">
        <ele>106.80000305176</ele>
        <time>2018-12-24T09:18:24.000Z</time>
      </trkpt>
      <trkpt lat="45.44958" lon="4.76905">
        <ele>106.19999694824</ele>
        <time>2018-12-24T09:18:28.000Z</time>
      </trkpt>
      <trkpt lat="45.4496" lon="4.76907">
        <ele>106.19999694824</ele>
        <time>2018-12-24T09:18:29.000Z</time>
      </trkpt>
      <trkpt lat="45.44974" lon="4.76919">
        <ele>106</ele>
        <time>2018-12-24T09:18:36.000Z</time>
      </trkpt>
      <trkpt lat="45.44983" lon="4.76931">
        <ele>106</ele>
        <time>2018-12-24T09:18:42.000Z</time>
      </trkpt>
      <trkpt lat="45.44984" lon="4.76933">
        <ele>106.19999694824</ele>
        <time>2018-12-24T09:18:43.000Z</time>
      </trkpt>
      <trkpt lat="45.4499" lon="4.76938">
        <ele>106.19999694824</ele>
        <time>2018-12-24T09:18:47.000Z</time>
      </trkpt>
      <trkpt lat="45.45" lon="4.76945">
        <ele>105.59999847412</ele>
        <time>2018-12-24T09:18:52.000Z</time>
      </trkpt>
      <trkpt lat="45.45013" lon="4.76951">
        <ele>105.40000152588</ele>
        <time>2018-12-24T09:18:57.000Z</time>
      </trkpt>
      <trkpt lat="45.45026" lon="4.76954">
        <ele>105.59999847412</ele>
        <time>2018-12-24T09:19:01.000Z</time>
      </trkpt>
      <trkpt lat="45.45026" lon="4.76954">
        <ele>105.59999847412</ele>
        <time>2018-12-24T09:19:02.000Z</time>
      </trkpt>
      <trkpt lat="45.4504" lon="4.76955">
        <ele>105.19999694824</ele>
        <time>2018-12-24T09:19:07.000Z</time>
      </trkpt>
      <trkpt lat="45.45043" lon="4.76955">
        <ele>105</ele>
        <time>2018-12-24T09:19:08.000Z</time>
      </trkpt>
      <trkpt lat="45.4505" lon="4.76954">
        <ele>104.80000305176</ele>
        <time>2018-12-24T09:19:11.000Z</time>
      </trkpt>
      <trkpt lat="45.45057" lon="4.76951">
        <ele>105.19999694824</ele>
        <time>2018-12-24T09:19:15.000Z</time>
      </trkpt>
      <trkpt lat="45.45068" lon="4.7695">
        <ele>104.40000152588</ele>
        <time>2018-12-24T09:19:20.000Z</time>
      </trkpt>
      <trkpt lat="45.45071" lon="4.76951">
        <ele>104</ele>
        <time>2018-12-24T09:19:21.000Z</time>
      </trkpt>
      <trkpt lat="45.4508" lon="4.76956">
        <ele>103.19999694824</ele>
        <time>2018-12-24T09:19:24.000Z</time>
      </trkpt>
      <trkpt lat="45.45082" lon="4.76958">
        <ele>102.59999847412</ele>
        <time>2018-12-24T09:19:25.000Z</time>
      </trkpt>
      <trkpt lat="45.45089" lon="4.76964">
        <ele>102.80000305176</ele>
        <time>2018-12-24T09:19:28.000Z</time>
      </trkpt>
      <trkpt lat="45.45092" lon="4.76969">
        <ele>103</ele>
        <time>2018-12-24T09:19:30.000Z</time>
      </trkpt>
      <trkpt lat="45.45093" lon="4.76975">
        <ele>103</ele>
        <time>2018-12-24T09:19:32.000Z</time>
      </trkpt>
      <trkpt lat="45.45094" lon="4.76982">
        <ele>103.80000305176</ele>
        <time>2018-12-24T09:19:34.000Z</time>
      </trkpt>
      <trkpt lat="45.45096" lon="4.76988">
        <ele>103.80000305176</ele>
        <time>2018-12-24T09:19:36.000Z</time>
      </trkpt>
      <trkpt lat="45.45097" lon="4.76991">
        <ele>104</ele>
        <time>2018-12-24T09:19:37.000Z</time>
      </trkpt>
      <trkpt lat="45.451" lon="4.77001">
        <ele>104.40000152588</ele>
        <time>2018-12-24T09:19:41.000Z</time>
      </trkpt>
      <trkpt lat="45.45102" lon="4.77007">
        <ele>104.80000305176</ele>
        <time>2018-12-24T09:19:43.000Z</time>
      </trkpt>
      <trkpt lat="45.45108" lon="4.77019">
        <ele>105</ele>
        <time>2018-12-24T09:19:47.000Z</time>
      </trkpt>
      <trkpt lat="45.45112" lon="4.77029">
        <ele>104.80000305176</ele>
        <time>2018-12-24T09:19:50.000Z</time>
      </trkpt>
      <trkpt lat="45.45114" lon="4.77032">
        <ele>104.80000305176</ele>
        <time>2018-12-24T09:19:51.000Z</time>
      </trkpt>
      <trkpt lat="45.4512" lon="4.77043">
        <ele>104.59999847412</ele>
        <time>2018-12-24T09:19:55.000Z</time>
      </trkpt>
      <trkpt lat="45.45121" lon="4.77049">
        <ele>104.59999847412</ele>
        <time>2018-12-24T09:19:57.000Z</time>
      </trkpt>
      <trkpt lat="45.45123" lon="4.77055">
        <ele>104.59999847412</ele>
        <time>2018-12-24T09:19:59.000Z</time>
      </trkpt>
      <trkpt lat="45.45124" lon="4.77059">
        <ele>104.80000305176</ele>
        <time>2018-12-24T09:20:00.000Z</time>
      </trkpt>
      <trkpt lat="45.45124" lon="4.77068">
        <ele>104.19999694824</ele>
        <time>2018-12-24T09:20:03.000Z</time>
      </trkpt>
      <trkpt lat="45.45126" lon="4.7707">
        <ele>104.19999694824</ele>
        <time>2018-12-24T09:20:04.000Z</time>
      </trkpt>
      <trkpt lat="45.45128" lon="4.77072">
        <ele>103.80000305176</ele>
        <time>2018-12-24T09:20:05.000Z</time>
      </trkpt>
      <trkpt lat="45.4513" lon="4.77075">
        <ele>103.80000305176</ele>
        <time>2018-12-24T09:20:06.000Z</time>
      </trkpt>
      <trkpt lat="45.45132" lon="4.77078">
        <ele>103.59999847412</ele>
        <time>2018-12-24T09:20:07.000Z</time>
      </trkpt>
      <trkpt lat="45.45134" lon="4.77081">
        <ele>103.80000305176</ele>
        <time>2018-12-24T09:20:08.000Z</time>
      </trkpt>
      <trkpt lat="45.45143" lon="4.77091">
        <ele>103.80000305176</ele>
        <time>2018-12-24T09:20:12.000Z</time>
      </trkpt>
      <trkpt lat="45.45144" lon="4.77094">
        <ele>104</ele>
        <time>2018-12-24T09:20:13.000Z</time>
      </trkpt>
      <trkpt lat="45.45148" lon="4.77104">
        <ele>103.40000152588</ele>
        <time>2018-12-24T09:20:16.000Z</time>
      </trkpt>
      <trkpt lat="45.45151" lon="4.77109">
        <ele>103.40000152588</ele>
        <time>2018-12-24T09:20:18.000Z</time>
      </trkpt>
      <trkpt lat="45.4516" lon="4.77116">
        <ele>102.80000305176</ele>
        <time>2018-12-24T09:20:21.000Z</time>
      </trkpt>
      <trkpt lat="45.45162" lon="4.77119">
        <ele>102.59999847412</ele>
        <time>2018-12-24T09:20:22.000Z</time>
      </trkpt>
      <trkpt lat="45.45166" lon="4.77125">
        <ele>102.59999847412</ele>
        <time>2018-12-24T09:20:24.000Z</time>
      </trkpt>
      <trkpt lat="45.45168" lon="4.77131">
        <ele>102.59999847412</ele>
        <time>2018-12-24T09:20:26.000Z</time>
      </trkpt>
      <trkpt lat="45.45179" lon="4.77144">
        <ele>101.80000305176</ele>
        <time>2018-12-24T09:20:30.000Z</time>
      </trkpt>
      <trkpt lat="45.45189" lon="4.77153">
        <ele>101.59999847412</ele>
        <time>2018-12-24T09:20:34.000Z</time>
      </trkpt>
      <trkpt lat="45.45192" lon="4.77157">
        <ele>101.80000305176</ele>
        <time>2018-12-24T09:20:36.000Z</time>
      </trkpt>
      <trkpt lat="45.45202" lon="4.77169">
        <ele>102.19999694824</ele>
        <time>2018-12-24T09:20:41.000Z</time>
      </trkpt>
      <trkpt lat="45.45204" lon="4.77171">
        <ele>102</ele>
        <time>2018-12-24T09:20:42.000Z</time>
      </trkpt>
      <trkpt lat="45.45207" lon="4.77175">
        <ele>102</ele>
        <time>2018-12-24T09:20:44.000Z</time>
      </trkpt>
      <trkpt lat="45.45212" lon="4.77183">
        <ele>101.59999847412</ele>
        <time>2018-12-24T09:20:47.000Z</time>
      </trkpt>
      <trkpt lat="45.45218" lon="4.77191">
        <ele>101.59999847412</ele>
        <time>2018-12-24T09:20:50.000Z</time>
      </trkpt>
      <trkpt lat="45.4522" lon="4.77195">
        <ele>101.59999847412</ele>
        <time>2018-12-24T09:20:51.000Z</time>
      </trkpt>
      <trkpt lat="45.45222" lon="4.772">
        <ele>101.40000152588</ele>
        <time>2018-12-24T09:20:53.000Z</time>
      </trkpt>
      <trkpt lat="45.45224" lon="4.77203">
        <ele>101.40000152588</ele>
        <time>2018-12-24T09:20:54.000Z</time>
      </trkpt>
      <trkpt lat="45.45231" lon="4.77214">
        <ele>101.40000152588</ele>
        <time>2018-12-24T09:20:58.000Z</time>
      </trkpt>
      <trkpt lat="45.45245" lon="4.77228">
        <ele>102</ele>
        <time>2018-12-24T09:21:04.000Z</time>
      </trkpt>
      <trkpt lat="45.45259" lon="4.77243">
        <ele>102.19999694824</ele>
        <time>2018-12-24T09:21:10.000Z</time>
      </trkpt>
      <trkpt lat="45.45267" lon="4.7725">
        <ele>101.19999694824</ele>
        <time>2018-12-24T09:21:14.000Z</time>
      </trkpt>
      <trkpt lat="45.45272" lon="4.77253">
        <ele>100.80000305176</ele>
        <time>2018-12-24T09:21:16.000Z</time>
      </trkpt>
      <trkpt lat="45.45275" lon="4.77254">
        <ele>100.59999847412</ele>
        <time>2018-12-24T09:21:17.000Z</time>
      </trkpt>
      <trkpt lat="45.4528" lon="4.77257">
        <ele>100.59999847412</ele>
        <time>2018-12-24T09:21:19.000Z</time>
      </trkpt>
      <trkpt lat="45.4529" lon="4.77268">
        <ele>100.80000305176</ele>
        <time>2018-12-24T09:21:24.000Z</time>
      </trkpt>
      <trkpt lat="45.45299" lon="4.77275">
        <ele>101.80000305176</ele>
        <time>2018-12-24T09:21:29.000Z</time>
      </trkpt>
      <trkpt lat="45.45299" lon="4.77277">
        <ele>102</ele>
        <time>2018-12-24T09:21:30.000Z</time>
      </trkpt>
      <trkpt lat="45.45303" lon="4.77288">
        <ele>102.19999694824</ele>
        <time>2018-12-24T09:21:33.000Z</time>
      </trkpt>
      <trkpt lat="45.45305" lon="4.77295">
        <ele>102.59999847412</ele>
        <time>2018-12-24T09:21:35.000Z</time>
      </trkpt>
      <trkpt lat="45.45307" lon="4.77301">
        <ele>103</ele>
        <time>2018-12-24T09:21:37.000Z</time>
      </trkpt>
      <trkpt lat="45.45309" lon="4.77307">
        <ele>103.19999694824</ele>
        <time>2018-12-24T09:21:39.000Z</time>
      </trkpt>
      <trkpt lat="45.45313" lon="4.77311">
        <ele>103.19999694824</ele>
        <time>2018-12-24T09:21:41.000Z</time>
      </trkpt>
      <trkpt lat="45.45315" lon="4.77314">
        <ele>103.19999694824</ele>
        <time>2018-12-24T09:21:42.000Z</time>
      </trkpt>
      <trkpt lat="45.45316" lon="4.77317">
        <ele>103</ele>
        <time>2018-12-24T09:21:43.000Z</time>
      </trkpt>
      <trkpt lat="45.45317" lon="4.77319">
        <ele>103</ele>
        <time>2018-12-24T09:21:44.000Z</time>
      </trkpt>
      <trkpt lat="45.45319" lon="4.77316">
        <ele>102.80000305176</ele>
        <time>2018-12-24T09:21:46.000Z</time>
      </trkpt>
      <trkpt lat="45.45318" lon="4.77307">
        <ele>102.40000152588</ele>
        <time>2018-12-24T09:21:49.000Z</time>
      </trkpt>
      <trkpt lat="45.45317" lon="4.77304">
        <ele>102.19999694824</ele>
        <time>2018-12-24T09:21:50.000Z</time>
      </trkpt>
      <trkpt lat="45.45316" lon="4.77302">
        <ele>102</ele>
        <time>2018-12-24T09:21:51.000Z</time>
      </trkpt>
      <trkpt lat="45.45316" lon="4.77301">
        <ele>101.80000305176</ele>
        <time>2018-12-24T09:21:52.000Z</time>
      </trkpt>
      <trkpt lat="45.45317" lon="4.77302">
        <ele>101.59999847412</ele>
        <time>2018-12-24T09:21:53.000Z</time>
      </trkpt>
      <trkpt lat="45.4532" lon="4.77315">
        <ele>100.80000305176</ele>
        <time>2018-12-24T09:21:58.000Z</time>
      </trkpt>
      <trkpt lat="45.45321" lon="4.77317">
        <ele>100.59999847412</ele>
        <time>2018-12-24T09:21:59.000Z</time>
      </trkpt>
      <trkpt lat="45.45322" lon="4.77319">
        <ele>100.80000305176</ele>
        <time>2018-12-24T09:22:00.000Z</time>
      </trkpt>
      <trkpt lat="45.45322" lon="4.77322">
        <ele>100.59999847412</ele>
        <time>2018-12-24T09:22:02.000Z</time>
      </trkpt>
      <trkpt lat="45.45324" lon="4.77323">
        <ele>100.19999694824</ele>
        <time>2018-12-24T09:22:03.000Z</time>
      </trkpt>
      <trkpt lat="45.45328" lon="4.77326">
        <ele>100</ele>
        <time>2018-12-24T09:22:06.000Z</time>
      </trkpt>
      <trkpt lat="45.45331" lon="4.77329">
        <ele>99.400001525879</ele>
        <time>2018-12-24T09:22:08.000Z</time>
      </trkpt>
      <trkpt lat="45.45331" lon="4.77329">
        <ele>98.800003051758</ele>
        <time>2018-12-24T09:22:10.000Z</time>
      </trkpt>
      <trkpt lat="45.45331" lon="4.77328">
        <ele>98.599998474121</ele>
        <time>2018-12-24T09:22:11.000Z</time>
      </trkpt>
      <trkpt lat="45.4533" lon="4.77327">
        <ele>98.400001525879</ele>
        <time>2018-12-24T09:22:12.000Z</time>
      </trkpt>
      <trkpt lat="45.45327" lon="4.77326">
        <ele>98</ele>
        <time>2018-12-24T09:22:14.000Z</time>
      </trkpt>
      <trkpt lat="45.45331" lon="4.77328">
        <ele>97.199996948242</ele>
        <time>2018-12-24T09:22:17.000Z</time>
      </trkpt>
      <trkpt lat="45.45332" lon="4.77329">
        <ele>97</ele>
        <time>2018-12-24T09:22:18.000Z</time>
      </trkpt>
      <trkpt lat="45.45335" lon="4.7733">
        <ele>96.400001525879</ele>
        <time>2018-12-24T09:22:20.000Z</time>
      </trkpt>
      <trkpt lat="45.45338" lon="4.77332">
        <ele>96.199996948242</ele>
        <time>2018-12-24T09:22:22.000Z</time>
      </trkpt>
      <trkpt lat="45.45342" lon="4.77339">
        <ele>95.599998474121</ele>
        <time>2018-12-24T09:22:25.000Z</time>
      </trkpt>
      <trkpt lat="45.45343" lon="4.77342">
        <ele>95.199996948242</ele>
        <time>2018-12-24T09:22:26.000Z</time>
      </trkpt>
      <trkpt lat="45.45345" lon="4.77344">
        <ele>95</ele>
        <time>2018-12-24T09:22:27.000Z</time>
      </trkpt>
      <trkpt lat="45.45355" lon="4.77349">
        <ele>94.199996948242</ele>
        <time>2018-12-24T09:22:31.000Z</time>
      </trkpt>
      <trkpt lat="45.45357" lon="4.7735">
        <ele>93.800003051758</ele>
        <time>2018-12-24T09:22:32.000Z</time>
      </trkpt>
      <trkpt lat="45.45363" lon="4.77351">
        <ele>92.599998474121</ele>
        <time>2018-12-24T09:22:35.000Z</time>
      </trkpt>
      <trkpt lat="45.45366" lon="4.77353">
        <ele>91.599998474121</ele>
        <time>2018-12-24T09:22:37.000Z</time>
      </trkpt>
      <trkpt lat="45.45368" lon="4.77354">
        <ele>90.800003051758</ele>
        <time>2018-12-24T09:22:39.000Z</time>
      </trkpt>
      <trkpt lat="45.45372" lon="4.77356">
        <ele>90.599998474121</ele>
        <time>2018-12-24T09:22:41.000Z</time>
      </trkpt>
      <trkpt lat="45.45375" lon="4.77356">
        <ele>90.400001525879</ele>
        <time>2018-12-24T09:22:42.000Z</time>
      </trkpt>
      <trkpt lat="45.45383" lon="4.77351">
        <ele>90.400001525879</ele>
        <time>2018-12-24T09:22:45.000Z</time>
      </trkpt>
      <trkpt lat="45.45391" lon="4.77335">
        <ele>89.800003051758</ele>
        <time>2018-12-24T09:22:50.000Z</time>
      </trkpt>
      <trkpt lat="45.45394" lon="4.77328">
        <ele>89.599998474121</ele>
        <time>2018-12-24T09:22:52.000Z</time>
      </trkpt>
      <trkpt lat="45.45401" lon="4.77315">
        <ele>89.400001525879</ele>
        <time>2018-12-24T09:22:57.000Z</time>
      </trkpt>
      <trkpt lat="45.4541" lon="4.77303">
        <ele>89.400001525879</ele>
        <time>2018-12-24T09:23:01.000Z</time>
      </trkpt>
      <trkpt lat="45.45422" lon="4.77285">
        <ele>89.599998474121</ele>
        <time>2018-12-24T09:23:08.000Z</time>
      </trkpt>
      <trkpt lat="45.45432" lon="4.77274">
        <ele>90</ele>
        <time>2018-12-24T09:23:13.000Z</time>
      </trkpt>
      <trkpt lat="45.4544" lon="4.7726">
        <ele>90</ele>
        <time>2018-12-24T09:23:18.000Z</time>
      </trkpt>
      <trkpt lat="45.45449" lon="4.77248">
        <ele>90</ele>
        <time>2018-12-24T09:23:23.000Z</time>
      </trkpt>
      <trkpt lat="45.4546" lon="4.77239">
        <ele>90.199996948242</ele>
        <time>2018-12-24T09:23:28.000Z</time>
      </trkpt>
      <trkpt lat="45.45469" lon="4.77232">
        <ele>90.599998474121</ele>
        <time>2018-12-24T09:23:32.000Z</time>
      </trkpt>
      <trkpt lat="45.45471" lon="4.7723">
        <ele>90.400001525879</ele>
        <time>2018-12-24T09:23:33.000Z</time>
      </trkpt>
      <trkpt lat="45.45477" lon="4.77223">
        <ele>90.400001525879</ele>
        <time>2018-12-24T09:23:36.000Z</time>
      </trkpt>
      <trkpt lat="45.45479" lon="4.7722">
        <ele>90.400001525879</ele>
        <time>2018-12-24T09:23:37.000Z</time>
      </trkpt>
      <trkpt lat="45.45482" lon="4.77214">
        <ele>90.400001525879</ele>
        <time>2018-12-24T09:23:39.000Z</time>
      </trkpt>
      <trkpt lat="45.45486" lon="4.77204">
        <ele>90.400001525879</ele>
        <time>2018-12-24T09:23:42.000Z</time>
      </trkpt>
      <trkpt lat="45.45492" lon="4.77189">
        <ele>90</ele>
        <time>2018-12-24T09:23:47.000Z</time>
      </trkpt>
      <trkpt lat="45.45497" lon="4.77177">
        <ele>89.800003051758</ele>
        <time>2018-12-24T09:23:51.000Z</time>
      </trkpt>
      <trkpt lat="45.45501" lon="4.77167">
        <ele>89.800003051758</ele>
        <time>2018-12-24T09:23:54.000Z</time>
      </trkpt>
      <trkpt lat="45.45506" lon="4.77158">
        <ele>90</ele>
        <time>2018-12-24T09:23:57.000Z</time>
      </trkpt>
      <trkpt lat="45.45516" lon="4.77145">
        <ele>90</ele>
        <time>2018-12-24T09:24:02.000Z</time>
      </trkpt>
      <trkpt lat="45.45528" lon="4.7713">
        <ele>90</ele>
        <time>2018-12-24T09:24:08.000Z</time>
      </trkpt>
      <trkpt lat="45.45538" lon="4.77115">
        <ele>90</ele>
        <time>2018-12-24T09:24:13.000Z</time>
      </trkpt>
      <trkpt lat="45.45548" lon="4.77097">
        <ele>90</ele>
        <time>2018-12-24T09:24:19.000Z</time>
      </trkpt>
      <trkpt lat="45.45553" lon="4.77087">
        <ele>90</ele>
        <time>2018-12-24T09:24:22.000Z</time>
      </trkpt>
      <trkpt lat="45.45554" lon="4.77081">
        <ele>90</ele>
        <time>2018-12-24T09:24:24.000Z</time>
      </trkpt>
      <trkpt lat="45.45558" lon="4.77068">
        <ele>90</ele>
        <time>2018-12-24T09:24:29.000Z</time>
      </trkpt>
      <trkpt lat="45.45556" lon="4.77063">
        <ele>91</ele>
        <time>2018-12-24T09:24:32.000Z</time>
      </trkpt>
      <trkpt lat="45.45554" lon="4.7706">
        <ele>91.199996948242</ele>
        <time>2018-12-24T09:24:33.000Z</time>
      </trkpt>
      <trkpt lat="45.45553" lon="4.77058">
        <ele>91.599998474121</ele>
        <time>2018-12-24T09:24:34.000Z</time>
      </trkpt>
      <trkpt lat="45.45551" lon="4.77052">
        <ele>92.599998474121</ele>
        <time>2018-12-24T09:24:37.000Z</time>
      </trkpt>
      <trkpt lat="45.4555" lon="4.77049">
        <ele>92.800003051758</ele>
        <time>2018-12-24T09:24:38.000Z</time>
      </trkpt>
      <trkpt lat="45.45544" lon="4.77047">
        <ele>94</ele>
        <time>2018-12-24T09:24:42.000Z</time>
      </trkpt>
      <trkpt lat="45.45546" lon="4.77043">
        <ele>94.599998474121</ele>
        <time>2018-12-24T09:24:44.000Z</time>
      </trkpt>
      <trkpt lat="45.45546" lon="4.77039">
        <ele>94.800003051758</ele>
        <time>2018-12-24T09:24:46.000Z</time>
      </trkpt>
      <trkpt lat="45.45548" lon="4.77037">
        <ele>95.199996948242</ele>
        <time>2018-12-24T09:24:47.000Z</time>
      </trkpt>
      <trkpt lat="45.45553" lon="4.77037">
        <ele>95.400001525879</ele>
        <time>2018-12-24T09:24:50.000Z</time>
      </trkpt>
      <trkpt lat="45.45562" lon="4.77038">
        <ele>95</ele>
        <time>2018-12-24T09:24:55.000Z</time>
      </trkpt>
      <trkpt lat="45.45565" lon="4.77037">
        <ele>94.400001525879</ele>
        <time>2018-12-24T09:24:57.000Z</time>
      </trkpt>
      <trkpt lat="45.45567" lon="4.77034">
        <ele>93.800003051758</ele>
        <time>2018-12-24T09:24:58.000Z</time>
      </trkpt>
      <trkpt lat="45.45569" lon="4.7703">
        <ele>92.800003051758</ele>
        <time>2018-12-24T09:25:00.000Z</time>
      </trkpt>
      <trkpt lat="45.45572" lon="4.77027">
        <ele>91.800003051758</ele>
        <time>2018-12-24T09:25:02.000Z</time>
      </trkpt>
      <trkpt lat="45.45572" lon="4.77025">
        <ele>91.599998474121</ele>
        <time>2018-12-24T09:25:03.000Z</time>
      </trkpt>
      <trkpt lat="45.45573" lon="4.77022">
        <ele>91.400001525879</ele>
        <time>2018-12-24T09:25:06.000Z</time>
      </trkpt>
      <trkpt lat="45.45573" lon="4.77022">
        <ele>91.400001525879</ele>
        <time>2018-12-24T09:25:07.000Z</time>
      </trkpt>
      <trkpt lat="45.45574" lon="4.77021">
        <ele>91.599998474121</ele>
        <time>2018-12-24T09:25:09.000Z</time>
      </trkpt>
      <trkpt lat="45.45579" lon="4.77001">
        <ele>91</ele>
        <time>2018-12-24T09:26:52.000Z</time>
      </trkpt>
      <trkpt lat="45.4558" lon="4.76998">
        <ele>91</ele>
        <time>2018-12-24T09:26:53.000Z</time>
      </trkpt>
      <trkpt lat="45.45581" lon="4.76996">
        <ele>91</ele>
        <time>2018-12-24T09:26:54.000Z</time>
      </trkpt>
      <trkpt lat="45.45582" lon="4.76993">
        <ele>91</ele>
        <time>2018-12-24T09:26:56.000Z</time>
      </trkpt>
      <trkpt lat="45.45582" lon="4.7699">
        <ele>91</ele>
        <time>2018-12-24T09:26:58.000Z</time>
      </trkpt>
      <trkpt lat="45.45583" lon="4.76986">
        <ele>91.199996948242</ele>
        <time>2018-12-24T09:27:00.000Z</time>
      </trkpt>
      <trkpt lat="45.45582" lon="4.76982">
        <ele>91.199996948242</ele>
        <time>2018-12-24T09:27:02.000Z</time>
      </trkpt>
      <trkpt lat="45.45582" lon="4.7698">
        <ele>91.199996948242</ele>
        <time>2018-12-24T09:27:03.000Z</time>
      </trkpt>
      <trkpt lat="45.45582" lon="4.76977">
        <ele>91.199996948242</ele>
        <time>2018-12-24T09:27:04.000Z</time>
      </trkpt>
      <trkpt lat="45.45583" lon="4.76969">
        <ele>91</ele>
        <time>2018-12-24T09:27:07.000Z</time>
      </trkpt>
      <trkpt lat="45.45586" lon="4.76957">
        <ele>90.800003051758</ele>
        <time>2018-12-24T09:27:11.000Z</time>
      </trkpt>
      <trkpt lat="45.45588" lon="4.76949">
        <ele>90.800003051758</ele>
        <time>2018-12-24T09:27:13.000Z</time>
      </trkpt>
      <trkpt lat="45.45594" lon="4.76928">
        <ele>91.199996948242</ele>
        <time>2018-12-24T09:27:17.000Z</time>
      </trkpt>
      <trkpt lat="45.45597" lon="4.76917">
        <ele>91.599998474121</ele>
        <time>2018-12-24T09:27:20.000Z</time>
      </trkpt>
      <trkpt lat="45.45599" lon="4.76906">
        <ele>91.599998474121</ele>
        <time>2018-12-24T09:27:23.000Z</time>
      </trkpt>
      <trkpt lat="45.45601" lon="4.76899">
        <ele>91.599998474121</ele>
        <time>2018-12-24T09:27:25.000Z</time>
      </trkpt>
      <trkpt lat="45.45602" lon="4.76886">
        <ele>92.400001525879</ele>
        <time>2018-12-24T09:27:29.000Z</time>
      </trkpt>
      <trkpt lat="45.45605" lon="4.76882">
        <ele>92.800003051758</ele>
        <time>2018-12-24T09:27:31.000Z</time>
      </trkpt>
      <trkpt lat="45.45609" lon="4.7688">
        <ele>92.800003051758</ele>
        <time>2018-12-24T09:27:33.000Z</time>
      </trkpt>
      <trkpt lat="45.45621" lon="4.76876">
        <ele>93.800003051758</ele>
        <time>2018-12-24T09:27:39.000Z</time>
      </trkpt>
      <trkpt lat="45.45633" lon="4.76872">
        <ele>94.199996948242</ele>
        <time>2018-12-24T09:27:45.000Z</time>
      </trkpt>
      <trkpt lat="45.45651" lon="4.7687">
        <ele>94.599998474121</ele>
        <time>2018-12-24T09:27:52.000Z</time>
      </trkpt>
      <trkpt lat="45.45654" lon="4.7687">
        <ele>94.599998474121</ele>
        <time>2018-12-24T09:27:53.000Z</time>
      </trkpt>
      <trkpt lat="45.45666" lon="4.76869">
        <ele>95</ele>
        <time>2018-12-24T09:27:58.000Z</time>
      </trkpt>
      <trkpt lat="45.45679" lon="4.76871">
        <ele>96</ele>
        <time>2018-12-24T09:28:04.000Z</time>
      </trkpt>
      <trkpt lat="45.45682" lon="4.76871">
        <ele>96.199996948242</ele>
        <time>2018-12-24T09:28:05.000Z</time>
      </trkpt>
      <trkpt lat="45.45698" lon="4.76873">
        <ele>96.599998474121</ele>
        <time>2018-12-24T09:28:13.000Z</time>
      </trkpt>
      <trkpt lat="45.45718" lon="4.76874">
        <ele>96.599998474121</ele>
        <time>2018-12-24T09:28:21.000Z</time>
      </trkpt>
      <trkpt lat="45.45736" lon="4.76876">
        <ele>96.199996948242</ele>
        <time>2018-12-24T09:28:28.000Z</time>
      </trkpt>
      <trkpt lat="45.45755" lon="4.76876">
        <ele>96.199996948242</ele>
        <time>2018-12-24T09:28:34.000Z</time>
      </trkpt>
      <trkpt lat="45.45758" lon="4.76876">
        <ele>96.199996948242</ele>
        <time>2018-12-24T09:28:35.000Z</time>
      </trkpt>
      <trkpt lat="45.45773" lon="4.76877">
        <ele>95.400001525879</ele>
        <time>2018-12-24T09:28:41.000Z</time>
      </trkpt>
      <trkpt lat="45.45788" lon="4.76878">
        <ele>95</ele>
        <time>2018-12-24T09:28:46.000Z</time>
      </trkpt>
      <trkpt lat="45.4579" lon="4.76878">
        <ele>94.800003051758</ele>
        <time>2018-12-24T09:28:47.000Z</time>
      </trkpt>
      <trkpt lat="45.45799" lon="4.76879">
        <ele>94.400001525879</ele>
        <time>2018-12-24T09:28:50.000Z</time>
      </trkpt>
      <trkpt lat="45.4581" lon="4.76878">
        <ele>94</ele>
        <time>2018-12-24T09:28:54.000Z</time>
      </trkpt>
      <trkpt lat="45.45813" lon="4.76879">
        <ele>94</ele>
        <time>2018-12-24T09:28:55.000Z</time>
      </trkpt>
      <trkpt lat="45.45831" lon="4.7688">
        <ele>92.800003051758</ele>
        <time>2018-12-24T09:29:01.000Z</time>
      </trkpt>
      <trkpt lat="45.45834" lon="4.76879">
        <ele>92.599998474121</ele>
        <time>2018-12-24T09:29:02.000Z</time>
      </trkpt>
      <trkpt lat="45.4585" lon="4.76868">
        <ele>91.800003051758</ele>
        <time>2018-12-24T09:29:08.000Z</time>
      </trkpt>
      <trkpt lat="45.45852" lon="4.76866">
        <ele>91.800003051758</ele>
        <time>2018-12-24T09:29:09.000Z</time>
      </trkpt>
      <trkpt lat="45.45862" lon="4.76853">
        <ele>91.400001525879</ele>
        <time>2018-12-24T09:29:14.000Z</time>
      </trkpt>
      <trkpt lat="45.45877" lon="4.76848">
        <ele>91.199996948242</ele>
        <time>2018-12-24T09:29:20.000Z</time>
      </trkpt>
      <trkpt lat="45.45885" lon="4.76847">
        <ele>90.599998474121</ele>
        <time>2018-12-24T09:29:23.000Z</time>
      </trkpt>
      <trkpt lat="45.45895" lon="4.76843">
        <ele>90.599998474121</ele>
        <time>2018-12-24T09:29:27.000Z</time>
      </trkpt>
      <trkpt lat="45.4591" lon="4.76836">
        <ele>91</ele>
        <time>2018-12-24T09:29:33.000Z</time>
      </trkpt>
      <trkpt lat="45.45915" lon="4.76835">
        <ele>90.800003051758</ele>
        <time>2018-12-24T09:29:35.000Z</time>
      </trkpt>
      <trkpt lat="45.45935" lon="4.76836">
        <ele>90.599998474121</ele>
        <time>2018-12-24T09:29:42.000Z</time>
      </trkpt>
      <trkpt lat="45.45954" lon="4.76842">
        <ele>90.599998474121</ele>
        <time>2018-12-24T09:29:49.000Z</time>
      </trkpt>
      <trkpt lat="45.45957" lon="4.76844">
        <ele>90.800003051758</ele>
        <time>2018-12-24T09:29:50.000Z</time>
      </trkpt>
      <trkpt lat="45.45969" lon="4.76855">
        <ele>91</ele>
        <time>2018-12-24T09:29:55.000Z</time>
      </trkpt>
      <trkpt lat="45.45975" lon="4.76862">
        <ele>90.800003051758</ele>
        <time>2018-12-24T09:29:58.000Z</time>
      </trkpt>
      <trkpt lat="45.45977" lon="4.76863">
        <ele>90.800003051758</ele>
        <time>2018-12-24T09:29:59.000Z</time>
      </trkpt>
      <trkpt lat="45.45988" lon="4.76875">
        <ele>90.400001525879</ele>
        <time>2018-12-24T09:30:04.000Z</time>
      </trkpt>
      <trkpt lat="45.46001" lon="4.76889">
        <ele>90.199996948242</ele>
        <time>2018-12-24T09:30:10.000Z</time>
      </trkpt>
      <trkpt lat="45.46017" lon="4.76901">
        <ele>90.199996948242</ele>
        <time>2018-12-24T09:30:17.000Z</time>
      </trkpt>
      <trkpt lat="45.46031" lon="4.769">
        <ele>90</ele>
        <time>2018-12-24T09:30:23.000Z</time>
      </trkpt>
      <trkpt lat="45.46046" lon="4.76894">
        <ele>89.599998474121</ele>
        <time>2018-12-24T09:30:29.000Z</time>
      </trkpt>
      <trkpt lat="45.46053" lon="4.7689">
        <ele>89.400001525879</ele>
        <time>2018-12-24T09:30:32.000Z</time>
      </trkpt>
      <trkpt lat="45.46069" lon="4.76887">
        <ele>89.400001525879</ele>
        <time>2018-12-24T09:30:38.000Z</time>
      </trkpt>
      <trkpt lat="45.46085" lon="4.76884">
        <ele>89.400001525879</ele>
        <time>2018-12-24T09:30:43.000Z</time>
      </trkpt>
      <trkpt lat="45.46099" lon="4.76872">
        <ele>90</ele>
        <time>2018-12-24T09:30:49.000Z</time>
      </trkpt>
      <trkpt lat="45.46103" lon="4.7687">
        <ele>90</ele>
        <time>2018-12-24T09:30:51.000Z</time>
      </trkpt>
      <trkpt lat="45.46113" lon="4.76867">
        <ele>90.199996948242</ele>
        <time>2018-12-24T09:30:55.000Z</time>
      </trkpt>
      <trkpt lat="45.46123" lon="4.76861">
        <ele>90.599998474121</ele>
        <time>2018-12-24T09:31:00.000Z</time>
      </trkpt>
      <trkpt lat="45.46125" lon="4.76859">
        <ele>90.800003051758</ele>
        <time>2018-12-24T09:31:01.000Z</time>
      </trkpt>
      <trkpt lat="45.46126" lon="4.76856">
        <ele>91</ele>
        <time>2018-12-24T09:31:02.000Z</time>
      </trkpt>
      <trkpt lat="45.46132" lon="4.76851">
        <ele>91.199996948242</ele>
        <time>2018-12-24T09:31:05.000Z</time>
      </trkpt>
      <trkpt lat="45.46138" lon="4.76849">
        <ele>91.599998474121</ele>
        <time>2018-12-24T09:31:07.000Z</time>
      </trkpt>
      <trkpt lat="45.46147" lon="4.76841">
        <ele>91.800003051758</ele>
        <time>2018-12-24T09:31:11.000Z</time>
      </trkpt>
      <trkpt lat="45.46157" lon="4.76827">
        <ele>91.599998474121</ele>
        <time>2018-12-24T09:31:17.000Z</time>
      </trkpt>
      <trkpt lat="45.46163" lon="4.76811">
        <ele>92.199996948242</ele>
        <time>2018-12-24T09:31:23.000Z</time>
      </trkpt>
      <trkpt lat="45.46171" lon="4.76799">
        <ele>92.400001525879</ele>
        <time>2018-12-24T09:31:28.000Z</time>
      </trkpt>
      <trkpt lat="45.46173" lon="4.76799">
        <ele>92.400001525879</ele>
        <time>2018-12-24T09:31:29.000Z</time>
      </trkpt>
      <trkpt lat="45.46177" lon="4.76798">
        <ele>92.400001525879</ele>
        <time>2018-12-24T09:31:31.000Z</time>
      </trkpt>
      <trkpt lat="45.46181" lon="4.76794">
        <ele>92.400001525879</ele>
        <time>2018-12-24T09:31:33.000Z</time>
      </trkpt>
      <trkpt lat="45.46195" lon="4.76784">
        <ele>92.599998474121</ele>
        <time>2018-12-24T09:31:39.000Z</time>
      </trkpt>
      <trkpt lat="45.46198" lon="4.76781">
        <ele>92.800003051758</ele>
        <time>2018-12-24T09:31:40.000Z</time>
      </trkpt>
      <trkpt lat="45.4621" lon="4.76766">
        <ele>93.199996948242</ele>
        <time>2018-12-24T09:31:46.000Z</time>
      </trkpt>
      <trkpt lat="45.46215" lon="4.76759">
        <ele>93.199996948242</ele>
        <time>2018-12-24T09:31:49.000Z</time>
      </trkpt>
      <trkpt lat="45.46218" lon="4.76755">
        <ele>93</ele>
        <time>2018-12-24T09:31:51.000Z</time>
      </trkpt>
      <trkpt lat="45.46221" lon="4.7675">
        <ele>93.400001525879</ele>
        <time>2018-12-24T09:31:53.000Z</time>
      </trkpt>
      <trkpt lat="45.46234" lon="4.76739">
        <ele>93.800003051758</ele>
        <time>2018-12-24T09:31:59.000Z</time>
      </trkpt>
      <trkpt lat="45.46238" lon="4.76734">
        <ele>93.800003051758</ele>
        <time>2018-12-24T09:32:01.000Z</time>
      </trkpt>
      <trkpt lat="45.46242" lon="4.76729">
        <ele>93.800003051758</ele>
        <time>2018-12-24T09:32:03.000Z</time>
      </trkpt>
      <trkpt lat="45.46244" lon="4.76726">
        <ele>93.800003051758</ele>
        <time>2018-12-24T09:32:04.000Z</time>
      </trkpt>
      <trkpt lat="45.46256" lon="4.76708">
        <ele>93.800003051758</ele>
        <time>2018-12-24T09:32:11.000Z</time>
      </trkpt>
      <trkpt lat="45.46265" lon="4.76702">
        <ele>94.800003051758</ele>
        <time>2018-12-24T09:32:17.000Z</time>
      </trkpt>
      <trkpt lat="45.46267" lon="4.76701">
        <ele>94.800003051758</ele>
        <time>2018-12-24T09:32:18.000Z</time>
      </trkpt>
      <trkpt lat="45.46273" lon="4.76694">
        <ele>94.800003051758</ele>
        <time>2018-12-24T09:32:22.000Z</time>
      </trkpt>
      <trkpt lat="45.46275" lon="4.76692">
        <ele>95</ele>
        <time>2018-12-24T09:32:23.000Z</time>
      </trkpt>
      <trkpt lat="45.46284" lon="4.76683">
        <ele>95.199996948242</ele>
        <time>2018-12-24T09:32:29.000Z</time>
      </trkpt>
      <trkpt lat="45.46301" lon="4.7667">
        <ele>95.599998474121</ele>
        <time>2018-12-24T09:32:35.000Z</time>
      </trkpt>
      <trkpt lat="45.463" lon="4.76665">
        <ele>95.599998474121</ele>
        <time>2018-12-24T09:32:36.000Z</time>
      </trkpt>
      <trkpt lat="45.46296" lon="4.76659">
        <ele>95.599998474121</ele>
        <time>2018-12-24T09:32:38.000Z</time>
      </trkpt>
      <trkpt lat="45.46294" lon="4.76657">
        <ele>95.800003051758</ele>
        <time>2018-12-24T09:32:39.000Z</time>
      </trkpt>
      <trkpt lat="45.46291" lon="4.7664">
        <ele>96.599998474121</ele>
        <time>2018-12-24T09:32:43.000Z</time>
      </trkpt>
      <trkpt lat="45.46292" lon="4.76638">
        <ele>96.400001525879</ele>
        <time>2018-12-24T09:32:44.000Z</time>
      </trkpt>
      <trkpt lat="45.46297" lon="4.76631">
        <ele>96.599998474121</ele>
        <time>2018-12-24T09:32:47.000Z</time>
      </trkpt>
      <trkpt lat="45.46305" lon="4.76623">
        <ele>97</ele>
        <time>2018-12-24T09:32:50.000Z</time>
      </trkpt>
      <trkpt lat="45.46313" lon="4.76621">
        <ele>97.199996948242</ele>
        <time>2018-12-24T09:32:52.000Z</time>
      </trkpt>
      <trkpt lat="45.46322" lon="4.76613">
        <ele>97.400001525879</ele>
        <time>2018-12-24T09:32:57.000Z</time>
      </trkpt>
      <trkpt lat="45.46326" lon="4.76604">
        <ele>98.199996948242</ele>
        <time>2018-12-24T09:33:00.000Z</time>
      </trkpt>
      <trkpt lat="45.46333" lon="4.766">
        <ele>98.599998474121</ele>
        <time>2018-12-24T09:33:03.000Z</time>
      </trkpt>
      <trkpt lat="45.46335" lon="4.766">
        <ele>99</ele>
        <time>2018-12-24T09:33:04.000Z</time>
      </trkpt>
      <trkpt lat="45.46345" lon="4.76602">
        <ele>99.199996948242</ele>
        <time>2018-12-24T09:33:08.000Z</time>
      </trkpt>
      <trkpt lat="45.46358" lon="4.76598">
        <ele>99.199996948242</ele>
        <time>2018-12-24T09:33:13.000Z</time>
      </trkpt>
      <trkpt lat="45.46369" lon="4.76597">
        <ele>99.400001525879</ele>
        <time>2018-12-24T09:33:18.000Z</time>
      </trkpt>
      <trkpt lat="45.46372" lon="4.76594">
        <ele>99.599998474121</ele>
        <time>2018-12-24T09:33:19.000Z</time>
      </trkpt>
      <trkpt lat="45.46388" lon="4.76588">
        <ele>100</ele>
        <time>2018-12-24T09:33:26.000Z</time>
      </trkpt>
      <trkpt lat="45.46395" lon="4.76588">
        <ele>100</ele>
        <time>2018-12-24T09:33:29.000Z</time>
      </trkpt>
      <trkpt lat="45.464" lon="4.76588">
        <ele>100.19999694824</ele>
        <time>2018-12-24T09:33:31.000Z</time>
      </trkpt>
      <trkpt lat="45.46409" lon="4.76587">
        <ele>100.59999847412</ele>
        <time>2018-12-24T09:33:34.000Z</time>
      </trkpt>
      <trkpt lat="45.46423" lon="4.76583">
        <ele>101.19999694824</ele>
        <time>2018-12-24T09:33:40.000Z</time>
      </trkpt>
      <trkpt lat="45.46425" lon="4.76582">
        <ele>101</ele>
        <time>2018-12-24T09:33:41.000Z</time>
      </trkpt>
      <trkpt lat="45.46431" lon="4.76576">
        <ele>101.19999694824</ele>
        <time>2018-12-24T09:33:44.000Z</time>
      </trkpt>
      <trkpt lat="45.46435" lon="4.76567">
        <ele>101.59999847412</ele>
        <time>2018-12-24T09:33:47.000Z</time>
      </trkpt>
      <trkpt lat="45.46439" lon="4.76548">
        <ele>102</ele>
        <time>2018-12-24T09:33:52.000Z</time>
      </trkpt>
      <trkpt lat="45.4644" lon="4.76544">
        <ele>102.40000152588</ele>
        <time>2018-12-24T09:33:53.000Z</time>
      </trkpt>
      <trkpt lat="45.46442" lon="4.76538">
        <ele>102.59999847412</ele>
        <time>2018-12-24T09:33:55.000Z</time>
      </trkpt>
      <trkpt lat="45.46443" lon="4.76536">
        <ele>102.59999847412</ele>
        <time>2018-12-24T09:33:56.000Z</time>
      </trkpt>
      <trkpt lat="45.46447" lon="4.76534">
        <ele>102.80000305176</ele>
        <time>2018-12-24T09:33:58.000Z</time>
      </trkpt>
      <trkpt lat="45.46453" lon="4.76531">
        <ele>102.59999847412</ele>
        <time>2018-12-24T09:34:01.000Z</time>
      </trkpt>
      <trkpt lat="45.46454" lon="4.76529">
        <ele>102.59999847412</ele>
        <time>2018-12-24T09:34:02.000Z</time>
      </trkpt>
      <trkpt lat="45.46458" lon="4.76512">
        <ele>102.19999694824</ele>
        <time>2018-12-24T09:34:08.000Z</time>
      </trkpt>
      <trkpt lat="45.46459" lon="4.76507">
        <ele>102.40000152588</ele>
        <time>2018-12-24T09:34:10.000Z</time>
      </trkpt>
      <trkpt lat="45.46461" lon="4.76497">
        <ele>102.59999847412</ele>
        <time>2018-12-24T09:34:13.000Z</time>
      </trkpt>
      <trkpt lat="45.46465" lon="4.76489">
        <ele>102.80000305176</ele>
        <time>2018-12-24T09:34:16.000Z</time>
      </trkpt>
      <trkpt lat="45.46471" lon="4.76487">
        <ele>103</ele>
        <time>2018-12-24T09:34:18.000Z</time>
      </trkpt>
      <trkpt lat="45.46479" lon="4.76481">
        <ele>103.19999694824</ele>
        <time>2018-12-24T09:34:22.000Z</time>
      </trkpt>
      <trkpt lat="45.46481" lon="4.76482">
        <ele>103.40000152588</ele>
        <time>2018-12-24T09:34:23.000Z</time>
      </trkpt>
      <trkpt lat="45.46492" lon="4.76488">
        <ele>104</ele>
        <time>2018-12-24T09:34:28.000Z</time>
      </trkpt>
      <trkpt lat="45.46495" lon="4.76491">
        <ele>104.40000152588</ele>
        <time>2018-12-24T09:34:29.000Z</time>
      </trkpt>
      <trkpt lat="45.46497" lon="4.76493">
        <ele>105.59999847412</ele>
        <time>2018-12-24T09:34:32.000Z</time>
      </trkpt>
      <trkpt lat="45.46496" lon="4.76496">
        <ele>107</ele>
        <time>2018-12-24T09:34:35.000Z</time>
      </trkpt>
      <trkpt lat="45.46495" lon="4.76497">
        <ele>107.80000305176</ele>
        <time>2018-12-24T09:34:37.000Z</time>
      </trkpt>
      <trkpt lat="45.46496" lon="4.76498">
        <ele>108.19999694824</ele>
        <time>2018-12-24T09:34:38.000Z</time>
      </trkpt>
      <trkpt lat="45.465" lon="4.76499">
        <ele>109.40000152588</ele>
        <time>2018-12-24T09:34:41.000Z</time>
      </trkpt>
      <trkpt lat="45.46505" lon="4.76499">
        <ele>110.80000305176</ele>
        <time>2018-12-24T09:34:45.000Z</time>
      </trkpt>
      <trkpt lat="45.46508" lon="4.76496">
        <ele>111.80000305176</ele>
        <time>2018-12-24T09:34:48.000Z</time>
      </trkpt>
      <trkpt lat="45.4651" lon="4.76495">
        <ele>112</ele>
        <time>2018-12-24T09:34:49.000Z</time>
      </trkpt>
      <trkpt lat="45.46512" lon="4.76494">
        <ele>113.40000152588</ele>
        <time>2018-12-24T09:34:51.000Z</time>
      </trkpt>
      <trkpt lat="45.46515" lon="4.76487">
        <ele>114.19999694824</ele>
        <time>2018-12-24T09:34:53.000Z</time>
      </trkpt>
      <trkpt lat="45.46516" lon="4.76487">
        <ele>114.59999847412</ele>
        <time>2018-12-24T09:34:54.000Z</time>
      </trkpt>
      <trkpt lat="45.46522" lon="4.76488">
        <ele>115.59999847412</ele>
        <time>2018-12-24T09:34:57.000Z</time>
      </trkpt>
      <trkpt lat="45.46523" lon="4.76489">
        <ele>115.80000305176</ele>
        <time>2018-12-24T09:34:58.000Z</time>
      </trkpt>
      <trkpt lat="45.46523" lon="4.76491">
        <ele>116.40000152588</ele>
        <time>2018-12-24T09:35:00.000Z</time>
      </trkpt>
      <trkpt lat="45.4652" lon="4.76495">
        <ele>116.80000305176</ele>
        <time>2018-12-24T09:35:01.000Z</time>
      </trkpt>
      <trkpt lat="45.46521" lon="4.76496">
        <ele>117.80000305176</ele>
        <time>2018-12-24T09:35:03.000Z</time>
      </trkpt>
      <trkpt lat="45.46522" lon="4.76496">
        <ele>118</ele>
        <time>2018-12-24T09:35:04.000Z</time>
      </trkpt>
      <trkpt lat="45.46525" lon="4.76497">
        <ele>119.19999694824</ele>
        <time>2018-12-24T09:35:07.000Z</time>
      </trkpt>
      <trkpt lat="45.46526" lon="4.76497">
        <ele>119.40000152588</ele>
        <time>2018-12-24T09:35:08.000Z</time>
      </trkpt>
      <trkpt lat="45.46527" lon="4.76497">
        <ele>119.59999847412</ele>
        <time>2018-12-24T09:35:09.000Z</time>
      </trkpt>
      <trkpt lat="45.4653" lon="4.76499">
        <ele>120.59999847412</ele>
        <time>2018-12-24T09:35:11.000Z</time>
      </trkpt>
      <trkpt lat="45.46533" lon="4.765">
        <ele>121.19999694824</ele>
        <time>2018-12-24T09:35:13.000Z</time>
      </trkpt>
      <trkpt lat="45.46535" lon="4.765">
        <ele>121.59999847412</ele>
        <time>2018-12-24T09:35:15.000Z</time>
      </trkpt>
      <trkpt lat="45.46539" lon="4.76499">
        <ele>122.80000305176</ele>
        <time>2018-12-24T09:35:18.000Z</time>
      </trkpt>
      <trkpt lat="45.46542" lon="4.76499">
        <ele>123.40000152588</ele>
        <time>2018-12-24T09:35:20.000Z</time>
      </trkpt>
      <trkpt lat="45.46542" lon="4.765">
        <ele>123.80000305176</ele>
        <time>2018-12-24T09:35:22.000Z</time>
      </trkpt>
      <trkpt lat="45.46542" lon="4.76501">
        <ele>123.80000305176</ele>
        <time>2018-12-24T09:35:23.000Z</time>
      </trkpt>
      <trkpt lat="45.46543" lon="4.76505">
        <ele>124.40000152588</ele>
        <time>2018-12-24T09:35:25.000Z</time>
      </trkpt>
      <trkpt lat="45.46545" lon="4.76506">
        <ele>124.80000305176</ele>
        <time>2018-12-24T09:35:27.000Z</time>
      </trkpt>
      <trkpt lat="45.46546" lon="4.76507">
        <ele>125</ele>
        <time>2018-12-24T09:35:28.000Z</time>
      </trkpt>
      <trkpt lat="45.46549" lon="4.76512">
        <ele>126</ele>
        <time>2018-12-24T09:35:31.000Z</time>
      </trkpt>
      <trkpt lat="45.4655" lon="4.76515">
        <ele>126.19999694824</ele>
        <time>2018-12-24T09:35:32.000Z</time>
      </trkpt>
      <trkpt lat="45.46553" lon="4.76515">
        <ele>127.19999694824</ele>
        <time>2018-12-24T09:35:35.000Z</time>
      </trkpt>
      <trkpt lat="45.46553" lon="4.76515">
        <ele>127.59999847412</ele>
        <time>2018-12-24T09:35:36.000Z</time>
      </trkpt>
      <trkpt lat="45.46558" lon="4.76518">
        <ele>128.80000305176</ele>
        <time>2018-12-24T09:35:39.000Z</time>
      </trkpt>
      <trkpt lat="45.46559" lon="4.76519">
        <ele>129.19999694824</ele>
        <time>2018-12-24T09:35:40.000Z</time>
      </trkpt>
      <trkpt lat="45.46561" lon="4.7652">
        <ele>129.60000610352</ele>
        <time>2018-12-24T09:35:42.000Z</time>
      </trkpt>
      <trkpt lat="45.46563" lon="4.76522">
        <ele>130</ele>
        <time>2018-12-24T09:35:43.000Z</time>
      </trkpt>
      <trkpt lat="45.46566" lon="4.76524">
        <ele>130.60000610352</ele>
        <time>2018-12-24T09:35:45.000Z</time>
      </trkpt>
      <trkpt lat="45.46567" lon="4.76524">
        <ele>130.80000305176</ele>
        <time>2018-12-24T09:35:46.000Z</time>
      </trkpt>
      <trkpt lat="45.46568" lon="4.76525">
        <ele>131</ele>
        <time>2018-12-24T09:35:47.000Z</time>
      </trkpt>
      <trkpt lat="45.46572" lon="4.76526">
        <ele>131.80000305176</ele>
        <time>2018-12-24T09:35:50.000Z</time>
      </trkpt>
      <trkpt lat="45.46575" lon="4.76526">
        <ele>132</ele>
        <time>2018-12-24T09:35:52.000Z</time>
      </trkpt>
      <trkpt lat="45.46579" lon="4.76526">
        <ele>133</ele>
        <time>2018-12-24T09:35:56.000Z</time>
      </trkpt>
      <trkpt lat="45.46579" lon="4.76526">
        <ele>133.39999389648</ele>
        <time>2018-12-24T09:35:57.000Z</time>
      </trkpt>
      <trkpt lat="45.46581" lon="4.76527">
        <ele>133.80000305176</ele>
        <time>2018-12-24T09:35:58.000Z</time>
      </trkpt>
      <trkpt lat="45.46583" lon="4.76529">
        <ele>134.60000610352</ele>
        <time>2018-12-24T09:36:01.000Z</time>
      </trkpt>
      <trkpt lat="45.46584" lon="4.7653">
        <ele>135.80000305176</ele>
        <time>2018-12-24T09:36:04.000Z</time>
      </trkpt>
      <trkpt lat="45.46585" lon="4.76532">
        <ele>136.80000305176</ele>
        <time>2018-12-24T09:36:07.000Z</time>
      </trkpt>
      <trkpt lat="45.46589" lon="4.76538">
        <ele>137.80000305176</ele>
        <time>2018-12-24T09:36:11.000Z</time>
      </trkpt>
      <trkpt lat="45.46589" lon="4.76539">
        <ele>138.19999694824</ele>
        <time>2018-12-24T09:36:12.000Z</time>
      </trkpt>
      <trkpt lat="45.4659" lon="4.76542">
        <ele>139</ele>
        <time>2018-12-24T09:36:14.000Z</time>
      </trkpt>
      <trkpt lat="45.46591" lon="4.76542">
        <ele>139.60000610352</ele>
        <time>2018-12-24T09:36:16.000Z</time>
      </trkpt>
      <trkpt lat="45.46593" lon="4.76541">
        <ele>140</ele>
        <time>2018-12-24T09:36:18.000Z</time>
      </trkpt>
      <trkpt lat="45.46594" lon="4.76542">
        <ele>140</ele>
        <time>2018-12-24T09:36:19.000Z</time>
      </trkpt>
      <trkpt lat="45.46595" lon="4.76547">
        <ele>140</ele>
        <time>2018-12-24T09:36:22.000Z</time>
      </trkpt>
      <trkpt lat="45.46596" lon="4.76551">
        <ele>140.60000610352</ele>
        <time>2018-12-24T09:36:26.000Z</time>
      </trkpt>
      <trkpt lat="45.46596" lon="4.76553">
        <ele>140.80000305176</ele>
        <time>2018-12-24T09:36:27.000Z</time>
      </trkpt>
      <trkpt lat="45.46596" lon="4.76555">
        <ele>141.19999694824</ele>
        <time>2018-12-24T09:36:28.000Z</time>
      </trkpt>
      <trkpt lat="45.46596" lon="4.76557">
        <ele>141.60000610352</ele>
        <time>2018-12-24T09:36:29.000Z</time>
      </trkpt>
      <trkpt lat="45.46597" lon="4.76558">
        <ele>141.80000305176</ele>
        <time>2018-12-24T09:36:30.000Z</time>
      </trkpt>
      <trkpt lat="45.46597" lon="4.76556">
        <ele>142.19999694824</ele>
        <time>2018-12-24T09:36:32.000Z</time>
      </trkpt>
      <trkpt lat="45.46598" lon="4.76553">
        <ele>142.39999389648</ele>
        <time>2018-12-24T09:36:34.000Z</time>
      </trkpt>
      <trkpt lat="45.46598" lon="4.76553">
        <ele>142.60000610352</ele>
        <time>2018-12-24T09:36:35.000Z</time>
      </trkpt>
      <trkpt lat="45.46599" lon="4.76553">
        <ele>142.60000610352</ele>
        <time>2018-12-24T09:36:36.000Z</time>
      </trkpt>
      <trkpt lat="45.46599" lon="4.76556">
        <ele>142.80000305176</ele>
        <time>2018-12-24T09:36:38.000Z</time>
      </trkpt>
      <trkpt lat="45.46603" lon="4.7656">
        <ele>142.80000305176</ele>
        <time>2018-12-24T09:36:41.000Z</time>
      </trkpt>
      <trkpt lat="45.46607" lon="4.76564">
        <ele>142.80000305176</ele>
        <time>2018-12-24T09:36:44.000Z</time>
      </trkpt>
      <trkpt lat="45.46608" lon="4.76571">
        <ele>142.80000305176</ele>
        <time>2018-12-24T09:36:47.000Z</time>
      </trkpt>
      <trkpt lat="45.46608" lon="4.76575">
        <ele>143</ele>
        <time>2018-12-24T09:36:49.000Z</time>
      </trkpt>
      <trkpt lat="45.46609" lon="4.76577">
        <ele>143</ele>
        <time>2018-12-24T09:36:50.000Z</time>
      </trkpt>
      <trkpt lat="45.46611" lon="4.7658">
        <ele>143</ele>
        <time>2018-12-24T09:36:52.000Z</time>
      </trkpt>
      <trkpt lat="45.46613" lon="4.76584">
        <ele>142.80000305176</ele>
        <time>2018-12-24T09:36:55.000Z</time>
      </trkpt>
      <trkpt lat="45.46616" lon="4.76586">
        <ele>142.80000305176</ele>
        <time>2018-12-24T09:36:56.000Z</time>
      </trkpt>
      <trkpt lat="45.46633" lon="4.76592">
        <ele>143</ele>
        <time>2018-12-24T09:37:03.000Z</time>
      </trkpt>
      <trkpt lat="45.46639" lon="4.76594">
        <ele>143.39999389648</ele>
        <time>2018-12-24T09:37:06.000Z</time>
      </trkpt>
      <trkpt lat="45.46645" lon="4.76597">
        <ele>142.80000305176</ele>
        <time>2018-12-24T09:37:09.000Z</time>
      </trkpt>
      <trkpt lat="45.46652" lon="4.76602">
        <ele>142.60000610352</ele>
        <time>2018-12-24T09:37:13.000Z</time>
      </trkpt>
      <trkpt lat="45.46656" lon="4.76605">
        <ele>142.39999389648</ele>
        <time>2018-12-24T09:37:15.000Z</time>
      </trkpt>
      <trkpt lat="45.46666" lon="4.7661">
        <ele>143.60000610352</ele>
        <time>2018-12-24T09:37:21.000Z</time>
      </trkpt>
      <trkpt lat="45.46668" lon="4.76611">
        <ele>143.80000305176</ele>
        <time>2018-12-24T09:37:22.000Z</time>
      </trkpt>
      <trkpt lat="45.46676" lon="4.76615">
        <ele>144.60000610352</ele>
        <time>2018-12-24T09:37:27.000Z</time>
      </trkpt>
      <trkpt lat="45.46677" lon="4.76615">
        <ele>144.60000610352</ele>
        <time>2018-12-24T09:37:28.000Z</time>
      </trkpt>
      <trkpt lat="45.46684" lon="4.76615">
        <ele>145.80000305176</ele>
        <time>2018-12-24T09:37:32.000Z</time>
      </trkpt>
      <trkpt lat="45.46687" lon="4.76614">
        <ele>146.19999694824</ele>
        <time>2018-12-24T09:37:34.000Z</time>
      </trkpt>
      <trkpt lat="45.4669" lon="4.76614">
        <ele>147</ele>
        <time>2018-12-24T09:37:36.000Z</time>
      </trkpt>
      <trkpt lat="45.46696" lon="4.76615">
        <ele>147.80000305176</ele>
        <time>2018-12-24T09:37:40.000Z</time>
      </trkpt>
      <trkpt lat="45.46699" lon="4.76616">
        <ele>148.19999694824</ele>
        <time>2018-12-24T09:37:42.000Z</time>
      </trkpt>
      <trkpt lat="45.46707" lon="4.76622">
        <ele>149</ele>
        <time>2018-12-24T09:37:47.000Z</time>
      </trkpt>
      <trkpt lat="45.4671" lon="4.76623">
        <ele>149.60000610352</ele>
        <time>2018-12-24T09:37:49.000Z</time>
      </trkpt>
      <trkpt lat="45.46712" lon="4.7662">
        <ele>150.80000305176</ele>
        <time>2018-12-24T09:37:52.000Z</time>
      </trkpt>
      <trkpt lat="45.46713" lon="4.76618">
        <ele>151</ele>
        <time>2018-12-24T09:37:53.000Z</time>
      </trkpt>
      <trkpt lat="45.46711" lon="4.7661">
        <ele>151.39999389648</ele>
        <time>2018-12-24T09:37:57.000Z</time>
      </trkpt>
      <trkpt lat="45.46711" lon="4.76599">
        <ele>151.80000305176</ele>
        <time>2018-12-24T09:38:01.000Z</time>
      </trkpt>
      <trkpt lat="45.46714" lon="4.76595">
        <ele>151.60000610352</ele>
        <time>2018-12-24T09:38:03.000Z</time>
      </trkpt>
      <trkpt lat="45.46722" lon="4.76587">
        <ele>149.60000610352</ele>
        <time>2018-12-24T09:38:09.000Z</time>
      </trkpt>
      <trkpt lat="45.46724" lon="4.76585">
        <ele>149.19999694824</ele>
        <time>2018-12-24T09:38:10.000Z</time>
      </trkpt>
      <trkpt lat="45.46728" lon="4.76574">
        <ele>148.39999389648</ele>
        <time>2018-12-24T09:38:14.000Z</time>
      </trkpt>
      <trkpt lat="45.46729" lon="4.76569">
        <ele>148</ele>
        <time>2018-12-24T09:38:16.000Z</time>
      </trkpt>
      <trkpt lat="45.46731" lon="4.76563">
        <ele>147.39999389648</ele>
        <time>2018-12-24T09:38:18.000Z</time>
      </trkpt>
      <trkpt lat="45.46738" lon="4.76551">
        <ele>146.60000610352</ele>
        <time>2018-12-24T09:38:23.000Z</time>
      </trkpt>
      <trkpt lat="45.46744" lon="4.76547">
        <ele>146.19999694824</ele>
        <time>2018-12-24T09:38:26.000Z</time>
      </trkpt>
      <trkpt lat="45.46753" lon="4.76541">
        <ele>145.60000610352</ele>
        <time>2018-12-24T09:38:30.000Z</time>
      </trkpt>
      <trkpt lat="45.46764" lon="4.76535">
        <ele>145.60000610352</ele>
        <time>2018-12-24T09:38:35.000Z</time>
      </trkpt>
      <trkpt lat="45.46768" lon="4.76532">
        <ele>145.19999694824</ele>
        <time>2018-12-24T09:38:37.000Z</time>
      </trkpt>
      <trkpt lat="45.4677" lon="4.7653">
        <ele>145.19999694824</ele>
        <time>2018-12-24T09:38:38.000Z</time>
      </trkpt>
      <trkpt lat="45.46778" lon="4.76522">
        <ele>144.39999389648</ele>
        <time>2018-12-24T09:38:43.000Z</time>
      </trkpt>
      <trkpt lat="45.46781" lon="4.76519">
        <ele>144</ele>
        <time>2018-12-24T09:38:45.000Z</time>
      </trkpt>
      <trkpt lat="45.4679" lon="4.76512">
        <ele>143.80000305176</ele>
        <time>2018-12-24T09:38:50.000Z</time>
      </trkpt>
      <trkpt lat="45.46802" lon="4.76502">
        <ele>143.19999694824</ele>
        <time>2018-12-24T09:38:56.000Z</time>
      </trkpt>
      <trkpt lat="45.46811" lon="4.76496">
        <ele>142.80000305176</ele>
        <time>2018-12-24T09:39:01.000Z</time>
      </trkpt>
      <trkpt lat="45.46812" lon="4.76494">
        <ele>143</ele>
        <time>2018-12-24T09:39:02.000Z</time>
      </trkpt>
      <trkpt lat="45.46821" lon="4.76482">
        <ele>144</ele>
        <time>2018-12-24T09:39:08.000Z</time>
      </trkpt>
      <trkpt lat="45.46823" lon="4.7648">
        <ele>144</ele>
        <time>2018-12-24T09:39:09.000Z</time>
      </trkpt>
      <trkpt lat="45.4683" lon="4.76468">
        <ele>145.19999694824</ele>
        <time>2018-12-24T09:39:15.000Z</time>
      </trkpt>
      <trkpt lat="45.46831" lon="4.76466">
        <ele>145.39999389648</ele>
        <time>2018-12-24T09:39:16.000Z</time>
      </trkpt>
      <trkpt lat="45.46843" lon="4.76447">
        <ele>146</ele>
        <time>2018-12-24T09:39:24.000Z</time>
      </trkpt>
      <trkpt lat="45.46855" lon="4.76427">
        <ele>146</ele>
        <time>2018-12-24T09:39:32.000Z</time>
      </trkpt>
      <trkpt lat="45.46856" lon="4.76426">
        <ele>146.19999694824</ele>
        <time>2018-12-24T09:39:33.000Z</time>
      </trkpt>
      <trkpt lat="45.46862" lon="4.7642">
        <ele>147.39999389648</ele>
        <time>2018-12-24T09:39:37.000Z</time>
      </trkpt>
      <trkpt lat="45.46866" lon="4.76418">
        <ele>147.39999389648</ele>
        <time>2018-12-24T09:39:39.000Z</time>
      </trkpt>
      <trkpt lat="45.46875" lon="4.76412">
        <ele>148.39999389648</ele>
        <time>2018-12-24T09:39:45.000Z</time>
      </trkpt>
      <trkpt lat="45.46882" lon="4.76406">
        <ele>149.39999389648</ele>
        <time>2018-12-24T09:39:50.000Z</time>
      </trkpt>
      <trkpt lat="45.46885" lon="4.76403">
        <ele>149.60000610352</ele>
        <time>2018-12-24T09:39:52.000Z</time>
      </trkpt>
      <trkpt lat="45.46895" lon="4.76401">
        <ele>150.60000610352</ele>
        <time>2018-12-24T09:39:57.000Z</time>
      </trkpt>
      <trkpt lat="45.46896" lon="4.764">
        <ele>150.80000305176</ele>
        <time>2018-12-24T09:39:58.000Z</time>
      </trkpt>
      <trkpt lat="45.46903" lon="4.76397">
        <ele>151.80000305176</ele>
        <time>2018-12-24T09:40:03.000Z</time>
      </trkpt>
      <trkpt lat="45.46904" lon="4.76396">
        <ele>152.39999389648</ele>
        <time>2018-12-24T09:40:04.000Z</time>
      </trkpt>
      <trkpt lat="45.46906" lon="4.76393">
        <ele>153</ele>
        <time>2018-12-24T09:40:06.000Z</time>
      </trkpt>
      <trkpt lat="45.46908" lon="4.76389">
        <ele>154</ele>
        <time>2018-12-24T09:40:09.000Z</time>
      </trkpt>
      <trkpt lat="45.46909" lon="4.76381">
        <ele>154.39999389648</ele>
        <time>2018-12-24T09:40:10.000Z</time>
      </trkpt>
      <trkpt lat="45.46916" lon="4.76361">
        <ele>155.60000610352</ele>
        <time>2018-12-24T09:40:16.000Z</time>
      </trkpt>
      <trkpt lat="45.46917" lon="4.76361">
        <ele>155.80000305176</ele>
        <time>2018-12-24T09:40:17.000Z</time>
      </trkpt>
      <trkpt lat="45.46923" lon="4.76361">
        <ele>156.60000610352</ele>
        <time>2018-12-24T09:40:22.000Z</time>
      </trkpt>
      <trkpt lat="45.46926" lon="4.7636">
        <ele>157.19999694824</ele>
        <time>2018-12-24T09:40:24.000Z</time>
      </trkpt>
      <trkpt lat="45.46928" lon="4.7636">
        <ele>157.60000610352</ele>
        <time>2018-12-24T09:40:26.000Z</time>
      </trkpt>
      <trkpt lat="45.46929" lon="4.7636">
        <ele>158</ele>
        <time>2018-12-24T09:40:27.000Z</time>
      </trkpt>
      <trkpt lat="45.46932" lon="4.76357">
        <ele>158.80000305176</ele>
        <time>2018-12-24T09:40:30.000Z</time>
      </trkpt>
      <trkpt lat="45.46936" lon="4.76356">
        <ele>159.39999389648</ele>
        <time>2018-12-24T09:40:33.000Z</time>
      </trkpt>
      <trkpt lat="45.46938" lon="4.76357">
        <ele>160.19999694824</ele>
        <time>2018-12-24T09:40:35.000Z</time>
      </trkpt>
      <trkpt lat="45.46939" lon="4.76356">
        <ele>160.60000610352</ele>
        <time>2018-12-24T09:40:36.000Z</time>
      </trkpt>
      <trkpt lat="45.46943" lon="4.76356">
        <ele>161.19999694824</ele>
        <time>2018-12-24T09:40:39.000Z</time>
      </trkpt>
      <trkpt lat="45.46944" lon="4.76356">
        <ele>161.60000610352</ele>
        <time>2018-12-24T09:40:40.000Z</time>
      </trkpt>
      <trkpt lat="45.46949" lon="4.76356">
        <ele>162.60000610352</ele>
        <time>2018-12-24T09:40:43.000Z</time>
      </trkpt>
      <trkpt lat="45.4695" lon="4.76355">
        <ele>162.80000305176</ele>
        <time>2018-12-24T09:40:44.000Z</time>
      </trkpt>
      <trkpt lat="45.46954" lon="4.76353">
        <ele>163.60000610352</ele>
        <time>2018-12-24T09:40:47.000Z</time>
      </trkpt>
      <trkpt lat="45.46954" lon="4.76351">
        <ele>164.19999694824</ele>
        <time>2018-12-24T09:40:48.000Z</time>
      </trkpt>
      <trkpt lat="45.46956" lon="4.76345">
        <ele>165</ele>
        <time>2018-12-24T09:40:51.000Z</time>
      </trkpt>
      <trkpt lat="45.46958" lon="4.76342">
        <ele>165.39999389648</ele>
        <time>2018-12-24T09:40:53.000Z</time>
      </trkpt>
      <trkpt lat="45.46962" lon="4.7634">
        <ele>166.39999389648</ele>
        <time>2018-12-24T09:40:56.000Z</time>
      </trkpt>
      <trkpt lat="45.46964" lon="4.76338">
        <ele>167.19999694824</ele>
        <time>2018-12-24T09:40:58.000Z</time>
      </trkpt>
      <trkpt lat="45.46966" lon="4.76336">
        <ele>167.60000610352</ele>
        <time>2018-12-24T09:41:00.000Z</time>
      </trkpt>
      <trkpt lat="45.46968" lon="4.76334">
        <ele>168.19999694824</ele>
        <time>2018-12-24T09:41:02.000Z</time>
      </trkpt>
      <trkpt lat="45.4697" lon="4.76332">
        <ele>168.80000305176</ele>
        <time>2018-12-24T09:41:04.000Z</time>
      </trkpt>
      <trkpt lat="45.46971" lon="4.76331">
        <ele>169</ele>
        <time>2018-12-24T09:41:05.000Z</time>
      </trkpt>
      <trkpt lat="45.46977" lon="4.76326">
        <ele>169.80000305176</ele>
        <time>2018-12-24T09:41:10.000Z</time>
      </trkpt>
      <trkpt lat="45.46978" lon="4.76325">
        <ele>170</ele>
        <time>2018-12-24T09:41:11.000Z</time>
      </trkpt>
      <trkpt lat="45.46984" lon="4.76318">
        <ele>171</ele>
        <time>2018-12-24T09:41:15.000Z</time>
      </trkpt>
      <trkpt lat="45.46985" lon="4.76317">
        <ele>171.19999694824</ele>
        <time>2018-12-24T09:41:16.000Z</time>
      </trkpt>
      <trkpt lat="45.4699" lon="4.76312">
        <ele>172.19999694824</ele>
        <time>2018-12-24T09:41:20.000Z</time>
      </trkpt>
      <trkpt lat="45.46992" lon="4.7631">
        <ele>172.80000305176</ele>
        <time>2018-12-24T09:41:22.000Z</time>
      </trkpt>
      <trkpt lat="45.46992" lon="4.76309">
        <ele>173.19999694824</ele>
        <time>2018-12-24T09:41:23.000Z</time>
      </trkpt>
      <trkpt lat="45.46993" lon="4.76307">
        <ele>173.60000610352</ele>
        <time>2018-12-24T09:41:24.000Z</time>
      </trkpt>
      <trkpt lat="45.46995" lon="4.76306">
        <ele>174.39999389648</ele>
        <time>2018-12-24T09:41:26.000Z</time>
      </trkpt>
      <trkpt lat="45.46997" lon="4.76304">
        <ele>174.80000305176</ele>
        <time>2018-12-24T09:41:27.000Z</time>
      </trkpt>
      <trkpt lat="45.46999" lon="4.76302">
        <ele>175.60000610352</ele>
        <time>2018-12-24T09:41:29.000Z</time>
      </trkpt>
      <trkpt lat="45.47006" lon="4.76298">
        <ele>176</ele>
        <time>2018-12-24T09:41:34.000Z</time>
      </trkpt>
      <trkpt lat="45.47008" lon="4.76295">
        <ele>176.60000610352</ele>
        <time>2018-12-24T09:41:36.000Z</time>
      </trkpt>
      <trkpt lat="45.47011" lon="4.76293">
        <ele>177</ele>
        <time>2018-12-24T09:41:38.000Z</time>
      </trkpt>
      <trkpt lat="45.47013" lon="4.76289">
        <ele>177.39999389648</ele>
        <time>2018-12-24T09:41:40.000Z</time>
      </trkpt>
      <trkpt lat="45.47015" lon="4.76288">
        <ele>177.60000610352</ele>
        <time>2018-12-24T09:41:41.000Z</time>
      </trkpt>
      <trkpt lat="45.47019" lon="4.76285">
        <ele>178.19999694824</ele>
        <time>2018-12-24T09:41:44.000Z</time>
      </trkpt>
      <trkpt lat="45.47021" lon="4.76284">
        <ele>179</ele>
        <time>2018-12-24T09:41:46.000Z</time>
      </trkpt>
      <trkpt lat="45.47023" lon="4.76282">
        <ele>179.60000610352</ele>
        <time>2018-12-24T09:41:48.000Z</time>
      </trkpt>
      <trkpt lat="45.47026" lon="4.76279">
        <ele>180.19999694824</ele>
        <time>2018-12-24T09:41:51.000Z</time>
      </trkpt>
      <trkpt lat="45.47032" lon="4.76276">
        <ele>181.60000610352</ele>
        <time>2018-12-24T09:41:55.000Z</time>
      </trkpt>
      <trkpt lat="45.47033" lon="4.76276">
        <ele>181.80000305176</ele>
        <time>2018-12-24T09:41:56.000Z</time>
      </trkpt>
      <trkpt lat="45.47046" lon="4.7627">
        <ele>182.60000610352</ele>
        <time>2018-12-24T09:42:04.000Z</time>
      </trkpt>
      <trkpt lat="45.47048" lon="4.7627">
        <ele>182.80000305176</ele>
        <time>2018-12-24T09:42:05.000Z</time>
      </trkpt>
      <trkpt lat="45.47053" lon="4.76268">
        <ele>184</ele>
        <time>2018-12-24T09:42:08.000Z</time>
      </trkpt>
      <trkpt lat="45.47055" lon="4.76267">
        <ele>184.60000610352</ele>
        <time>2018-12-24T09:42:10.000Z</time>
      </trkpt>
      <trkpt lat="45.47056" lon="4.76266">
        <ele>185</ele>
        <time>2018-12-24T09:42:11.000Z</time>
      </trkpt>
      <trkpt lat="45.47061" lon="4.76261">
        <ele>186.19999694824</ele>
        <time>2018-12-24T09:42:15.000Z</time>
      </trkpt>
      <trkpt lat="45.47064" lon="4.76259">
        <ele>186.60000610352</ele>
        <time>2018-12-24T09:42:17.000Z</time>
      </trkpt>
      <trkpt lat="45.47069" lon="4.76254">
        <ele>187.39999389648</ele>
        <time>2018-12-24T09:42:21.000Z</time>
      </trkpt>
      <trkpt lat="45.47072" lon="4.7625">
        <ele>188</ele>
        <time>2018-12-24T09:42:24.000Z</time>
      </trkpt>
      <trkpt lat="45.47073" lon="4.76248">
        <ele>188.39999389648</ele>
        <time>2018-12-24T09:42:25.000Z</time>
      </trkpt>
      <trkpt lat="45.47074" lon="4.76245">
        <ele>188.80000305176</ele>
        <time>2018-12-24T09:42:27.000Z</time>
      </trkpt>
      <trkpt lat="45.47076" lon="4.76242">
        <ele>189.39999389648</ele>
        <time>2018-12-24T09:42:29.000Z</time>
      </trkpt>
      <trkpt lat="45.47079" lon="4.76238">
        <ele>190.60000610352</ele>
        <time>2018-12-24T09:42:32.000Z</time>
      </trkpt>
      <trkpt lat="45.47086" lon="4.76233">
        <ele>191.60000610352</ele>
        <time>2018-12-24T09:42:36.000Z</time>
      </trkpt>
      <trkpt lat="45.47094" lon="4.76225">
        <ele>192.80000305176</ele>
        <time>2018-12-24T09:42:43.000Z</time>
      </trkpt>
      <trkpt lat="45.47095" lon="4.76224">
        <ele>193</ele>
        <time>2018-12-24T09:42:44.000Z</time>
      </trkpt>
      <trkpt lat="45.47097" lon="4.7622">
        <ele>194</ele>
        <time>2018-12-24T09:42:47.000Z</time>
      </trkpt>
      <trkpt lat="45.47097" lon="4.76219">
        <ele>194.39999389648</ele>
        <time>2018-12-24T09:42:48.000Z</time>
      </trkpt>
      <trkpt lat="45.47096" lon="4.76216">
        <ele>194.80000305176</ele>
        <time>2018-12-24T09:42:50.000Z</time>
      </trkpt>
      <trkpt lat="45.47097" lon="4.76213">
        <ele>195.19999694824</ele>
        <time>2018-12-24T09:42:52.000Z</time>
      </trkpt>
      <trkpt lat="45.471" lon="4.7621">
        <ele>196</ele>
        <time>2018-12-24T09:42:55.000Z</time>
      </trkpt>
      <trkpt lat="45.471" lon="4.76208">
        <ele>196.39999389648</ele>
        <time>2018-12-24T09:42:56.000Z</time>
      </trkpt>
      <trkpt lat="45.47102" lon="4.76206">
        <ele>197.19999694824</ele>
        <time>2018-12-24T09:42:58.000Z</time>
      </trkpt>
      <trkpt lat="45.47104" lon="4.76199">
        <ele>197.60000610352</ele>
        <time>2018-12-24T09:43:01.000Z</time>
      </trkpt>
      <trkpt lat="45.47108" lon="4.76193">
        <ele>198.39999389648</ele>
        <time>2018-12-24T09:43:05.000Z</time>
      </trkpt>
      <trkpt lat="45.47108" lon="4.76191">
        <ele>198.60000610352</ele>
        <time>2018-12-24T09:43:06.000Z</time>
      </trkpt>
      <trkpt lat="45.47112" lon="4.76186">
        <ele>199.60000610352</ele>
        <time>2018-12-24T09:43:10.000Z</time>
      </trkpt>
      <trkpt lat="45.47113" lon="4.76182">
        <ele>200.39999389648</ele>
        <time>2018-12-24T09:43:12.000Z</time>
      </trkpt>
      <trkpt lat="45.47114" lon="4.76178">
        <ele>200.80000305176</ele>
        <time>2018-12-24T09:43:14.000Z</time>
      </trkpt>
      <trkpt lat="45.47117" lon="4.76176">
        <ele>202.39999389648</ele>
        <time>2018-12-24T09:43:17.000Z</time>
      </trkpt>
      <trkpt lat="45.47117" lon="4.76175">
        <ele>203</ele>
        <time>2018-12-24T09:43:18.000Z</time>
      </trkpt>
      <trkpt lat="45.47118" lon="4.76174">
        <ele>203.39999389648</ele>
        <time>2018-12-24T09:43:19.000Z</time>
      </trkpt>
      <trkpt lat="45.47118" lon="4.76172">
        <ele>203.80000305176</ele>
        <time>2018-12-24T09:43:20.000Z</time>
      </trkpt>
      <trkpt lat="45.47119" lon="4.76166">
        <ele>204.80000305176</ele>
        <time>2018-12-24T09:43:23.000Z</time>
      </trkpt>
      <trkpt lat="45.4712" lon="4.76164">
        <ele>205.39999389648</ele>
        <time>2018-12-24T09:43:25.000Z</time>
      </trkpt>
      <trkpt lat="45.47121" lon="4.76163">
        <ele>205.39999389648</ele>
        <time>2018-12-24T09:43:26.000Z</time>
      </trkpt>
      <trkpt lat="45.47121" lon="4.76162">
        <ele>205.60000610352</ele>
        <time>2018-12-24T09:43:27.000Z</time>
      </trkpt>
      <trkpt lat="45.47122" lon="4.7616">
        <ele>206</ele>
        <time>2018-12-24T09:43:29.000Z</time>
      </trkpt>
      <trkpt lat="45.47124" lon="4.76159">
        <ele>206.80000305176</ele>
        <time>2018-12-24T09:43:31.000Z</time>
      </trkpt>
      <trkpt lat="45.47125" lon="4.76159">
        <ele>207.19999694824</ele>
        <time>2018-12-24T09:43:32.000Z</time>
      </trkpt>
      <trkpt lat="45.47127" lon="4.76158">
        <ele>207.60000610352</ele>
        <time>2018-12-24T09:43:33.000Z</time>
      </trkpt>
      <trkpt lat="45.47129" lon="4.76158">
        <ele>208.39999389648</ele>
        <time>2018-12-24T09:43:35.000Z</time>
      </trkpt>
      <trkpt lat="45.47131" lon="4.76157">
        <ele>209</ele>
        <time>2018-12-24T09:43:37.000Z</time>
      </trkpt>
      <trkpt lat="45.47132" lon="4.76156">
        <ele>209.19999694824</ele>
        <time>2018-12-24T09:43:38.000Z</time>
      </trkpt>
      <trkpt lat="45.47133" lon="4.76156">
        <ele>209.39999389648</ele>
        <time>2018-12-24T09:43:39.000Z</time>
      </trkpt>
      <trkpt lat="45.47137" lon="4.76154">
        <ele>210.60000610352</ele>
        <time>2018-12-24T09:43:43.000Z</time>
      </trkpt>
      <trkpt lat="45.47145" lon="4.76154">
        <ele>211.80000305176</ele>
        <time>2018-12-24T09:43:49.000Z</time>
      </trkpt>
      <trkpt lat="45.47149" lon="4.76154">
        <ele>212.19999694824</ele>
        <time>2018-12-24T09:43:52.000Z</time>
      </trkpt>
      <trkpt lat="45.47152" lon="4.76154">
        <ele>212.60000610352</ele>
        <time>2018-12-24T09:43:54.000Z</time>
      </trkpt>
      <trkpt lat="45.47153" lon="4.76154">
        <ele>212.80000305176</ele>
        <time>2018-12-24T09:43:55.000Z</time>
      </trkpt>
      <trkpt lat="45.4716" lon="4.76151">
        <ele>214</ele>
        <time>2018-12-24T09:44:00.000Z</time>
      </trkpt>
      <trkpt lat="45.47167" lon="4.76151">
        <ele>215</ele>
        <time>2018-12-24T09:44:04.000Z</time>
      </trkpt>
      <trkpt lat="45.47169" lon="4.76152">
        <ele>215.39999389648</ele>
        <time>2018-12-24T09:44:06.000Z</time>
      </trkpt>
      <trkpt lat="45.47174" lon="4.76152">
        <ele>216</ele>
        <time>2018-12-24T09:44:10.000Z</time>
      </trkpt>
      <trkpt lat="45.47175" lon="4.76151">
        <ele>216.39999389648</ele>
        <time>2018-12-24T09:44:11.000Z</time>
      </trkpt>
      <trkpt lat="45.47176" lon="4.76151">
        <ele>216.80000305176</ele>
        <time>2018-12-24T09:44:12.000Z</time>
      </trkpt>
      <trkpt lat="45.47178" lon="4.76151">
        <ele>217.60000610352</ele>
        <time>2018-12-24T09:44:14.000Z</time>
      </trkpt>
      <trkpt lat="45.47183" lon="4.7615">
        <ele>218.39999389648</ele>
        <time>2018-12-24T09:44:17.000Z</time>
      </trkpt>
      <trkpt lat="45.47184" lon="4.7615">
        <ele>218.60000610352</ele>
        <time>2018-12-24T09:44:18.000Z</time>
      </trkpt>
      <trkpt lat="45.47188" lon="4.7615">
        <ele>219.19999694824</ele>
        <time>2018-12-24T09:44:22.000Z</time>
      </trkpt>
      <trkpt lat="45.47189" lon="4.7615">
        <ele>219.80000305176</ele>
        <time>2018-12-24T09:44:24.000Z</time>
      </trkpt>
      <trkpt lat="45.47193" lon="4.76151">
        <ele>221</ele>
        <time>2018-12-24T09:44:27.000Z</time>
      </trkpt>
      <trkpt lat="45.47194" lon="4.76151">
        <ele>221.60000610352</ele>
        <time>2018-12-24T09:44:28.000Z</time>
      </trkpt>
      <trkpt lat="45.47198" lon="4.76152">
        <ele>222.19999694824</ele>
        <time>2018-12-24T09:44:30.000Z</time>
      </trkpt>
      <trkpt lat="45.47198" lon="4.76152">
        <ele>222.60000610352</ele>
        <time>2018-12-24T09:44:32.000Z</time>
      </trkpt>
      <trkpt lat="45.47199" lon="4.76153">
        <ele>222.80000305176</ele>
        <time>2018-12-24T09:44:34.000Z</time>
      </trkpt>
      <trkpt lat="45.472" lon="4.76153">
        <ele>223.60000610352</ele>
        <time>2018-12-24T09:44:36.000Z</time>
      </trkpt>
      <trkpt lat="45.47203" lon="4.76154">
        <ele>224.39999389648</ele>
        <time>2018-12-24T09:44:38.000Z</time>
      </trkpt>
      <trkpt lat="45.47205" lon="4.76153">
        <ele>224.60000610352</ele>
        <time>2018-12-24T09:44:39.000Z</time>
      </trkpt>
      <trkpt lat="45.47208" lon="4.76154">
        <ele>225</ele>
        <time>2018-12-24T09:44:41.000Z</time>
      </trkpt>
      <trkpt lat="45.47211" lon="4.76153">
        <ele>226</ele>
        <time>2018-12-24T09:44:43.000Z</time>
      </trkpt>
      <trkpt lat="45.47219" lon="4.76152">
        <ele>227</ele>
        <time>2018-12-24T09:44:47.000Z</time>
      </trkpt>
      <trkpt lat="45.47226" lon="4.76146">
        <ele>228</ele>
        <time>2018-12-24T09:44:52.000Z</time>
      </trkpt>
      <trkpt lat="45.47227" lon="4.76145">
        <ele>228.19999694824</ele>
        <time>2018-12-24T09:44:53.000Z</time>
      </trkpt>
      <trkpt lat="45.47227" lon="4.76144">
        <ele>228.39999389648</ele>
        <time>2018-12-24T09:44:54.000Z</time>
      </trkpt>
      <trkpt lat="45.47227" lon="4.76142">
        <ele>228.80000305176</ele>
        <time>2018-12-24T09:44:55.000Z</time>
      </trkpt>
      <trkpt lat="45.47225" lon="4.76139">
        <ele>229.19999694824</ele>
        <time>2018-12-24T09:44:57.000Z</time>
      </trkpt>
      <trkpt lat="45.47224" lon="4.76135">
        <ele>229.60000610352</ele>
        <time>2018-12-24T09:44:59.000Z</time>
      </trkpt>
      <trkpt lat="45.47223" lon="4.7613">
        <ele>230.19999694824</ele>
        <time>2018-12-24T09:45:02.000Z</time>
      </trkpt>
      <trkpt lat="45.47223" lon="4.76125">
        <ele>231.19999694824</ele>
        <time>2018-12-24T09:45:05.000Z</time>
      </trkpt>
      <trkpt lat="45.47223" lon="4.76121">
        <ele>231.80000305176</ele>
        <time>2018-12-24T09:45:07.000Z</time>
      </trkpt>
      <trkpt lat="45.47223" lon="4.7612">
        <ele>232</ele>
        <time>2018-12-24T09:45:08.000Z</time>
      </trkpt>
      <trkpt lat="45.47222" lon="4.76118">
        <ele>232.60000610352</ele>
        <time>2018-12-24T09:45:09.000Z</time>
      </trkpt>
      <trkpt lat="45.47222" lon="4.76111">
        <ele>233.80000305176</ele>
        <time>2018-12-24T09:45:12.000Z</time>
      </trkpt>
      <trkpt lat="45.47221" lon="4.7611">
        <ele>233.80000305176</ele>
        <time>2018-12-24T09:45:13.000Z</time>
      </trkpt>
      <trkpt lat="45.47218" lon="4.76102">
        <ele>235</ele>
        <time>2018-12-24T09:45:18.000Z</time>
      </trkpt>
      <trkpt lat="45.47217" lon="4.761">
        <ele>235.80000305176</ele>
        <time>2018-12-24T09:45:20.000Z</time>
      </trkpt>
      <trkpt lat="45.47216" lon="4.76098">
        <ele>236</ele>
        <time>2018-12-24T09:45:22.000Z</time>
      </trkpt>
      <trkpt lat="45.47216" lon="4.76096">
        <ele>236.39999389648</ele>
        <time>2018-12-24T09:45:24.000Z</time>
      </trkpt>
      <trkpt lat="45.47216" lon="4.76095">
        <ele>237.19999694824</ele>
        <time>2018-12-24T09:45:25.000Z</time>
      </trkpt>
      <trkpt lat="45.47215" lon="4.76092">
        <ele>238.19999694824</ele>
        <time>2018-12-24T09:45:27.000Z</time>
      </trkpt>
      <trkpt lat="45.47213" lon="4.76087">
        <ele>239.39999389648</ele>
        <time>2018-12-24T09:45:31.000Z</time>
      </trkpt>
      <trkpt lat="45.47214" lon="4.76084">
        <ele>240.19999694824</ele>
        <time>2018-12-24T09:45:33.000Z</time>
      </trkpt>
      <trkpt lat="45.47215" lon="4.76083">
        <ele>240.60000610352</ele>
        <time>2018-12-24T09:45:34.000Z</time>
      </trkpt>
      <trkpt lat="45.47218" lon="4.7608">
        <ele>241.39999389648</ele>
        <time>2018-12-24T09:45:37.000Z</time>
      </trkpt>
      <trkpt lat="45.47219" lon="4.76079">
        <ele>241.80000305176</ele>
        <time>2018-12-24T09:45:38.000Z</time>
      </trkpt>
      <trkpt lat="45.4722" lon="4.76075">
        <ele>243</ele>
        <time>2018-12-24T09:45:41.000Z</time>
      </trkpt>
      <trkpt lat="45.47222" lon="4.76073">
        <ele>243.80000305176</ele>
        <time>2018-12-24T09:45:43.000Z</time>
      </trkpt>
      <trkpt lat="45.47223" lon="4.76072">
        <ele>244</ele>
        <time>2018-12-24T09:45:44.000Z</time>
      </trkpt>
      <trkpt lat="45.47225" lon="4.76071">
        <ele>244.19999694824</ele>
        <time>2018-12-24T09:45:45.000Z</time>
      </trkpt>
      <trkpt lat="45.47228" lon="4.76071">
        <ele>244.60000610352</ele>
        <time>2018-12-24T09:45:48.000Z</time>
      </trkpt>
      <trkpt lat="45.4723" lon="4.76068">
        <ele>245</ele>
        <time>2018-12-24T09:45:50.000Z</time>
      </trkpt>
      <trkpt lat="45.4723" lon="4.76067">
        <ele>245.39999389648</ele>
        <time>2018-12-24T09:45:51.000Z</time>
      </trkpt>
      <trkpt lat="45.47233" lon="4.76064">
        <ele>246.19999694824</ele>
        <time>2018-12-24T09:45:54.000Z</time>
      </trkpt>
      <trkpt lat="45.47234" lon="4.76064">
        <ele>246.39999389648</ele>
        <time>2018-12-24T09:45:55.000Z</time>
      </trkpt>
      <trkpt lat="45.47241" lon="4.76061">
        <ele>247.60000610352</ele>
        <time>2018-12-24T09:46:00.000Z</time>
      </trkpt>
      <trkpt lat="45.47244" lon="4.76061">
        <ele>248</ele>
        <time>2018-12-24T09:46:02.000Z</time>
      </trkpt>
      <trkpt lat="45.47245" lon="4.76061">
        <ele>248</ele>
        <time>2018-12-24T09:46:03.000Z</time>
      </trkpt>
      <trkpt lat="45.47247" lon="4.7606">
        <ele>248.19999694824</ele>
        <time>2018-12-24T09:46:04.000Z</time>
      </trkpt>
      <trkpt lat="45.47248" lon="4.7606">
        <ele>248.39999389648</ele>
        <time>2018-12-24T09:46:05.000Z</time>
      </trkpt>
      <trkpt lat="45.47249" lon="4.76059">
        <ele>248.39999389648</ele>
        <time>2018-12-24T09:46:06.000Z</time>
      </trkpt>
      <trkpt lat="45.4725" lon="4.76058">
        <ele>248.39999389648</ele>
        <time>2018-12-24T09:46:07.000Z</time>
      </trkpt>
      <trkpt lat="45.47252" lon="4.76058">
        <ele>248.60000610352</ele>
        <time>2018-12-24T09:46:08.000Z</time>
      </trkpt>
      <trkpt lat="45.47259" lon="4.76053">
        <ele>249.80000305176</ele>
        <time>2018-12-24T09:46:13.000Z</time>
      </trkpt>
      <trkpt lat="45.47264" lon="4.76048">
        <ele>250.19999694824</ele>
        <time>2018-12-24T09:46:16.000Z</time>
      </trkpt>
      <trkpt lat="45.47272" lon="4.76036">
        <ele>251</ele>
        <time>2018-12-24T09:46:22.000Z</time>
      </trkpt>
      <trkpt lat="45.47273" lon="4.76034">
        <ele>251.19999694824</ele>
        <time>2018-12-24T09:46:23.000Z</time>
      </trkpt>
      <trkpt lat="45.47278" lon="4.76027">
        <ele>252</ele>
        <time>2018-12-24T09:46:27.000Z</time>
      </trkpt>
      <trkpt lat="45.47284" lon="4.76015">
        <ele>252.60000610352</ele>
        <time>2018-12-24T09:46:32.000Z</time>
      </trkpt>
      <trkpt lat="45.47289" lon="4.76005">
        <ele>253</ele>
        <time>2018-12-24T09:46:37.000Z</time>
      </trkpt>
      <trkpt lat="45.4729" lon="4.76003">
        <ele>253.39999389648</ele>
        <time>2018-12-24T09:46:38.000Z</time>
      </trkpt>
      <trkpt lat="45.47292" lon="4.75999">
        <ele>254.19999694824</ele>
        <time>2018-12-24T09:46:40.000Z</time>
      </trkpt>
      <trkpt lat="45.47299" lon="4.75988">
        <ele>254.80000305176</ele>
        <time>2018-12-24T09:46:46.000Z</time>
      </trkpt>
      <trkpt lat="45.47304" lon="4.7598">
        <ele>255.39999389648</ele>
        <time>2018-12-24T09:46:50.000Z</time>
      </trkpt>
      <trkpt lat="45.47309" lon="4.75971">
        <ele>256.39999389648</ele>
        <time>2018-12-24T09:46:54.000Z</time>
      </trkpt>
      <trkpt lat="45.4731" lon="4.75969">
        <ele>256.39999389648</ele>
        <time>2018-12-24T09:46:55.000Z</time>
      </trkpt>
      <trkpt lat="45.47317" lon="4.75956">
        <ele>257.39999389648</ele>
        <time>2018-12-24T09:47:01.000Z</time>
      </trkpt>
      <trkpt lat="45.47318" lon="4.75955">
        <ele>257.39999389648</ele>
        <time>2018-12-24T09:47:02.000Z</time>
      </trkpt>
      <trkpt lat="45.47328" lon="4.75943">
        <ele>258.60000610352</ele>
        <time>2018-12-24T09:47:09.000Z</time>
      </trkpt>
      <trkpt lat="45.47333" lon="4.75937">
        <ele>259.60000610352</ele>
        <time>2018-12-24T09:47:13.000Z</time>
      </trkpt>
      <trkpt lat="45.47338" lon="4.75931">
        <ele>260.20001220703</ele>
        <time>2018-12-24T09:47:17.000Z</time>
      </trkpt>
      <trkpt lat="45.47342" lon="4.75926">
        <ele>260.79998779297</ele>
        <time>2018-12-24T09:47:20.000Z</time>
      </trkpt>
      <trkpt lat="45.47349" lon="4.75916">
        <ele>261.20001220703</ele>
        <time>2018-12-24T09:47:25.000Z</time>
      </trkpt>
      <trkpt lat="45.47362" lon="4.75899">
        <ele>261.79998779297</ele>
        <time>2018-12-24T09:47:34.000Z</time>
      </trkpt>
      <trkpt lat="45.4737" lon="4.75889">
        <ele>261.79998779297</ele>
        <time>2018-12-24T09:47:38.000Z</time>
      </trkpt>
      <trkpt lat="45.47378" lon="4.75882">
        <ele>262.39999389648</ele>
        <time>2018-12-24T09:47:43.000Z</time>
      </trkpt>
      <trkpt lat="45.47391" lon="4.75875">
        <ele>263.20001220703</ele>
        <time>2018-12-24T09:47:50.000Z</time>
      </trkpt>
      <trkpt lat="45.47404" lon="4.75866">
        <ele>264</ele>
        <time>2018-12-24T09:47:56.000Z</time>
      </trkpt>
      <trkpt lat="45.47412" lon="4.7586">
        <ele>264.39999389648</ele>
        <time>2018-12-24T09:48:00.000Z</time>
      </trkpt>
      <trkpt lat="45.47421" lon="4.75852">
        <ele>264.60000610352</ele>
        <time>2018-12-24T09:48:05.000Z</time>
      </trkpt>
      <trkpt lat="45.47437" lon="4.75839">
        <ele>265</ele>
        <time>2018-12-24T09:48:13.000Z</time>
      </trkpt>
      <trkpt lat="45.47444" lon="4.7583">
        <ele>265</ele>
        <time>2018-12-24T09:48:17.000Z</time>
      </trkpt>
      <trkpt lat="45.47447" lon="4.75825">
        <ele>265</ele>
        <time>2018-12-24T09:48:19.000Z</time>
      </trkpt>
      <trkpt lat="45.47457" lon="4.75812">
        <ele>265.39999389648</ele>
        <time>2018-12-24T09:48:25.000Z</time>
      </trkpt>
      <trkpt lat="45.47466" lon="4.75799">
        <ele>266.39999389648</ele>
        <time>2018-12-24T09:48:31.000Z</time>
      </trkpt>
      <trkpt lat="45.47468" lon="4.75797">
        <ele>266.39999389648</ele>
        <time>2018-12-24T09:48:32.000Z</time>
      </trkpt>
      <trkpt lat="45.47478" lon="4.75784">
        <ele>266.20001220703</ele>
        <time>2018-12-24T09:48:38.000Z</time>
      </trkpt>
      <trkpt lat="45.47491" lon="4.75767">
        <ele>267.39999389648</ele>
        <time>2018-12-24T09:48:46.000Z</time>
      </trkpt>
      <trkpt lat="45.47494" lon="4.75762">
        <ele>267.60000610352</ele>
        <time>2018-12-24T09:48:48.000Z</time>
      </trkpt>
      <trkpt lat="45.47504" lon="4.75744">
        <ele>267</ele>
        <time>2018-12-24T09:48:55.000Z</time>
      </trkpt>
      <trkpt lat="45.47518" lon="4.75725">
        <ele>267.39999389648</ele>
        <time>2018-12-24T09:49:02.000Z</time>
      </trkpt>
      <trkpt lat="45.47532" lon="4.75711">
        <ele>267.39999389648</ele>
        <time>2018-12-24T09:49:09.000Z</time>
      </trkpt>
      <trkpt lat="45.47545" lon="4.75696">
        <ele>267.39999389648</ele>
        <time>2018-12-24T09:49:16.000Z</time>
      </trkpt>
      <trkpt lat="45.47557" lon="4.75686">
        <ele>266.60000610352</ele>
        <time>2018-12-24T09:49:22.000Z</time>
      </trkpt>
      <trkpt lat="45.47568" lon="4.75675">
        <ele>266.60000610352</ele>
        <time>2018-12-24T09:49:28.000Z</time>
      </trkpt>
      <trkpt lat="45.4758" lon="4.75664">
        <ele>267.60000610352</ele>
        <time>2018-12-24T09:49:34.000Z</time>
      </trkpt>
      <trkpt lat="45.47594" lon="4.75656">
        <ele>268.79998779297</ele>
        <time>2018-12-24T09:49:40.000Z</time>
      </trkpt>
      <trkpt lat="45.47603" lon="4.75645">
        <ele>269</ele>
        <time>2018-12-24T09:49:46.000Z</time>
      </trkpt>
      <trkpt lat="45.47604" lon="4.7564">
        <ele>268.79998779297</ele>
        <time>2018-12-24T09:49:48.000Z</time>
      </trkpt>
      <trkpt lat="45.47612" lon="4.75638">
        <ele>269</ele>
        <time>2018-12-24T09:49:51.000Z</time>
      </trkpt>
      <trkpt lat="45.47626" lon="4.75633">
        <ele>269.20001220703</ele>
        <time>2018-12-24T09:49:56.000Z</time>
      </trkpt>
      <trkpt lat="45.47634" lon="4.7563">
        <ele>269.60000610352</ele>
        <time>2018-12-24T09:50:01.000Z</time>
      </trkpt>
      <trkpt lat="45.47637" lon="4.75631">
        <ele>270</ele>
        <time>2018-12-24T09:50:03.000Z</time>
      </trkpt>
      <trkpt lat="45.47642" lon="4.75632">
        <ele>270</ele>
        <time>2018-12-24T09:50:05.000Z</time>
      </trkpt>
      <trkpt lat="45.47649" lon="4.75635">
        <ele>269.79998779297</ele>
        <time>2018-12-24T09:50:09.000Z</time>
      </trkpt>
      <trkpt lat="45.47654" lon="4.75642">
        <ele>268.79998779297</ele>
        <time>2018-12-24T09:50:14.000Z</time>
      </trkpt>
      <trkpt lat="45.47664" lon="4.75633">
        <ele>268</ele>
        <time>2018-12-24T09:50:20.000Z</time>
      </trkpt>
      <trkpt lat="45.47666" lon="4.75631">
        <ele>267.79998779297</ele>
        <time>2018-12-24T09:50:21.000Z</time>
      </trkpt>
      <trkpt lat="45.47681" lon="4.75628">
        <ele>267.20001220703</ele>
        <time>2018-12-24T09:50:25.000Z</time>
      </trkpt>
      <trkpt lat="45.47686" lon="4.75626">
        <ele>266.79998779297</ele>
        <time>2018-12-24T09:50:27.000Z</time>
      </trkpt>
      <trkpt lat="45.47689" lon="4.75624">
        <ele>266.60000610352</ele>
        <time>2018-12-24T09:50:28.000Z</time>
      </trkpt>
      <trkpt lat="45.47694" lon="4.7562">
        <ele>266.39999389648</ele>
        <time>2018-12-24T09:50:30.000Z</time>
      </trkpt>
      <trkpt lat="45.47698" lon="4.75615">
        <ele>266.39999389648</ele>
        <time>2018-12-24T09:50:32.000Z</time>
      </trkpt>
      <trkpt lat="45.47709" lon="4.75595">
        <ele>265.79998779297</ele>
        <time>2018-12-24T09:50:38.000Z</time>
      </trkpt>
      <trkpt lat="45.47711" lon="4.75588">
        <ele>265.60000610352</ele>
        <time>2018-12-24T09:50:40.000Z</time>
      </trkpt>
      <trkpt lat="45.47713" lon="4.75585">
        <ele>265.60000610352</ele>
        <time>2018-12-24T09:50:41.000Z</time>
      </trkpt>
      <trkpt lat="45.47717" lon="4.75569">
        <ele>266.20001220703</ele>
        <time>2018-12-24T09:50:46.000Z</time>
      </trkpt>
      <trkpt lat="45.47718" lon="4.75559">
        <ele>266.60000610352</ele>
        <time>2018-12-24T09:50:49.000Z</time>
      </trkpt>
      <trkpt lat="45.47718" lon="4.75552">
        <ele>267</ele>
        <time>2018-12-24T09:50:51.000Z</time>
      </trkpt>
      <trkpt lat="45.47715" lon="4.75532">
        <ele>267.60000610352</ele>
        <time>2018-12-24T09:50:57.000Z</time>
      </trkpt>
      <trkpt lat="45.47715" lon="4.75528">
        <ele>268</ele>
        <time>2018-12-24T09:50:58.000Z</time>
      </trkpt>
      <trkpt lat="45.47712" lon="4.75514">
        <ele>268.79998779297</ele>
        <time>2018-12-24T09:51:02.000Z</time>
      </trkpt>
      <trkpt lat="45.4771" lon="4.75505">
        <ele>269.20001220703</ele>
        <time>2018-12-24T09:51:05.000Z</time>
      </trkpt>
      <trkpt lat="45.47706" lon="4.75487">
        <ele>269.79998779297</ele>
        <time>2018-12-24T09:51:10.000Z</time>
      </trkpt>
      <trkpt lat="45.47704" lon="4.75482">
        <ele>270.20001220703</ele>
        <time>2018-12-24T09:51:12.000Z</time>
      </trkpt>
      <trkpt lat="45.47702" lon="4.75477">
        <ele>271</ele>
        <time>2018-12-24T09:51:14.000Z</time>
      </trkpt>
      <trkpt lat="45.47697" lon="4.75467">
        <ele>271.60000610352</ele>
        <time>2018-12-24T09:51:18.000Z</time>
      </trkpt>
      <trkpt lat="45.47691" lon="4.75458">
        <ele>272</ele>
        <time>2018-12-24T09:51:22.000Z</time>
      </trkpt>
      <trkpt lat="45.47689" lon="4.75449">
        <ele>272.60000610352</ele>
        <time>2018-12-24T09:51:25.000Z</time>
      </trkpt>
      <trkpt lat="45.47687" lon="4.7544">
        <ele>273.39999389648</ele>
        <time>2018-12-24T09:51:27.000Z</time>
      </trkpt>
      <trkpt lat="45.47682" lon="4.75421">
        <ele>274</ele>
        <time>2018-12-24T09:51:33.000Z</time>
      </trkpt>
      <trkpt lat="45.4768" lon="4.75407">
        <ele>274.60000610352</ele>
        <time>2018-12-24T09:51:37.000Z</time>
      </trkpt>
      <trkpt lat="45.4768" lon="4.75398">
        <ele>274.79998779297</ele>
        <time>2018-12-24T09:51:40.000Z</time>
      </trkpt>
      <trkpt lat="45.47683" lon="4.75373">
        <ele>274</ele>
        <time>2018-12-24T09:51:47.000Z</time>
      </trkpt>
      <trkpt lat="45.47687" lon="4.75364">
        <ele>273.60000610352</ele>
        <time>2018-12-24T09:51:50.000Z</time>
      </trkpt>
      <trkpt lat="45.4769" lon="4.75358">
        <ele>272.39999389648</ele>
        <time>2018-12-24T09:51:52.000Z</time>
      </trkpt>
      <trkpt lat="45.47696" lon="4.75351">
        <ele>271.20001220703</ele>
        <time>2018-12-24T09:51:55.000Z</time>
      </trkpt>
      <trkpt lat="45.47702" lon="4.75347">
        <ele>270</ele>
        <time>2018-12-24T09:51:58.000Z</time>
      </trkpt>
      <trkpt lat="45.47706" lon="4.75343">
        <ele>269.60000610352</ele>
        <time>2018-12-24T09:52:00.000Z</time>
      </trkpt>
      <trkpt lat="45.47715" lon="4.75334">
        <ele>268.79998779297</ele>
        <time>2018-12-24T09:52:04.000Z</time>
      </trkpt>
      <trkpt lat="45.47719" lon="4.7533">
        <ele>268.39999389648</ele>
        <time>2018-12-24T09:52:06.000Z</time>
      </trkpt>
      <trkpt lat="45.47726" lon="4.75324">
        <ele>267.39999389648</ele>
        <time>2018-12-24T09:52:09.000Z</time>
      </trkpt>
      <trkpt lat="45.47734" lon="4.75314">
        <ele>267.20001220703</ele>
        <time>2018-12-24T09:52:13.000Z</time>
      </trkpt>
      <trkpt lat="45.47746" lon="4.75301">
        <ele>266.20001220703</ele>
        <time>2018-12-24T09:52:19.000Z</time>
      </trkpt>
      <trkpt lat="45.47748" lon="4.75299">
        <ele>266</ele>
        <time>2018-12-24T09:52:20.000Z</time>
      </trkpt>
      <trkpt lat="45.47756" lon="4.75292">
        <ele>265.20001220703</ele>
        <time>2018-12-24T09:52:24.000Z</time>
      </trkpt>
      <trkpt lat="45.47762" lon="4.75288">
        <ele>264.39999389648</ele>
        <time>2018-12-24T09:52:27.000Z</time>
      </trkpt>
      <trkpt lat="45.47765" lon="4.75285">
        <ele>264.20001220703</ele>
        <time>2018-12-24T09:52:29.000Z</time>
      </trkpt>
      <trkpt lat="45.47776" lon="4.75278">
        <ele>264.39999389648</ele>
        <time>2018-12-24T09:52:34.000Z</time>
      </trkpt>
      <trkpt lat="45.47785" lon="4.75269">
        <ele>264.39999389648</ele>
        <time>2018-12-24T09:52:39.000Z</time>
      </trkpt>
      <trkpt lat="45.47798" lon="4.75258">
        <ele>264.79998779297</ele>
        <time>2018-12-24T09:52:46.000Z</time>
      </trkpt>
      <trkpt lat="45.47807" lon="4.75254">
        <ele>265.20001220703</ele>
        <time>2018-12-24T09:52:50.000Z</time>
      </trkpt>
      <trkpt lat="45.47813" lon="4.7525">
        <ele>265.79998779297</ele>
        <time>2018-12-24T09:52:53.000Z</time>
      </trkpt>
      <trkpt lat="45.4782" lon="4.75248">
        <ele>266.20001220703</ele>
        <time>2018-12-24T09:52:56.000Z</time>
      </trkpt>
      <trkpt lat="45.47827" lon="4.75244">
        <ele>266.79998779297</ele>
        <time>2018-12-24T09:53:00.000Z</time>
      </trkpt>
      <trkpt lat="45.47833" lon="4.75245">
        <ele>267.20001220703</ele>
        <time>2018-12-24T09:53:03.000Z</time>
      </trkpt>
      <trkpt lat="45.47843" lon="4.75247">
        <ele>267.39999389648</ele>
        <time>2018-12-24T09:53:08.000Z</time>
      </trkpt>
      <trkpt lat="45.47851" lon="4.75251">
        <ele>268.39999389648</ele>
        <time>2018-12-24T09:53:12.000Z</time>
      </trkpt>
      <trkpt lat="45.47855" lon="4.75253">
        <ele>268.60000610352</ele>
        <time>2018-12-24T09:53:14.000Z</time>
      </trkpt>
      <trkpt lat="45.47873" lon="4.75258">
        <ele>268.20001220703</ele>
        <time>2018-12-24T09:53:21.000Z</time>
      </trkpt>
      <trkpt lat="45.47886" lon="4.75251">
        <ele>267.20001220703</ele>
        <time>2018-12-24T09:53:27.000Z</time>
      </trkpt>
      <trkpt lat="45.47888" lon="4.7525">
        <ele>267</ele>
        <time>2018-12-24T09:53:28.000Z</time>
      </trkpt>
      <trkpt lat="45.47895" lon="4.75247">
        <ele>265.79998779297</ele>
        <time>2018-12-24T09:53:31.000Z</time>
      </trkpt>
      <trkpt lat="45.479" lon="4.75245">
        <ele>265.20001220703</ele>
        <time>2018-12-24T09:53:33.000Z</time>
      </trkpt>
      <trkpt lat="45.47905" lon="4.75243">
        <ele>264.60000610352</ele>
        <time>2018-12-24T09:53:35.000Z</time>
      </trkpt>
      <trkpt lat="45.4791" lon="4.75238">
        <ele>263.60000610352</ele>
        <time>2018-12-24T09:53:38.000Z</time>
      </trkpt>
      <trkpt lat="45.47912" lon="4.75236">
        <ele>263.20001220703</ele>
        <time>2018-12-24T09:53:39.000Z</time>
      </trkpt>
      <trkpt lat="45.47918" lon="4.75229">
        <ele>262.39999389648</ele>
        <time>2018-12-24T09:53:42.000Z</time>
      </trkpt>
      <trkpt lat="45.47924" lon="4.75218">
        <ele>261</ele>
        <time>2018-12-24T09:53:46.000Z</time>
      </trkpt>
      <trkpt lat="45.47927" lon="4.7521">
        <ele>260</ele>
        <time>2018-12-24T09:53:49.000Z</time>
      </trkpt>
      <trkpt lat="45.4793" lon="4.75205">
        <ele>258.79998779297</ele>
        <time>2018-12-24T09:53:51.000Z</time>
      </trkpt>
      <trkpt lat="45.47934" lon="4.752">
        <ele>257.79998779297</ele>
        <time>2018-12-24T09:53:53.000Z</time>
      </trkpt>
      <trkpt lat="45.47935" lon="4.75198">
        <ele>257.20001220703</ele>
        <time>2018-12-24T09:53:54.000Z</time>
      </trkpt>
      <trkpt lat="45.47939" lon="4.75195">
        <ele>255.60000610352</ele>
        <time>2018-12-24T09:53:56.000Z</time>
      </trkpt>
      <trkpt lat="45.47943" lon="4.75194">
        <ele>254.80000305176</ele>
        <time>2018-12-24T09:53:58.000Z</time>
      </trkpt>
      <trkpt lat="45.47946" lon="4.75192">
        <ele>254.60000610352</ele>
        <time>2018-12-24T09:53:59.000Z</time>
      </trkpt>
      <trkpt lat="45.47957" lon="4.75184">
        <ele>253.80000305176</ele>
        <time>2018-12-24T09:54:04.000Z</time>
      </trkpt>
      <trkpt lat="45.47961" lon="4.75177">
        <ele>253.39999389648</ele>
        <time>2018-12-24T09:54:06.000Z</time>
      </trkpt>
      <trkpt lat="45.47968" lon="4.75167">
        <ele>252.19999694824</ele>
        <time>2018-12-24T09:54:10.000Z</time>
      </trkpt>
      <trkpt lat="45.47971" lon="4.75163">
        <ele>251</ele>
        <time>2018-12-24T09:54:12.000Z</time>
      </trkpt>
      <trkpt lat="45.47976" lon="4.75155">
        <ele>250</ele>
        <time>2018-12-24T09:54:15.000Z</time>
      </trkpt>
      <trkpt lat="45.47978" lon="4.75153">
        <ele>249.39999389648</ele>
        <time>2018-12-24T09:54:16.000Z</time>
      </trkpt>
      <trkpt lat="45.47981" lon="4.7515">
        <ele>248.60000610352</ele>
        <time>2018-12-24T09:54:18.000Z</time>
      </trkpt>
      <trkpt lat="45.47988" lon="4.75143">
        <ele>247.39999389648</ele>
        <time>2018-12-24T09:54:22.000Z</time>
      </trkpt>
      <trkpt lat="45.47994" lon="4.75139">
        <ele>245.80000305176</ele>
        <time>2018-12-24T09:54:25.000Z</time>
      </trkpt>
      <trkpt lat="45.47998" lon="4.75136">
        <ele>244.60000610352</ele>
        <time>2018-12-24T09:54:27.000Z</time>
      </trkpt>
      <trkpt lat="45.48001" lon="4.75132">
        <ele>243.39999389648</ele>
        <time>2018-12-24T09:54:29.000Z</time>
      </trkpt>
      <trkpt lat="45.48005" lon="4.75128">
        <ele>241.80000305176</ele>
        <time>2018-12-24T09:54:31.000Z</time>
      </trkpt>
      <trkpt lat="45.48007" lon="4.75127">
        <ele>241</ele>
        <time>2018-12-24T09:54:32.000Z</time>
      </trkpt>
      <trkpt lat="45.4801" lon="4.75124">
        <ele>240.39999389648</ele>
        <time>2018-12-24T09:54:34.000Z</time>
      </trkpt>
      <trkpt lat="45.48017" lon="4.75116">
        <ele>239</ele>
        <time>2018-12-24T09:54:38.000Z</time>
      </trkpt>
      <trkpt lat="45.48024" lon="4.75111">
        <ele>238.19999694824</ele>
        <time>2018-12-24T09:54:41.000Z</time>
      </trkpt>
      <trkpt lat="45.48026" lon="4.7511">
        <ele>238</ele>
        <time>2018-12-24T09:54:42.000Z</time>
      </trkpt>
      <trkpt lat="45.48033" lon="4.75106">
        <ele>237.60000610352</ele>
        <time>2018-12-24T09:54:45.000Z</time>
      </trkpt>
      <trkpt lat="45.48037" lon="4.75103">
        <ele>237.39999389648</ele>
        <time>2018-12-24T09:54:47.000Z</time>
      </trkpt>
      <trkpt lat="45.4804" lon="4.75099">
        <ele>237.39999389648</ele>
        <time>2018-12-24T09:54:49.000Z</time>
      </trkpt>
      <trkpt lat="45.48044" lon="4.75092">
        <ele>237.19999694824</ele>
        <time>2018-12-24T09:54:52.000Z</time>
      </trkpt>
      <trkpt lat="45.48045" lon="4.75089">
        <ele>237.19999694824</ele>
        <time>2018-12-24T09:54:53.000Z</time>
      </trkpt>
      <trkpt lat="45.48046" lon="4.75087">
        <ele>236.80000305176</ele>
        <time>2018-12-24T09:54:55.000Z</time>
      </trkpt>
      <trkpt lat="45.48049" lon="4.75086">
        <ele>236.60000610352</ele>
        <time>2018-12-24T09:54:57.000Z</time>
      </trkpt>
      <trkpt lat="45.48059" lon="4.75079">
        <ele>235.80000305176</ele>
        <time>2018-12-24T09:55:02.000Z</time>
      </trkpt>
      <trkpt lat="45.48061" lon="4.75076">
        <ele>235.60000610352</ele>
        <time>2018-12-24T09:55:03.000Z</time>
      </trkpt>
      <trkpt lat="45.48067" lon="4.75069">
        <ele>234.60000610352</ele>
        <time>2018-12-24T09:55:06.000Z</time>
      </trkpt>
      <trkpt lat="45.48069" lon="4.75064">
        <ele>233.80000305176</ele>
        <time>2018-12-24T09:55:08.000Z</time>
      </trkpt>
      <trkpt lat="45.48071" lon="4.75061">
        <ele>233.19999694824</ele>
        <time>2018-12-24T09:55:09.000Z</time>
      </trkpt>
      <trkpt lat="45.48077" lon="4.75053">
        <ele>231.80000305176</ele>
        <time>2018-12-24T09:55:12.000Z</time>
      </trkpt>
      <trkpt lat="45.48079" lon="4.75051">
        <ele>231.39999389648</ele>
        <time>2018-12-24T09:55:13.000Z</time>
      </trkpt>
      <trkpt lat="45.48081" lon="4.75046">
        <ele>230.39999389648</ele>
        <time>2018-12-24T09:55:15.000Z</time>
      </trkpt>
      <trkpt lat="45.48084" lon="4.75039">
        <ele>229.60000610352</ele>
        <time>2018-12-24T09:55:17.000Z</time>
      </trkpt>
      <trkpt lat="45.48083" lon="4.75037">
        <ele>229.39999389648</ele>
        <time>2018-12-24T09:55:18.000Z</time>
      </trkpt>
      <trkpt lat="45.48084" lon="4.75033">
        <ele>229.19999694824</ele>
        <time>2018-12-24T09:55:19.000Z</time>
      </trkpt>
      <trkpt lat="45.48084" lon="4.75025">
        <ele>227.80000305176</ele>
        <time>2018-12-24T09:55:23.000Z</time>
      </trkpt>
      <trkpt lat="45.48084" lon="4.75023">
        <ele>226.80000305176</ele>
        <time>2018-12-24T09:55:24.000Z</time>
      </trkpt>
      <trkpt lat="45.48083" lon="4.7502">
        <ele>226.19999694824</ele>
        <time>2018-12-24T09:55:25.000Z</time>
      </trkpt>
      <trkpt lat="45.48082" lon="4.75014">
        <ele>225.39999389648</ele>
        <time>2018-12-24T09:55:27.000Z</time>
      </trkpt>
      <trkpt lat="45.48084" lon="4.75007">
        <ele>225.19999694824</ele>
        <time>2018-12-24T09:55:30.000Z</time>
      </trkpt>
      <trkpt lat="45.48088" lon="4.75006">
        <ele>225.39999389648</ele>
        <time>2018-12-24T09:55:32.000Z</time>
      </trkpt>
      <trkpt lat="45.48084" lon="4.74994">
        <ele>225.80000305176</ele>
        <time>2018-12-24T09:55:34.000Z</time>
      </trkpt>
      <trkpt lat="45.4808" lon="4.74988">
        <ele>226</ele>
        <time>2018-12-24T09:55:37.000Z</time>
      </trkpt>
      <trkpt lat="45.48079" lon="4.74985">
        <ele>226.19999694824</ele>
        <time>2018-12-24T09:55:39.000Z</time>
      </trkpt>
      <trkpt lat="45.48077" lon="4.74981">
        <ele>227</ele>
        <time>2018-12-24T09:55:42.000Z</time>
      </trkpt>
      <trkpt lat="45.48076" lon="4.74979">
        <ele>227.39999389648</ele>
        <time>2018-12-24T09:55:43.000Z</time>
      </trkpt>
      <trkpt lat="45.48075" lon="4.74976">
        <ele>227.80000305176</ele>
        <time>2018-12-24T09:55:44.000Z</time>
      </trkpt>
      <trkpt lat="45.48072" lon="4.7497">
        <ele>228.39999389648</ele>
        <time>2018-12-24T09:55:46.000Z</time>
      </trkpt>
      <trkpt lat="45.4807" lon="4.74966">
        <ele>229.39999389648</ele>
        <time>2018-12-24T09:55:48.000Z</time>
      </trkpt>
      <trkpt lat="45.48068" lon="4.7496">
        <ele>230.60000610352</ele>
        <time>2018-12-24T09:55:51.000Z</time>
      </trkpt>
      <trkpt lat="45.48064" lon="4.74952">
        <ele>231.80000305176</ele>
        <time>2018-12-24T09:55:54.000Z</time>
      </trkpt>
      <trkpt lat="45.48063" lon="4.74949">
        <ele>232</ele>
        <time>2018-12-24T09:55:55.000Z</time>
      </trkpt>
      <trkpt lat="45.48062" lon="4.7494">
        <ele>232.80000305176</ele>
        <time>2018-12-24T09:55:59.000Z</time>
      </trkpt>
      <trkpt lat="45.48062" lon="4.74938">
        <ele>233.19999694824</ele>
        <time>2018-12-24T09:56:00.000Z</time>
      </trkpt>
      <trkpt lat="45.4806" lon="4.74934">
        <ele>234</ele>
        <time>2018-12-24T09:56:02.000Z</time>
      </trkpt>
      <trkpt lat="45.48059" lon="4.74922">
        <ele>235.19999694824</ele>
        <time>2018-12-24T09:56:09.000Z</time>
      </trkpt>
      <trkpt lat="45.48059" lon="4.7492">
        <ele>235.60000610352</ele>
        <time>2018-12-24T09:56:10.000Z</time>
      </trkpt>
      <trkpt lat="45.4806" lon="4.74916">
        <ele>236.19999694824</ele>
        <time>2018-12-24T09:56:12.000Z</time>
      </trkpt>
      <trkpt lat="45.4806" lon="4.74913">
        <ele>236.39999389648</ele>
        <time>2018-12-24T09:56:13.000Z</time>
      </trkpt>
      <trkpt lat="45.4806" lon="4.74906">
        <ele>237</ele>
        <time>2018-12-24T09:56:16.000Z</time>
      </trkpt>
      <trkpt lat="45.4806" lon="4.74904">
        <ele>237.19999694824</ele>
        <time>2018-12-24T09:56:17.000Z</time>
      </trkpt>
      <trkpt lat="45.4806" lon="4.74901">
        <ele>238.19999694824</ele>
        <time>2018-12-24T09:56:19.000Z</time>
      </trkpt>
      <trkpt lat="45.4806" lon="4.74897">
        <ele>239.80000305176</ele>
        <time>2018-12-24T09:56:22.000Z</time>
      </trkpt>
      <trkpt lat="45.4806" lon="4.74887">
        <ele>240.80000305176</ele>
        <time>2018-12-24T09:56:26.000Z</time>
      </trkpt>
      <trkpt lat="45.4806" lon="4.7488">
        <ele>241.19999694824</ele>
        <time>2018-12-24T09:56:29.000Z</time>
      </trkpt>
      <trkpt lat="45.4806" lon="4.74878">
        <ele>241.39999389648</ele>
        <time>2018-12-24T09:56:30.000Z</time>
      </trkpt>
      <trkpt lat="45.4806" lon="4.74873">
        <ele>242</ele>
        <time>2018-12-24T09:56:32.000Z</time>
      </trkpt>
      <trkpt lat="45.48062" lon="4.74866">
        <ele>242.39999389648</ele>
        <time>2018-12-24T09:56:35.000Z</time>
      </trkpt>
      <trkpt lat="45.48063" lon="4.74862">
        <ele>243.19999694824</ele>
        <time>2018-12-24T09:56:37.000Z</time>
      </trkpt>
      <trkpt lat="45.48066" lon="4.74856">
        <ele>244.39999389648</ele>
        <time>2018-12-24T09:56:41.000Z</time>
      </trkpt>
      <trkpt lat="45.48067" lon="4.74854">
        <ele>244.80000305176</ele>
        <time>2018-12-24T09:56:43.000Z</time>
      </trkpt>
      <trkpt lat="45.48067" lon="4.74852">
        <ele>245</ele>
        <time>2018-12-24T09:56:44.000Z</time>
      </trkpt>
      <trkpt lat="45.48068" lon="4.74848">
        <ele>245.39999389648</ele>
        <time>2018-12-24T09:56:46.000Z</time>
      </trkpt>
      <trkpt lat="45.48068" lon="4.74841">
        <ele>246.19999694824</ele>
        <time>2018-12-24T09:56:49.000Z</time>
      </trkpt>
      <trkpt lat="45.48069" lon="4.74839">
        <ele>246.39999389648</ele>
        <time>2018-12-24T09:56:50.000Z</time>
      </trkpt>
      <trkpt lat="45.48068" lon="4.74834">
        <ele>247.19999694824</ele>
        <time>2018-12-24T09:56:52.000Z</time>
      </trkpt>
      <trkpt lat="45.48068" lon="4.74831">
        <ele>247.60000610352</ele>
        <time>2018-12-24T09:56:54.000Z</time>
      </trkpt>
      <trkpt lat="45.4807" lon="4.74828">
        <ele>247.80000305176</ele>
        <time>2018-12-24T09:56:56.000Z</time>
      </trkpt>
      <trkpt lat="45.48071" lon="4.74822">
        <ele>248.80000305176</ele>
        <time>2018-12-24T09:56:59.000Z</time>
      </trkpt>
      <trkpt lat="45.48072" lon="4.74818">
        <ele>249.19999694824</ele>
        <time>2018-12-24T09:57:01.000Z</time>
      </trkpt>
      <trkpt lat="45.48072" lon="4.7481">
        <ele>249.80000305176</ele>
        <time>2018-12-24T09:57:04.000Z</time>
      </trkpt>
      <trkpt lat="45.48072" lon="4.748">
        <ele>251</ele>
        <time>2018-12-24T09:57:09.000Z</time>
      </trkpt>
      <trkpt lat="45.48072" lon="4.74798">
        <ele>251.60000610352</ele>
        <time>2018-12-24T09:57:10.000Z</time>
      </trkpt>
      <trkpt lat="45.48072" lon="4.7479">
        <ele>252.39999389648</ele>
        <time>2018-12-24T09:57:13.000Z</time>
      </trkpt>
      <trkpt lat="45.48073" lon="4.74788">
        <ele>252.60000610352</ele>
        <time>2018-12-24T09:57:14.000Z</time>
      </trkpt>
      <trkpt lat="45.48073" lon="4.74784">
        <ele>253</ele>
        <time>2018-12-24T09:57:16.000Z</time>
      </trkpt>
      <trkpt lat="45.48073" lon="4.74777">
        <ele>253.39999389648</ele>
        <time>2018-12-24T09:57:19.000Z</time>
      </trkpt>
      <trkpt lat="45.48076" lon="4.74768">
        <ele>253.80000305176</ele>
        <time>2018-12-24T09:57:23.000Z</time>
      </trkpt>
      <trkpt lat="45.48076" lon="4.74758">
        <ele>253.80000305176</ele>
        <time>2018-12-24T09:57:26.000Z</time>
      </trkpt>
      <trkpt lat="45.48072" lon="4.74751">
        <ele>253.60000610352</ele>
        <time>2018-12-24T09:57:29.000Z</time>
      </trkpt>
      <trkpt lat="45.48071" lon="4.7475">
        <ele>253.80000305176</ele>
        <time>2018-12-24T09:57:30.000Z</time>
      </trkpt>
      <trkpt lat="45.48068" lon="4.74748">
        <ele>253.80000305176</ele>
        <time>2018-12-24T09:57:33.000Z</time>
      </trkpt>
      <trkpt lat="45.48066" lon="4.74749">
        <ele>253.80000305176</ele>
        <time>2018-12-24T09:57:34.000Z</time>
      </trkpt>
      <trkpt lat="45.48062" lon="4.74752">
        <ele>254.60000610352</ele>
        <time>2018-12-24T09:57:37.000Z</time>
      </trkpt>
      <trkpt lat="45.48061" lon="4.74752">
        <ele>254.60000610352</ele>
        <time>2018-12-24T09:57:38.000Z</time>
      </trkpt>
      <trkpt lat="45.48059" lon="4.74756">
        <ele>255.80000305176</ele>
        <time>2018-12-24T09:57:42.000Z</time>
      </trkpt>
      <trkpt lat="45.48059" lon="4.74759">
        <ele>256.20001220703</ele>
        <time>2018-12-24T09:57:44.000Z</time>
      </trkpt>
      <trkpt lat="45.48059" lon="4.7476">
        <ele>256.39999389648</ele>
        <time>2018-12-24T09:57:45.000Z</time>
      </trkpt>
      <trkpt lat="45.48058" lon="4.74764">
        <ele>257</ele>
        <time>2018-12-24T09:57:47.000Z</time>
      </trkpt>
      <trkpt lat="45.48056" lon="4.74769">
        <ele>257.60000610352</ele>
        <time>2018-12-24T09:57:50.000Z</time>
      </trkpt>
      <trkpt lat="45.48056" lon="4.74774">
        <ele>258</ele>
        <time>2018-12-24T09:57:52.000Z</time>
      </trkpt>
      <trkpt lat="45.48055" lon="4.74781">
        <ele>259.20001220703</ele>
        <time>2018-12-24T09:57:55.000Z</time>
      </trkpt>
      <trkpt lat="45.48054" lon="4.74785">
        <ele>259.39999389648</ele>
        <time>2018-12-24T09:57:57.000Z</time>
      </trkpt>
      <trkpt lat="45.48053" lon="4.74789">
        <ele>259.60000610352</ele>
        <time>2018-12-24T09:57:59.000Z</time>
      </trkpt>
      <trkpt lat="45.48052" lon="4.74799">
        <ele>260.39999389648</ele>
        <time>2018-12-24T09:58:03.000Z</time>
      </trkpt>
      <trkpt lat="45.48048" lon="4.74811">
        <ele>261.20001220703</ele>
        <time>2018-12-24T09:58:08.000Z</time>
      </trkpt>
      <trkpt lat="45.48046" lon="4.74811">
        <ele>261.79998779297</ele>
        <time>2018-12-24T09:58:09.000Z</time>
      </trkpt>
      <trkpt lat="45.48045" lon="4.74809">
        <ele>262.60000610352</ele>
        <time>2018-12-24T09:58:11.000Z</time>
      </trkpt>
      <trkpt lat="45.48044" lon="4.74807">
        <ele>262.79998779297</ele>
        <time>2018-12-24T09:58:12.000Z</time>
      </trkpt>
      <trkpt lat="45.48043" lon="4.74806">
        <ele>263.20001220703</ele>
        <time>2018-12-24T09:58:13.000Z</time>
      </trkpt>
      <trkpt lat="45.48043" lon="4.74804">
        <ele>263.60000610352</ele>
        <time>2018-12-24T09:58:14.000Z</time>
      </trkpt>
      <trkpt lat="45.48042" lon="4.74797">
        <ele>264</ele>
        <time>2018-12-24T09:58:17.000Z</time>
      </trkpt>
      <trkpt lat="45.48041" lon="4.74788">
        <ele>264.60000610352</ele>
        <time>2018-12-24T09:58:20.000Z</time>
      </trkpt>
      <trkpt lat="45.4804" lon="4.74779">
        <ele>265.20001220703</ele>
        <time>2018-12-24T09:58:23.000Z</time>
      </trkpt>
      <trkpt lat="45.48039" lon="4.74777">
        <ele>265.20001220703</ele>
        <time>2018-12-24T09:58:24.000Z</time>
      </trkpt>
      <trkpt lat="45.48035" lon="4.74772">
        <ele>265.60000610352</ele>
        <time>2018-12-24T09:58:26.000Z</time>
      </trkpt>
      <trkpt lat="45.48027" lon="4.74771">
        <ele>266.20001220703</ele>
        <time>2018-12-24T09:58:29.000Z</time>
      </trkpt>
      <trkpt lat="45.48018" lon="4.7477">
        <ele>266.60000610352</ele>
        <time>2018-12-24T09:58:33.000Z</time>
      </trkpt>
      <trkpt lat="45.48011" lon="4.7477">
        <ele>267.20001220703</ele>
        <time>2018-12-24T09:58:36.000Z</time>
      </trkpt>
      <trkpt lat="45.47999" lon="4.74769">
        <ele>267.20001220703</ele>
        <time>2018-12-24T09:58:41.000Z</time>
      </trkpt>
      <trkpt lat="45.47981" lon="4.74767">
        <ele>266.60000610352</ele>
        <time>2018-12-24T09:58:48.000Z</time>
      </trkpt>
      <trkpt lat="45.47965" lon="4.74765">
        <ele>266</ele>
        <time>2018-12-24T09:58:55.000Z</time>
      </trkpt>
      <trkpt lat="45.4795" lon="4.74763">
        <ele>266.60000610352</ele>
        <time>2018-12-24T09:59:02.000Z</time>
      </trkpt>
      <trkpt lat="45.4794" lon="4.74763">
        <ele>266.79998779297</ele>
        <time>2018-12-24T09:59:08.000Z</time>
      </trkpt>
      <trkpt lat="45.47937" lon="4.74763">
        <ele>267.20001220703</ele>
        <time>2018-12-24T09:59:10.000Z</time>
      </trkpt>
      <trkpt lat="45.4793" lon="4.74763">
        <ele>268.39999389648</ele>
        <time>2018-12-24T09:59:14.000Z</time>
      </trkpt>
      <trkpt lat="45.47929" lon="4.74763">
        <ele>268.60000610352</ele>
        <time>2018-12-24T09:59:15.000Z</time>
      </trkpt>
      <trkpt lat="45.47926" lon="4.74763">
        <ele>269.39999389648</ele>
        <time>2018-12-24T09:59:17.000Z</time>
      </trkpt>
      <trkpt lat="45.47918" lon="4.74762">
        <ele>270.60000610352</ele>
        <time>2018-12-24T09:59:22.000Z</time>
      </trkpt>
      <trkpt lat="45.47917" lon="4.74761">
        <ele>271</ele>
        <time>2018-12-24T09:59:23.000Z</time>
      </trkpt>
      <trkpt lat="45.47915" lon="4.74761">
        <ele>271.20001220703</ele>
        <time>2018-12-24T09:59:24.000Z</time>
      </trkpt>
      <trkpt lat="45.4791" lon="4.7476">
        <ele>271.60000610352</ele>
        <time>2018-12-24T09:59:26.000Z</time>
      </trkpt>
      <trkpt lat="45.47906" lon="4.74758">
        <ele>272.20001220703</ele>
        <time>2018-12-24T09:59:28.000Z</time>
      </trkpt>
      <trkpt lat="45.47894" lon="4.74754">
        <ele>272.60000610352</ele>
        <time>2018-12-24T09:59:34.000Z</time>
      </trkpt>
      <trkpt lat="45.47885" lon="4.74751">
        <ele>273.60000610352</ele>
        <time>2018-12-24T09:59:38.000Z</time>
      </trkpt>
      <trkpt lat="45.47883" lon="4.74749">
        <ele>273.79998779297</ele>
        <time>2018-12-24T09:59:39.000Z</time>
      </trkpt>
      <trkpt lat="45.47872" lon="4.74741">
        <ele>275</ele>
        <time>2018-12-24T09:59:44.000Z</time>
      </trkpt>
      <trkpt lat="45.4787" lon="4.7474">
        <ele>275.20001220703</ele>
        <time>2018-12-24T09:59:45.000Z</time>
      </trkpt>
      <trkpt lat="45.47864" lon="4.74735">
        <ele>276</ele>
        <time>2018-12-24T09:59:48.000Z</time>
      </trkpt>
      <trkpt lat="45.47861" lon="4.74731">
        <ele>276.20001220703</ele>
        <time>2018-12-24T09:59:50.000Z</time>
      </trkpt>
      <trkpt lat="45.47859" lon="4.7473">
        <ele>276.39999389648</ele>
        <time>2018-12-24T09:59:51.000Z</time>
      </trkpt>
      <trkpt lat="45.47848" lon="4.74722">
        <ele>277</ele>
        <time>2018-12-24T09:59:56.000Z</time>
      </trkpt>
      <trkpt lat="45.47843" lon="4.74719">
        <ele>277</ele>
        <time>2018-12-24T09:59:58.000Z</time>
      </trkpt>
      <trkpt lat="45.47837" lon="4.74715">
        <ele>277.39999389648</ele>
        <time>2018-12-24T10:00:01.000Z</time>
      </trkpt>
      <trkpt lat="45.47833" lon="4.74712">
        <ele>278</ele>
        <time>2018-12-24T10:00:03.000Z</time>
      </trkpt>
      <trkpt lat="45.47831" lon="4.7471">
        <ele>278.20001220703</ele>
        <time>2018-12-24T10:00:04.000Z</time>
      </trkpt>
      <trkpt lat="45.47829" lon="4.74709">
        <ele>278.39999389648</ele>
        <time>2018-12-24T10:00:05.000Z</time>
      </trkpt>
      <trkpt lat="45.47827" lon="4.74707">
        <ele>278.60000610352</ele>
        <time>2018-12-24T10:00:06.000Z</time>
      </trkpt>
      <trkpt lat="45.47822" lon="4.74704">
        <ele>278.79998779297</ele>
        <time>2018-12-24T10:00:08.000Z</time>
      </trkpt>
      <trkpt lat="45.47814" lon="4.74697">
        <ele>279.20001220703</ele>
        <time>2018-12-24T10:00:12.000Z</time>
      </trkpt>
      <trkpt lat="45.47812" lon="4.74696">
        <ele>279.20001220703</ele>
        <time>2018-12-24T10:00:13.000Z</time>
      </trkpt>
      <trkpt lat="45.47798" lon="4.74687">
        <ele>280.20001220703</ele>
        <time>2018-12-24T10:00:20.000Z</time>
      </trkpt>
      <trkpt lat="45.47794" lon="4.74683">
        <ele>280.39999389648</ele>
        <time>2018-12-24T10:00:22.000Z</time>
      </trkpt>
      <trkpt lat="45.47778" lon="4.7467">
        <ele>280.60000610352</ele>
        <time>2018-12-24T10:00:30.000Z</time>
      </trkpt>
      <trkpt lat="45.47776" lon="4.74668">
        <ele>280.60000610352</ele>
        <time>2018-12-24T10:00:31.000Z</time>
      </trkpt>
      <trkpt lat="45.47769" lon="4.7466">
        <ele>281.39999389648</ele>
        <time>2018-12-24T10:00:35.000Z</time>
      </trkpt>
      <trkpt lat="45.47761" lon="4.74652">
        <ele>282</ele>
        <time>2018-12-24T10:00:39.000Z</time>
      </trkpt>
      <trkpt lat="45.47759" lon="4.74649">
        <ele>282.39999389648</ele>
        <time>2018-12-24T10:00:40.000Z</time>
      </trkpt>
      <trkpt lat="45.47745" lon="4.74632">
        <ele>281.79998779297</ele>
        <time>2018-12-24T10:00:47.000Z</time>
      </trkpt>
      <trkpt lat="45.47732" lon="4.74622">
        <ele>282.20001220703</ele>
        <time>2018-12-24T10:00:53.000Z</time>
      </trkpt>
      <trkpt lat="45.4772" lon="4.74612">
        <ele>283.39999389648</ele>
        <time>2018-12-24T10:01:00.000Z</time>
      </trkpt>
      <trkpt lat="45.47718" lon="4.7461">
        <ele>283.60000610352</ele>
        <time>2018-12-24T10:01:01.000Z</time>
      </trkpt>
      <trkpt lat="45.47704" lon="4.74596">
        <ele>283</ele>
        <time>2018-12-24T10:01:08.000Z</time>
      </trkpt>
      <trkpt lat="45.4769" lon="4.74582">
        <ele>283.79998779297</ele>
        <time>2018-12-24T10:01:16.000Z</time>
      </trkpt>
      <trkpt lat="45.47675" lon="4.74567">
        <ele>284.39999389648</ele>
        <time>2018-12-24T10:01:24.000Z</time>
      </trkpt>
      <trkpt lat="45.47673" lon="4.74565">
        <ele>284.79998779297</ele>
        <time>2018-12-24T10:01:25.000Z</time>
      </trkpt>
      <trkpt lat="45.47657" lon="4.74551">
        <ele>285.60000610352</ele>
        <time>2018-12-24T10:01:32.000Z</time>
      </trkpt>
      <trkpt lat="45.47642" lon="4.74537">
        <ele>284.39999389648</ele>
        <time>2018-12-24T10:01:39.000Z</time>
      </trkpt>
      <trkpt lat="45.47628" lon="4.74521">
        <ele>284.39999389648</ele>
        <time>2018-12-24T10:01:46.000Z</time>
      </trkpt>
      <trkpt lat="45.47616" lon="4.74508">
        <ele>283.39999389648</ele>
        <time>2018-12-24T10:01:52.000Z</time>
      </trkpt>
      <trkpt lat="45.47612" lon="4.74503">
        <ele>282.79998779297</ele>
        <time>2018-12-24T10:01:54.000Z</time>
      </trkpt>
      <trkpt lat="45.47605" lon="4.74496">
        <ele>282.39999389648</ele>
        <time>2018-12-24T10:01:57.000Z</time>
      </trkpt>
      <trkpt lat="45.47597" lon="4.74486">
        <ele>282</ele>
        <time>2018-12-24T10:02:01.000Z</time>
      </trkpt>
      <trkpt lat="45.47585" lon="4.74471">
        <ele>281</ele>
        <time>2018-12-24T10:02:07.000Z</time>
      </trkpt>
      <trkpt lat="45.47583" lon="4.74469">
        <ele>280.79998779297</ele>
        <time>2018-12-24T10:02:08.000Z</time>
      </trkpt>
      <trkpt lat="45.47576" lon="4.74462">
        <ele>280.20001220703</ele>
        <time>2018-12-24T10:02:11.000Z</time>
      </trkpt>
      <trkpt lat="45.47572" lon="4.74459">
        <ele>280</ele>
        <time>2018-12-24T10:02:13.000Z</time>
      </trkpt>
      <trkpt lat="45.47564" lon="4.74455">
        <ele>279.39999389648</ele>
        <time>2018-12-24T10:02:16.000Z</time>
      </trkpt>
      <trkpt lat="45.47551" lon="4.74457">
        <ele>279</ele>
        <time>2018-12-24T10:02:21.000Z</time>
      </trkpt>
      <trkpt lat="45.47548" lon="4.74457">
        <ele>279</ele>
        <time>2018-12-24T10:02:22.000Z</time>
      </trkpt>
      <trkpt lat="45.47535" lon="4.74453">
        <ele>278.79998779297</ele>
        <time>2018-12-24T10:02:27.000Z</time>
      </trkpt>
      <trkpt lat="45.47526" lon="4.74446">
        <ele>277.79998779297</ele>
        <time>2018-12-24T10:02:31.000Z</time>
      </trkpt>
      <trkpt lat="45.4752" lon="4.74442">
        <ele>276.79998779297</ele>
        <time>2018-12-24T10:02:34.000Z</time>
      </trkpt>
      <trkpt lat="45.47518" lon="4.7444">
        <ele>276.20001220703</ele>
        <time>2018-12-24T10:02:35.000Z</time>
      </trkpt>
      <trkpt lat="45.47513" lon="4.74436">
        <ele>275.60000610352</ele>
        <time>2018-12-24T10:02:37.000Z</time>
      </trkpt>
      <trkpt lat="45.47506" lon="4.74431">
        <ele>274.39999389648</ele>
        <time>2018-12-24T10:02:40.000Z</time>
      </trkpt>
      <trkpt lat="45.47503" lon="4.74428">
        <ele>274.20001220703</ele>
        <time>2018-12-24T10:02:41.000Z</time>
      </trkpt>
      <trkpt lat="45.47495" lon="4.7442">
        <ele>273.20001220703</ele>
        <time>2018-12-24T10:02:45.000Z</time>
      </trkpt>
      <trkpt lat="45.47486" lon="4.74411">
        <ele>271.79998779297</ele>
        <time>2018-12-24T10:02:49.000Z</time>
      </trkpt>
      <trkpt lat="45.47477" lon="4.74402">
        <ele>270.60000610352</ele>
        <time>2018-12-24T10:02:53.000Z</time>
      </trkpt>
      <trkpt lat="45.47474" lon="4.74396">
        <ele>270.20001220703</ele>
        <time>2018-12-24T10:02:55.000Z</time>
      </trkpt>
      <trkpt lat="45.4747" lon="4.7439">
        <ele>269.20001220703</ele>
        <time>2018-12-24T10:02:57.000Z</time>
      </trkpt>
      <trkpt lat="45.47464" lon="4.74381">
        <ele>268</ele>
        <time>2018-12-24T10:03:00.000Z</time>
      </trkpt>
      <trkpt lat="45.4746" lon="4.74375">
        <ele>267</ele>
        <time>2018-12-24T10:03:02.000Z</time>
      </trkpt>
      <trkpt lat="45.47457" lon="4.74372">
        <ele>266.60000610352</ele>
        <time>2018-12-24T10:03:03.000Z</time>
      </trkpt>
      <trkpt lat="45.47452" lon="4.74368">
        <ele>265.79998779297</ele>
        <time>2018-12-24T10:03:05.000Z</time>
      </trkpt>
      <trkpt lat="45.47446" lon="4.74366">
        <ele>264.79998779297</ele>
        <time>2018-12-24T10:03:07.000Z</time>
      </trkpt>
      <trkpt lat="45.47444" lon="4.74366">
        <ele>264.20001220703</ele>
        <time>2018-12-24T10:03:08.000Z</time>
      </trkpt>
      <trkpt lat="45.47439" lon="4.74366">
        <ele>263.39999389648</ele>
        <time>2018-12-24T10:03:10.000Z</time>
      </trkpt>
      <trkpt lat="45.47431" lon="4.74365">
        <ele>262.39999389648</ele>
        <time>2018-12-24T10:03:13.000Z</time>
      </trkpt>
      <trkpt lat="45.47429" lon="4.74364">
        <ele>261.79998779297</ele>
        <time>2018-12-24T10:03:14.000Z</time>
      </trkpt>
      <trkpt lat="45.47422" lon="4.74362">
        <ele>261</ele>
        <time>2018-12-24T10:03:16.000Z</time>
      </trkpt>
      <trkpt lat="45.47418" lon="4.74359">
        <ele>259.79998779297</ele>
        <time>2018-12-24T10:03:18.000Z</time>
      </trkpt>
      <trkpt lat="45.47416" lon="4.74356">
        <ele>259.39999389648</ele>
        <time>2018-12-24T10:03:19.000Z</time>
      </trkpt>
      <trkpt lat="45.47414" lon="4.74351">
        <ele>258.79998779297</ele>
        <time>2018-12-24T10:03:21.000Z</time>
      </trkpt>
      <trkpt lat="45.47407" lon="4.74335">
        <ele>258.39999389648</ele>
        <time>2018-12-24T10:03:26.000Z</time>
      </trkpt>
      <trkpt lat="45.47395" lon="4.74321">
        <ele>258.20001220703</ele>
        <time>2018-12-24T10:03:32.000Z</time>
      </trkpt>
      <trkpt lat="45.47391" lon="4.74317">
        <ele>257.79998779297</ele>
        <time>2018-12-24T10:03:34.000Z</time>
      </trkpt>
      <trkpt lat="45.47383" lon="4.74313">
        <ele>257</ele>
        <time>2018-12-24T10:03:37.000Z</time>
      </trkpt>
      <trkpt lat="45.47371" lon="4.74312">
        <ele>257</ele>
        <time>2018-12-24T10:03:42.000Z</time>
      </trkpt>
      <trkpt lat="45.47369" lon="4.74314">
        <ele>257.20001220703</ele>
        <time>2018-12-24T10:03:44.000Z</time>
      </trkpt>
      <trkpt lat="45.47365" lon="4.74316">
        <ele>257.39999389648</ele>
        <time>2018-12-24T10:03:46.000Z</time>
      </trkpt>
      <trkpt lat="45.47363" lon="4.74317">
        <ele>257.60000610352</ele>
        <time>2018-12-24T10:03:47.000Z</time>
      </trkpt>
      <trkpt lat="45.47353" lon="4.74321">
        <ele>259</ele>
        <time>2018-12-24T10:03:52.000Z</time>
      </trkpt>
      <trkpt lat="45.47351" lon="4.74321">
        <ele>259.20001220703</ele>
        <time>2018-12-24T10:03:53.000Z</time>
      </trkpt>
      <trkpt lat="45.47344" lon="4.74323">
        <ele>260.20001220703</ele>
        <time>2018-12-24T10:03:56.000Z</time>
      </trkpt>
      <trkpt lat="45.47342" lon="4.74325">
        <ele>260.60000610352</ele>
        <time>2018-12-24T10:03:57.000Z</time>
      </trkpt>
      <trkpt lat="45.47339" lon="4.7433">
        <ele>261.20001220703</ele>
        <time>2018-12-24T10:03:59.000Z</time>
      </trkpt>
      <trkpt lat="45.47337" lon="4.74342">
        <ele>262.39999389648</ele>
        <time>2018-12-24T10:04:02.000Z</time>
      </trkpt>
      <trkpt lat="45.47338" lon="4.74348">
        <ele>263.39999389648</ele>
        <time>2018-12-24T10:04:04.000Z</time>
      </trkpt>
      <trkpt lat="45.47342" lon="4.74365">
        <ele>264.39999389648</ele>
        <time>2018-12-24T10:04:10.000Z</time>
      </trkpt>
      <trkpt lat="45.47341" lon="4.74368">
        <ele>264.60000610352</ele>
        <time>2018-12-24T10:04:11.000Z</time>
      </trkpt>
      <trkpt lat="45.47338" lon="4.74373">
        <ele>265.39999389648</ele>
        <time>2018-12-24T10:04:14.000Z</time>
      </trkpt>
      <trkpt lat="45.47336" lon="4.74374">
        <ele>266</ele>
        <time>2018-12-24T10:04:15.000Z</time>
      </trkpt>
      <trkpt lat="45.4733" lon="4.74375">
        <ele>267</ele>
        <time>2018-12-24T10:04:18.000Z</time>
      </trkpt>
      <trkpt lat="45.47323" lon="4.74374">
        <ele>268</ele>
        <time>2018-12-24T10:04:21.000Z</time>
      </trkpt>
      <trkpt lat="45.47321" lon="4.74374">
        <ele>268</ele>
        <time>2018-12-24T10:04:22.000Z</time>
      </trkpt>
      <trkpt lat="45.47312" lon="4.74374">
        <ele>268.79998779297</ele>
        <time>2018-12-24T10:04:27.000Z</time>
      </trkpt>
      <trkpt lat="45.47309" lon="4.74376">
        <ele>269.39999389648</ele>
        <time>2018-12-24T10:04:29.000Z</time>
      </trkpt>
      <trkpt lat="45.47305" lon="4.74382">
        <ele>270</ele>
        <time>2018-12-24T10:04:33.000Z</time>
      </trkpt>
      <trkpt lat="45.47302" lon="4.74386">
        <ele>270.60000610352</ele>
        <time>2018-12-24T10:04:35.000Z</time>
      </trkpt>
      <trkpt lat="45.47294" lon="4.74398">
        <ele>272</ele>
        <time>2018-12-24T10:04:41.000Z</time>
      </trkpt>
      <trkpt lat="45.47291" lon="4.74402">
        <ele>273.20001220703</ele>
        <time>2018-12-24T10:04:43.000Z</time>
      </trkpt>
      <trkpt lat="45.47286" lon="4.74406">
        <ele>274.20001220703</ele>
        <time>2018-12-24T10:04:46.000Z</time>
      </trkpt>
      <trkpt lat="45.47283" lon="4.74409">
        <ele>274.79998779297</ele>
        <time>2018-12-24T10:04:48.000Z</time>
      </trkpt>
      <trkpt lat="45.47277" lon="4.74414">
        <ele>275.39999389648</ele>
        <time>2018-12-24T10:04:52.000Z</time>
      </trkpt>
      <trkpt lat="45.47271" lon="4.74418">
        <ele>276</ele>
        <time>2018-12-24T10:04:56.000Z</time>
      </trkpt>
      <trkpt lat="45.47262" lon="4.74426">
        <ele>276.60000610352</ele>
        <time>2018-12-24T10:05:01.000Z</time>
      </trkpt>
      <trkpt lat="45.47256" lon="4.74431">
        <ele>277.60000610352</ele>
        <time>2018-12-24T10:05:05.000Z</time>
      </trkpt>
      <trkpt lat="45.4725" lon="4.74436">
        <ele>278.60000610352</ele>
        <time>2018-12-24T10:05:09.000Z</time>
      </trkpt>
      <trkpt lat="45.47245" lon="4.74441">
        <ele>279.20001220703</ele>
        <time>2018-12-24T10:05:12.000Z</time>
      </trkpt>
      <trkpt lat="45.47241" lon="4.74444">
        <ele>279.79998779297</ele>
        <time>2018-12-24T10:05:14.000Z</time>
      </trkpt>
      <trkpt lat="45.47232" lon="4.74451">
        <ele>281</ele>
        <time>2018-12-24T10:05:19.000Z</time>
      </trkpt>
      <trkpt lat="45.4723" lon="4.74453">
        <ele>281.20001220703</ele>
        <time>2018-12-24T10:05:20.000Z</time>
      </trkpt>
      <trkpt lat="45.4722" lon="4.7446">
        <ele>282.20001220703</ele>
        <time>2018-12-24T10:05:25.000Z</time>
      </trkpt>
      <trkpt lat="45.47212" lon="4.74466">
        <ele>282.39999389648</ele>
        <time>2018-12-24T10:05:29.000Z</time>
      </trkpt>
      <trkpt lat="45.47196" lon="4.74477">
        <ele>282.20001220703</ele>
        <time>2018-12-24T10:05:36.000Z</time>
      </trkpt>
      <trkpt lat="45.47194" lon="4.74478">
        <ele>282.20001220703</ele>
        <time>2018-12-24T10:05:37.000Z</time>
      </trkpt>
      <trkpt lat="45.47177" lon="4.74493">
        <ele>281.60000610352</ele>
        <time>2018-12-24T10:05:45.000Z</time>
      </trkpt>
      <trkpt lat="45.4717" lon="4.74504">
        <ele>281.39999389648</ele>
        <time>2018-12-24T10:05:50.000Z</time>
      </trkpt>
      <trkpt lat="45.47167" lon="4.74509">
        <ele>281.20001220703</ele>
        <time>2018-12-24T10:05:52.000Z</time>
      </trkpt>
      <trkpt lat="45.47157" lon="4.74531">
        <ele>280.39999389648</ele>
        <time>2018-12-24T10:05:59.000Z</time>
      </trkpt>
      <trkpt lat="45.47153" lon="4.74544">
        <ele>281.20001220703</ele>
        <time>2018-12-24T10:06:03.000Z</time>
      </trkpt>
      <trkpt lat="45.47149" lon="4.74555">
        <ele>281.39999389648</ele>
        <time>2018-12-24T10:06:07.000Z</time>
      </trkpt>
      <trkpt lat="45.47141" lon="4.74577">
        <ele>281.20001220703</ele>
        <time>2018-12-24T10:06:14.000Z</time>
      </trkpt>
      <trkpt lat="45.47133" lon="4.746">
        <ele>280.79998779297</ele>
        <time>2018-12-24T10:06:21.000Z</time>
      </trkpt>
      <trkpt lat="45.47132" lon="4.74603">
        <ele>280.60000610352</ele>
        <time>2018-12-24T10:06:22.000Z</time>
      </trkpt>
      <trkpt lat="45.47123" lon="4.74626">
        <ele>281.60000610352</ele>
        <time>2018-12-24T10:06:29.000Z</time>
      </trkpt>
      <trkpt lat="45.47122" lon="4.74629">
        <ele>281.79998779297</ele>
        <time>2018-12-24T10:06:30.000Z</time>
      </trkpt>
      <trkpt lat="45.47112" lon="4.74652">
        <ele>281.79998779297</ele>
        <time>2018-12-24T10:06:37.000Z</time>
      </trkpt>
      <trkpt lat="45.47104" lon="4.74675">
        <ele>281</ele>
        <time>2018-12-24T10:06:44.000Z</time>
      </trkpt>
      <trkpt lat="45.47096" lon="4.74696">
        <ele>280.39999389648</ele>
        <time>2018-12-24T10:06:51.000Z</time>
      </trkpt>
      <trkpt lat="45.47091" lon="4.74704">
        <ele>280.60000610352</ele>
        <time>2018-12-24T10:06:55.000Z</time>
      </trkpt>
      <trkpt lat="45.47089" lon="4.74703">
        <ele>280.79998779297</ele>
        <time>2018-12-24T10:06:56.000Z</time>
      </trkpt>
      <trkpt lat="45.47087" lon="4.74687">
        <ele>281.60000610352</ele>
        <time>2018-12-24T10:07:01.000Z</time>
      </trkpt>
      <trkpt lat="45.47084" lon="4.74677">
        <ele>282.39999389648</ele>
        <time>2018-12-24T10:07:04.000Z</time>
      </trkpt>
      <trkpt lat="45.47084" lon="4.74669">
        <ele>282.39999389648</ele>
        <time>2018-12-24T10:07:07.000Z</time>
      </trkpt>
      <trkpt lat="45.47082" lon="4.74659">
        <ele>281.20001220703</ele>
        <time>2018-12-24T10:07:11.000Z</time>
      </trkpt>
      <trkpt lat="45.4708" lon="4.74648">
        <ele>280.60000610352</ele>
        <time>2018-12-24T10:07:14.000Z</time>
      </trkpt>
      <trkpt lat="45.47077" lon="4.74625">
        <ele>282.20001220703</ele>
        <time>2018-12-24T10:07:21.000Z</time>
      </trkpt>
      <trkpt lat="45.47077" lon="4.74622">
        <ele>282.20001220703</ele>
        <time>2018-12-24T10:07:22.000Z</time>
      </trkpt>
      <trkpt lat="45.47072" lon="4.74599">
        <ele>281.20001220703</ele>
        <time>2018-12-24T10:07:29.000Z</time>
      </trkpt>
      <trkpt lat="45.47072" lon="4.74596">
        <ele>281.39999389648</ele>
        <time>2018-12-24T10:07:30.000Z</time>
      </trkpt>
      <trkpt lat="45.4707" lon="4.74587">
        <ele>282.60000610352</ele>
        <time>2018-12-24T10:07:33.000Z</time>
      </trkpt>
      <trkpt lat="45.47068" lon="4.74577">
        <ele>283.60000610352</ele>
        <time>2018-12-24T10:07:36.000Z</time>
      </trkpt>
      <trkpt lat="45.47066" lon="4.74568">
        <ele>283.20001220703</ele>
        <time>2018-12-24T10:07:39.000Z</time>
      </trkpt>
      <trkpt lat="45.4706" lon="4.74543">
        <ele>282.79998779297</ele>
        <time>2018-12-24T10:07:47.000Z</time>
      </trkpt>
      <trkpt lat="45.47059" lon="4.74534">
        <ele>283.79998779297</ele>
        <time>2018-12-24T10:07:50.000Z</time>
      </trkpt>
      <trkpt lat="45.47057" lon="4.74525">
        <ele>284.20001220703</ele>
        <time>2018-12-24T10:07:53.000Z</time>
      </trkpt>
      <trkpt lat="45.47056" lon="4.74519">
        <ele>284</ele>
        <time>2018-12-24T10:07:55.000Z</time>
      </trkpt>
      <trkpt lat="45.47051" lon="4.74497">
        <ele>284.79998779297</ele>
        <time>2018-12-24T10:08:02.000Z</time>
      </trkpt>
      <trkpt lat="45.4705" lon="4.74485">
        <ele>285.79998779297</ele>
        <time>2018-12-24T10:08:06.000Z</time>
      </trkpt>
      <trkpt lat="45.47048" lon="4.74473">
        <ele>286.20001220703</ele>
        <time>2018-12-24T10:08:10.000Z</time>
      </trkpt>
      <trkpt lat="45.47048" lon="4.74459">
        <ele>287</ele>
        <time>2018-12-24T10:08:15.000Z</time>
      </trkpt>
      <trkpt lat="45.47048" lon="4.74455">
        <ele>287.60000610352</ele>
        <time>2018-12-24T10:08:16.000Z</time>
      </trkpt>
      <trkpt lat="45.47047" lon="4.7445">
        <ele>287.60000610352</ele>
        <time>2018-12-24T10:08:18.000Z</time>
      </trkpt>
      <trkpt lat="45.47047" lon="4.74443">
        <ele>287.20001220703</ele>
        <time>2018-12-24T10:08:20.000Z</time>
      </trkpt>
      <trkpt lat="45.47047" lon="4.7444">
        <ele>287.39999389648</ele>
        <time>2018-12-24T10:08:21.000Z</time>
      </trkpt>
      <trkpt lat="45.47046" lon="4.74426">
        <ele>287.20001220703</ele>
        <time>2018-12-24T10:08:25.000Z</time>
      </trkpt>
      <trkpt lat="45.47045" lon="4.74399">
        <ele>287.39999389648</ele>
        <time>2018-12-24T10:08:33.000Z</time>
      </trkpt>
      <trkpt lat="45.47044" lon="4.74382">
        <ele>287</ele>
        <time>2018-12-24T10:08:38.000Z</time>
      </trkpt>
      <trkpt lat="45.47044" lon="4.74365">
        <ele>287</ele>
        <time>2018-12-24T10:08:43.000Z</time>
      </trkpt>
      <trkpt lat="45.47043" lon="4.74346">
        <ele>287.39999389648</ele>
        <time>2018-12-24T10:08:49.000Z</time>
      </trkpt>
      <trkpt lat="45.47043" lon="4.7434">
        <ele>288</ele>
        <time>2018-12-24T10:08:51.000Z</time>
      </trkpt>
      <trkpt lat="45.47042" lon="4.74316">
        <ele>289</ele>
        <time>2018-12-24T10:08:58.000Z</time>
      </trkpt>
      <trkpt lat="45.47042" lon="4.74292">
        <ele>288.60000610352</ele>
        <time>2018-12-24T10:09:05.000Z</time>
      </trkpt>
      <trkpt lat="45.47042" lon="4.74279">
        <ele>289.20001220703</ele>
        <time>2018-12-24T10:09:09.000Z</time>
      </trkpt>
      <trkpt lat="45.47041" lon="4.74272">
        <ele>289.60000610352</ele>
        <time>2018-12-24T10:09:11.000Z</time>
      </trkpt>
      <trkpt lat="45.47042" lon="4.74263">
        <ele>290.39999389648</ele>
        <time>2018-12-24T10:09:14.000Z</time>
      </trkpt>
      <trkpt lat="45.47042" lon="4.74254">
        <ele>290.39999389648</ele>
        <time>2018-12-24T10:09:17.000Z</time>
      </trkpt>
      <trkpt lat="45.4704" lon="4.74236">
        <ele>290.60000610352</ele>
        <time>2018-12-24T10:09:22.000Z</time>
      </trkpt>
      <trkpt lat="45.47039" lon="4.74212">
        <ele>289.20001220703</ele>
        <time>2018-12-24T10:09:28.000Z</time>
      </trkpt>
      <trkpt lat="45.47039" lon="4.74201">
        <ele>288.79998779297</ele>
        <time>2018-12-24T10:09:31.000Z</time>
      </trkpt>
      <trkpt lat="45.47038" lon="4.74174">
        <ele>289</ele>
        <time>2018-12-24T10:09:39.000Z</time>
      </trkpt>
      <trkpt lat="45.4704" lon="4.74155">
        <ele>288.20001220703</ele>
        <time>2018-12-24T10:09:45.000Z</time>
      </trkpt>
      <trkpt lat="45.47041" lon="4.74152">
        <ele>288.39999389648</ele>
        <time>2018-12-24T10:09:46.000Z</time>
      </trkpt>
      <trkpt lat="45.47041" lon="4.74136">
        <ele>288.39999389648</ele>
        <time>2018-12-24T10:09:51.000Z</time>
      </trkpt>
      <trkpt lat="45.47042" lon="4.74129">
        <ele>287.79998779297</ele>
        <time>2018-12-24T10:09:53.000Z</time>
      </trkpt>
      <trkpt lat="45.47044" lon="4.74115">
        <ele>286.79998779297</ele>
        <time>2018-12-24T10:09:57.000Z</time>
      </trkpt>
      <trkpt lat="45.47044" lon="4.74102">
        <ele>286.39999389648</ele>
        <time>2018-12-24T10:10:01.000Z</time>
      </trkpt>
      <trkpt lat="45.47045" lon="4.7409">
        <ele>285.79998779297</ele>
        <time>2018-12-24T10:10:05.000Z</time>
      </trkpt>
      <trkpt lat="45.47046" lon="4.74087">
        <ele>285.79998779297</ele>
        <time>2018-12-24T10:10:06.000Z</time>
      </trkpt>
      <trkpt lat="45.47045" lon="4.74076">
        <ele>287.39999389648</ele>
        <time>2018-12-24T10:10:09.000Z</time>
      </trkpt>
      <trkpt lat="45.47044" lon="4.74063">
        <ele>288.20001220703</ele>
        <time>2018-12-24T10:10:13.000Z</time>
      </trkpt>
      <trkpt lat="45.47042" lon="4.74036">
        <ele>288</ele>
        <time>2018-12-24T10:10:21.000Z</time>
      </trkpt>
      <trkpt lat="45.47039" lon="4.74014">
        <ele>286.79998779297</ele>
        <time>2018-12-24T10:10:27.000Z</time>
      </trkpt>
      <trkpt lat="45.47038" lon="4.7401">
        <ele>286.39999389648</ele>
        <time>2018-12-24T10:10:28.000Z</time>
      </trkpt>
      <trkpt lat="45.47037" lon="4.7399">
        <ele>285.60000610352</ele>
        <time>2018-12-24T10:10:34.000Z</time>
      </trkpt>
      <trkpt lat="45.47037" lon="4.73983">
        <ele>285.60000610352</ele>
        <time>2018-12-24T10:10:36.000Z</time>
      </trkpt>
      <trkpt lat="45.47037" lon="4.73973">
        <ele>286</ele>
        <time>2018-12-24T10:10:39.000Z</time>
      </trkpt>
      <trkpt lat="45.47037" lon="4.73962">
        <ele>285.60000610352</ele>
        <time>2018-12-24T10:10:42.000Z</time>
      </trkpt>
      <trkpt lat="45.47034" lon="4.73941">
        <ele>285.60000610352</ele>
        <time>2018-12-24T10:10:48.000Z</time>
      </trkpt>
      <trkpt lat="45.47028" lon="4.73916">
        <ele>286.79998779297</ele>
        <time>2018-12-24T10:10:55.000Z</time>
      </trkpt>
      <trkpt lat="45.47021" lon="4.73891">
        <ele>286.39999389648</ele>
        <time>2018-12-24T10:11:03.000Z</time>
      </trkpt>
      <trkpt lat="45.47019" lon="4.73884">
        <ele>286.39999389648</ele>
        <time>2018-12-24T10:11:05.000Z</time>
      </trkpt>
      <trkpt lat="45.47013" lon="4.73858">
        <ele>287.20001220703</ele>
        <time>2018-12-24T10:11:13.000Z</time>
      </trkpt>
      <trkpt lat="45.47009" lon="4.73831">
        <ele>287.20001220703</ele>
        <time>2018-12-24T10:11:21.000Z</time>
      </trkpt>
      <trkpt lat="45.47008" lon="4.73824">
        <ele>287.20001220703</ele>
        <time>2018-12-24T10:11:23.000Z</time>
      </trkpt>
      <trkpt lat="45.47007" lon="4.73818">
        <ele>287.39999389648</ele>
        <time>2018-12-24T10:11:25.000Z</time>
      </trkpt>
      <trkpt lat="45.47005" lon="4.73803">
        <ele>288</ele>
        <time>2018-12-24T10:11:30.000Z</time>
      </trkpt>
      <trkpt lat="45.47004" lon="4.73794">
        <ele>288.60000610352</ele>
        <time>2018-12-24T10:11:33.000Z</time>
      </trkpt>
      <trkpt lat="45.47" lon="4.73772">
        <ele>288.79998779297</ele>
        <time>2018-12-24T10:11:39.000Z</time>
      </trkpt>
      <trkpt lat="45.46996" lon="4.73752">
        <ele>289.60000610352</ele>
        <time>2018-12-24T10:11:45.000Z</time>
      </trkpt>
      <trkpt lat="45.46994" lon="4.73745">
        <ele>289.39999389648</ele>
        <time>2018-12-24T10:11:47.000Z</time>
      </trkpt>
      <trkpt lat="45.46993" lon="4.73739">
        <ele>289</ele>
        <time>2018-12-24T10:11:49.000Z</time>
      </trkpt>
      <trkpt lat="45.46992" lon="4.7373">
        <ele>288.39999389648</ele>
        <time>2018-12-24T10:11:52.000Z</time>
      </trkpt>
      <trkpt lat="45.46989" lon="4.73717">
        <ele>288.20001220703</ele>
        <time>2018-12-24T10:11:56.000Z</time>
      </trkpt>
      <trkpt lat="45.46983" lon="4.73691">
        <ele>289</ele>
        <time>2018-12-24T10:12:04.000Z</time>
      </trkpt>
      <trkpt lat="45.46982" lon="4.73685">
        <ele>289.39999389648</ele>
        <time>2018-12-24T10:12:06.000Z</time>
      </trkpt>
      <trkpt lat="45.46979" lon="4.73667">
        <ele>289.20001220703</ele>
        <time>2018-12-24T10:12:12.000Z</time>
      </trkpt>
      <trkpt lat="45.46974" lon="4.73639">
        <ele>289.60000610352</ele>
        <time>2018-12-24T10:12:21.000Z</time>
      </trkpt>
      <trkpt lat="45.46972" lon="4.73627">
        <ele>290.79998779297</ele>
        <time>2018-12-24T10:12:25.000Z</time>
      </trkpt>
      <trkpt lat="45.4697" lon="4.73613">
        <ele>291.60000610352</ele>
        <time>2018-12-24T10:12:30.000Z</time>
      </trkpt>
      <trkpt lat="45.4697" lon="4.7361">
        <ele>291.79998779297</ele>
        <time>2018-12-24T10:12:31.000Z</time>
      </trkpt>
      <trkpt lat="45.46968" lon="4.73592">
        <ele>292.60000610352</ele>
        <time>2018-12-24T10:12:37.000Z</time>
      </trkpt>
      <trkpt lat="45.46967" lon="4.73574">
        <ele>293.20001220703</ele>
        <time>2018-12-24T10:12:43.000Z</time>
      </trkpt>
      <trkpt lat="45.46965" lon="4.73565">
        <ele>294</ele>
        <time>2018-12-24T10:12:46.000Z</time>
      </trkpt>
      <trkpt lat="45.46965" lon="4.73562">
        <ele>294.20001220703</ele>
        <time>2018-12-24T10:12:47.000Z</time>
      </trkpt>
      <trkpt lat="45.46963" lon="4.7355">
        <ele>295.60000610352</ele>
        <time>2018-12-24T10:12:51.000Z</time>
      </trkpt>
      <trkpt lat="45.46963" lon="4.73538">
        <ele>295.20001220703</ele>
        <time>2018-12-24T10:12:55.000Z</time>
      </trkpt>
      <trkpt lat="45.46962" lon="4.73528">
        <ele>294.60000610352</ele>
        <time>2018-12-24T10:12:58.000Z</time>
      </trkpt>
      <trkpt lat="45.46961" lon="4.73516">
        <ele>294.20001220703</ele>
        <time>2018-12-24T10:13:02.000Z</time>
      </trkpt>
      <trkpt lat="45.46958" lon="4.73505">
        <ele>295.79998779297</ele>
        <time>2018-12-24T10:13:06.000Z</time>
      </trkpt>
      <trkpt lat="45.46957" lon="4.73497">
        <ele>295.79998779297</ele>
        <time>2018-12-24T10:13:09.000Z</time>
      </trkpt>
      <trkpt lat="45.46953" lon="4.73473">
        <ele>296</ele>
        <time>2018-12-24T10:13:17.000Z</time>
      </trkpt>
      <trkpt lat="45.46951" lon="4.73467">
        <ele>297</ele>
        <time>2018-12-24T10:13:19.000Z</time>
      </trkpt>
      <trkpt lat="45.46949" lon="4.73453">
        <ele>297.79998779297</ele>
        <time>2018-12-24T10:13:24.000Z</time>
      </trkpt>
      <trkpt lat="45.46944" lon="4.73434">
        <ele>298</ele>
        <time>2018-12-24T10:13:31.000Z</time>
      </trkpt>
      <trkpt lat="45.46943" lon="4.73431">
        <ele>298.20001220703</ele>
        <time>2018-12-24T10:13:32.000Z</time>
      </trkpt>
      <trkpt lat="45.46938" lon="4.73415">
        <ele>299.20001220703</ele>
        <time>2018-12-24T10:13:38.000Z</time>
      </trkpt>
      <trkpt lat="45.46935" lon="4.73398">
        <ele>300.20001220703</ele>
        <time>2018-12-24T10:13:44.000Z</time>
      </trkpt>
      <trkpt lat="45.46932" lon="4.73387">
        <ele>301.20001220703</ele>
        <time>2018-12-24T10:13:48.000Z</time>
      </trkpt>
      <trkpt lat="45.46931" lon="4.73382">
        <ele>301.79998779297</ele>
        <time>2018-12-24T10:13:50.000Z</time>
      </trkpt>
      <trkpt lat="45.46923" lon="4.73363">
        <ele>301.79998779297</ele>
        <time>2018-12-24T10:13:57.000Z</time>
      </trkpt>
      <trkpt lat="45.46913" lon="4.73347">
        <ele>302.39999389648</ele>
        <time>2018-12-24T10:14:03.000Z</time>
      </trkpt>
      <trkpt lat="45.46904" lon="4.73335">
        <ele>303.60000610352</ele>
        <time>2018-12-24T10:14:08.000Z</time>
      </trkpt>
      <trkpt lat="45.46903" lon="4.73334">
        <ele>304</ele>
        <time>2018-12-24T10:14:09.000Z</time>
      </trkpt>
      <trkpt lat="45.46896" lon="4.73322">
        <ele>304</ele>
        <time>2018-12-24T10:14:15.000Z</time>
      </trkpt>
      <trkpt lat="45.46891" lon="4.73303">
        <ele>304.20001220703</ele>
        <time>2018-12-24T10:14:22.000Z</time>
      </trkpt>
      <trkpt lat="45.46889" lon="4.73293">
        <ele>304.79998779297</ele>
        <time>2018-12-24T10:14:25.000Z</time>
      </trkpt>
      <trkpt lat="45.46887" lon="4.73283">
        <ele>305.79998779297</ele>
        <time>2018-12-24T10:14:28.000Z</time>
      </trkpt>
      <trkpt lat="45.46887" lon="4.7328">
        <ele>305.79998779297</ele>
        <time>2018-12-24T10:14:29.000Z</time>
      </trkpt>
      <trkpt lat="45.46882" lon="4.73258">
        <ele>306.20001220703</ele>
        <time>2018-12-24T10:14:36.000Z</time>
      </trkpt>
      <trkpt lat="45.46879" lon="4.73248">
        <ele>307</ele>
        <time>2018-12-24T10:14:39.000Z</time>
      </trkpt>
      <trkpt lat="45.46878" lon="4.73235">
        <ele>307</ele>
        <time>2018-12-24T10:14:43.000Z</time>
      </trkpt>
      <trkpt lat="45.46875" lon="4.73218">
        <ele>306</ele>
        <time>2018-12-24T10:14:48.000Z</time>
      </trkpt>
      <trkpt lat="45.46874" lon="4.73212">
        <ele>306</ele>
        <time>2018-12-24T10:14:50.000Z</time>
      </trkpt>
      <trkpt lat="45.46873" lon="4.73205">
        <ele>307.39999389648</ele>
        <time>2018-12-24T10:14:52.000Z</time>
      </trkpt>
      <trkpt lat="45.46869" lon="4.73185">
        <ele>307.20001220703</ele>
        <time>2018-12-24T10:14:58.000Z</time>
      </trkpt>
      <trkpt lat="45.46864" lon="4.73157">
        <ele>307.79998779297</ele>
        <time>2018-12-24T10:15:06.000Z</time>
      </trkpt>
      <trkpt lat="45.46863" lon="4.73154">
        <ele>307.60000610352</ele>
        <time>2018-12-24T10:15:07.000Z</time>
      </trkpt>
      <trkpt lat="45.4686" lon="4.73125">
        <ele>307</ele>
        <time>2018-12-24T10:15:15.000Z</time>
      </trkpt>
      <trkpt lat="45.46857" lon="4.73098">
        <ele>306.20001220703</ele>
        <time>2018-12-24T10:15:23.000Z</time>
      </trkpt>
      <trkpt lat="45.46855" lon="4.73075">
        <ele>306.60000610352</ele>
        <time>2018-12-24T10:15:30.000Z</time>
      </trkpt>
      <trkpt lat="45.46851" lon="4.73056">
        <ele>306.20001220703</ele>
        <time>2018-12-24T10:15:36.000Z</time>
      </trkpt>
      <trkpt lat="45.46846" lon="4.73039">
        <ele>306.39999389648</ele>
        <time>2018-12-24T10:15:41.000Z</time>
      </trkpt>
      <trkpt lat="45.46847" lon="4.73021">
        <ele>306.39999389648</ele>
        <time>2018-12-24T10:15:46.000Z</time>
      </trkpt>
      <trkpt lat="45.46845" lon="4.73001">
        <ele>305.20001220703</ele>
        <time>2018-12-24T10:15:51.000Z</time>
      </trkpt>
      <trkpt lat="45.46846" lon="4.72998">
        <ele>305</ele>
        <time>2018-12-24T10:15:52.000Z</time>
      </trkpt>
      <trkpt lat="45.46845" lon="4.72996">
        <ele>305.20001220703</ele>
        <time>2018-12-24T10:15:53.000Z</time>
      </trkpt>
      <trkpt lat="45.46842" lon="4.72986">
        <ele>305.20001220703</ele>
        <time>2018-12-24T10:15:56.000Z</time>
      </trkpt>
      <trkpt lat="45.46835" lon="4.72961">
        <ele>306</ele>
        <time>2018-12-24T10:16:02.000Z</time>
      </trkpt>
      <trkpt lat="45.46832" lon="4.72953">
        <ele>306.20001220703</ele>
        <time>2018-12-24T10:16:04.000Z</time>
      </trkpt>
      <trkpt lat="45.46828" lon="4.72933">
        <ele>306.39999389648</ele>
        <time>2018-12-24T10:16:09.000Z</time>
      </trkpt>
      <trkpt lat="45.46824" lon="4.72914">
        <ele>307.39999389648</ele>
        <time>2018-12-24T10:16:14.000Z</time>
      </trkpt>
      <trkpt lat="45.46823" lon="4.72911">
        <ele>307.39999389648</ele>
        <time>2018-12-24T10:16:15.000Z</time>
      </trkpt>
      <trkpt lat="45.46817" lon="4.72895">
        <ele>307.60000610352</ele>
        <time>2018-12-24T10:16:20.000Z</time>
      </trkpt>
      <trkpt lat="45.46808" lon="4.7287">
        <ele>307.39999389648</ele>
        <time>2018-12-24T10:16:27.000Z</time>
      </trkpt>
      <trkpt lat="45.46807" lon="4.72866">
        <ele>307.60000610352</ele>
        <time>2018-12-24T10:16:28.000Z</time>
      </trkpt>
      <trkpt lat="45.46802" lon="4.72851">
        <ele>306.79998779297</ele>
        <time>2018-12-24T10:16:33.000Z</time>
      </trkpt>
      <trkpt lat="45.468" lon="4.72847">
        <ele>306.60000610352</ele>
        <time>2018-12-24T10:16:34.000Z</time>
      </trkpt>
      <trkpt lat="45.468" lon="4.72844">
        <ele>306.20001220703</ele>
        <time>2018-12-24T10:16:35.000Z</time>
      </trkpt>
      <trkpt lat="45.46797" lon="4.72822">
        <ele>305</ele>
        <time>2018-12-24T10:16:41.000Z</time>
      </trkpt>
      <trkpt lat="45.46795" lon="4.72812">
        <ele>304.60000610352</ele>
        <time>2018-12-24T10:16:44.000Z</time>
      </trkpt>
      <trkpt lat="45.46795" lon="4.72795">
        <ele>304</ele>
        <time>2018-12-24T10:16:49.000Z</time>
      </trkpt>
      <trkpt lat="45.46795" lon="4.72791">
        <ele>303.79998779297</ele>
        <time>2018-12-24T10:16:50.000Z</time>
      </trkpt>
      <trkpt lat="45.46795" lon="4.72774">
        <ele>303.60000610352</ele>
        <time>2018-12-24T10:16:55.000Z</time>
      </trkpt>
      <trkpt lat="45.46797" lon="4.72757">
        <ele>304</ele>
        <time>2018-12-24T10:17:00.000Z</time>
      </trkpt>
      <trkpt lat="45.46797" lon="4.72753">
        <ele>303.60000610352</ele>
        <time>2018-12-24T10:17:01.000Z</time>
      </trkpt>
      <trkpt lat="45.46796" lon="4.72726">
        <ele>303.20001220703</ele>
        <time>2018-12-24T10:17:08.000Z</time>
      </trkpt>
      <trkpt lat="45.46792" lon="4.72706">
        <ele>302.79998779297</ele>
        <time>2018-12-24T10:17:14.000Z</time>
      </trkpt>
      <trkpt lat="45.46788" lon="4.72696">
        <ele>302</ele>
        <time>2018-12-24T10:17:17.000Z</time>
      </trkpt>
      <trkpt lat="45.46787" lon="4.72693">
        <ele>301.60000610352</ele>
        <time>2018-12-24T10:17:18.000Z</time>
      </trkpt>
      <trkpt lat="45.46782" lon="4.72684">
        <ele>300.60000610352</ele>
        <time>2018-12-24T10:17:22.000Z</time>
      </trkpt>
      <trkpt lat="45.4678" lon="4.72678">
        <ele>300.60000610352</ele>
        <time>2018-12-24T10:17:25.000Z</time>
      </trkpt>
      <trkpt lat="45.46778" lon="4.72674">
        <ele>300.39999389648</ele>
        <time>2018-12-24T10:17:27.000Z</time>
      </trkpt>
      <trkpt lat="45.46776" lon="4.72665">
        <ele>299.39999389648</ele>
        <time>2018-12-24T10:17:31.000Z</time>
      </trkpt>
      <trkpt lat="45.46776" lon="4.7266">
        <ele>298.79998779297</ele>
        <time>2018-12-24T10:17:33.000Z</time>
      </trkpt>
      <trkpt lat="45.46774" lon="4.72644">
        <ele>298.39999389648</ele>
        <time>2018-12-24T10:17:38.000Z</time>
      </trkpt>
      <trkpt lat="45.46771" lon="4.72635">
        <ele>297.60000610352</ele>
        <time>2018-12-24T10:17:41.000Z</time>
      </trkpt>
      <trkpt lat="45.46762" lon="4.72618">
        <ele>299.20001220703</ele>
        <time>2018-12-24T10:17:48.000Z</time>
      </trkpt>
      <trkpt lat="45.4676" lon="4.72613">
        <ele>299.60000610352</ele>
        <time>2018-12-24T10:17:49.000Z</time>
      </trkpt>
      <trkpt lat="45.46756" lon="4.72604">
        <ele>300.60000610352</ele>
        <time>2018-12-24T10:17:52.000Z</time>
      </trkpt>
      <trkpt lat="45.46753" lon="4.726">
        <ele>301.79998779297</ele>
        <time>2018-12-24T10:17:54.000Z</time>
      </trkpt>
      <trkpt lat="45.46749" lon="4.72589">
        <ele>303</ele>
        <time>2018-12-24T10:17:59.000Z</time>
      </trkpt>
      <trkpt lat="45.46746" lon="4.72582">
        <ele>303.60000610352</ele>
        <time>2018-12-24T10:18:02.000Z</time>
      </trkpt>
      <trkpt lat="45.46744" lon="4.72577">
        <ele>304</ele>
        <time>2018-12-24T10:18:04.000Z</time>
      </trkpt>
      <trkpt lat="45.46739" lon="4.72568">
        <ele>305.20001220703</ele>
        <time>2018-12-24T10:18:09.000Z</time>
      </trkpt>
      <trkpt lat="45.46738" lon="4.72565">
        <ele>305.60000610352</ele>
        <time>2018-12-24T10:18:10.000Z</time>
      </trkpt>
      <trkpt lat="45.46737" lon="4.72561">
        <ele>306.39999389648</ele>
        <time>2018-12-24T10:18:12.000Z</time>
      </trkpt>
      <trkpt lat="45.46733" lon="4.72556">
        <ele>307.60000610352</ele>
        <time>2018-12-24T10:18:15.000Z</time>
      </trkpt>
      <trkpt lat="45.46729" lon="4.72551">
        <ele>307.79998779297</ele>
        <time>2018-12-24T10:18:18.000Z</time>
      </trkpt>
      <trkpt lat="45.46724" lon="4.72541">
        <ele>308.60000610352</ele>
        <time>2018-12-24T10:18:23.000Z</time>
      </trkpt>
      <trkpt lat="45.4672" lon="4.72536">
        <ele>309.60000610352</ele>
        <time>2018-12-24T10:18:26.000Z</time>
      </trkpt>
      <trkpt lat="45.46713" lon="4.72525">
        <ele>310.79998779297</ele>
        <time>2018-12-24T10:18:32.000Z</time>
      </trkpt>
      <trkpt lat="45.46711" lon="4.72521">
        <ele>311.20001220703</ele>
        <time>2018-12-24T10:18:34.000Z</time>
      </trkpt>
      <trkpt lat="45.46708" lon="4.72517">
        <ele>312</ele>
        <time>2018-12-24T10:18:36.000Z</time>
      </trkpt>
      <trkpt lat="45.467" lon="4.72502">
        <ele>312.79998779297</ele>
        <time>2018-12-24T10:18:43.000Z</time>
      </trkpt>
      <trkpt lat="45.46699" lon="4.725">
        <ele>313</ele>
        <time>2018-12-24T10:18:44.000Z</time>
      </trkpt>
      <trkpt lat="45.46693" lon="4.72489">
        <ele>314.79998779297</ele>
        <time>2018-12-24T10:18:50.000Z</time>
      </trkpt>
      <trkpt lat="45.46692" lon="4.72487">
        <ele>315.39999389648</ele>
        <time>2018-12-24T10:18:51.000Z</time>
      </trkpt>
      <trkpt lat="45.46691" lon="4.72484">
        <ele>315.79998779297</ele>
        <time>2018-12-24T10:18:52.000Z</time>
      </trkpt>
      <trkpt lat="45.46684" lon="4.72468">
        <ele>316.60000610352</ele>
        <time>2018-12-24T10:18:59.000Z</time>
      </trkpt>
      <trkpt lat="45.46681" lon="4.72457">
        <ele>317</ele>
        <time>2018-12-24T10:19:03.000Z</time>
      </trkpt>
      <trkpt lat="45.4668" lon="4.72449">
        <ele>317.60000610352</ele>
        <time>2018-12-24T10:19:06.000Z</time>
      </trkpt>
      <trkpt lat="45.46675" lon="4.72432">
        <ele>317.60000610352</ele>
        <time>2018-12-24T10:19:13.000Z</time>
      </trkpt>
      <trkpt lat="45.46673" lon="4.72426">
        <ele>318.39999389648</ele>
        <time>2018-12-24T10:19:15.000Z</time>
      </trkpt>
      <trkpt lat="45.4667" lon="4.72412">
        <ele>319.20001220703</ele>
        <time>2018-12-24T10:19:20.000Z</time>
      </trkpt>
      <trkpt lat="45.46669" lon="4.72404">
        <ele>319.60000610352</ele>
        <time>2018-12-24T10:19:23.000Z</time>
      </trkpt>
      <trkpt lat="45.46667" lon="4.72394">
        <ele>320.39999389648</ele>
        <time>2018-12-24T10:19:27.000Z</time>
      </trkpt>
      <trkpt lat="45.46664" lon="4.72376">
        <ele>320.79998779297</ele>
        <time>2018-12-24T10:19:33.000Z</time>
      </trkpt>
      <trkpt lat="45.46664" lon="4.72373">
        <ele>321</ele>
        <time>2018-12-24T10:19:34.000Z</time>
      </trkpt>
      <trkpt lat="45.46661" lon="4.72357">
        <ele>321.79998779297</ele>
        <time>2018-12-24T10:19:40.000Z</time>
      </trkpt>
      <trkpt lat="45.4666" lon="4.72351">
        <ele>322.39999389648</ele>
        <time>2018-12-24T10:19:42.000Z</time>
      </trkpt>
      <trkpt lat="45.46656" lon="4.72335">
        <ele>322.79998779297</ele>
        <time>2018-12-24T10:19:48.000Z</time>
      </trkpt>
      <trkpt lat="45.46655" lon="4.72329">
        <ele>323.39999389648</ele>
        <time>2018-12-24T10:19:50.000Z</time>
      </trkpt>
      <trkpt lat="45.46653" lon="4.72319">
        <ele>324</ele>
        <time>2018-12-24T10:19:54.000Z</time>
      </trkpt>
      <trkpt lat="45.46649" lon="4.72312">
        <ele>324.79998779297</ele>
        <time>2018-12-24T10:19:57.000Z</time>
      </trkpt>
      <trkpt lat="45.46644" lon="4.72305">
        <ele>325.20001220703</ele>
        <time>2018-12-24T10:20:00.000Z</time>
      </trkpt>
      <trkpt lat="45.46635" lon="4.72294">
        <ele>325.39999389648</ele>
        <time>2018-12-24T10:20:05.000Z</time>
      </trkpt>
      <trkpt lat="45.4662" lon="4.72277">
        <ele>326.20001220703</ele>
        <time>2018-12-24T10:20:13.000Z</time>
      </trkpt>
      <trkpt lat="45.46619" lon="4.72274">
        <ele>326.39999389648</ele>
        <time>2018-12-24T10:20:14.000Z</time>
      </trkpt>
      <trkpt lat="45.46606" lon="4.72262">
        <ele>327.39999389648</ele>
        <time>2018-12-24T10:20:21.000Z</time>
      </trkpt>
      <trkpt lat="45.46603" lon="4.72259">
        <ele>327.39999389648</ele>
        <time>2018-12-24T10:20:23.000Z</time>
      </trkpt>
      <trkpt lat="45.46593" lon="4.72253">
        <ele>328</ele>
        <time>2018-12-24T10:20:28.000Z</time>
      </trkpt>
      <trkpt lat="45.46589" lon="4.72252">
        <ele>328.20001220703</ele>
        <time>2018-12-24T10:20:30.000Z</time>
      </trkpt>
      <trkpt lat="45.46587" lon="4.72249">
        <ele>328.39999389648</ele>
        <time>2018-12-24T10:20:32.000Z</time>
      </trkpt>
      <trkpt lat="45.46574" lon="4.72238">
        <ele>328.60000610352</ele>
        <time>2018-12-24T10:20:38.000Z</time>
      </trkpt>
      <trkpt lat="45.46567" lon="4.72233">
        <ele>328.60000610352</ele>
        <time>2018-12-24T10:20:41.000Z</time>
      </trkpt>
      <trkpt lat="45.46558" lon="4.72222">
        <ele>329</ele>
        <time>2018-12-24T10:20:47.000Z</time>
      </trkpt>
      <trkpt lat="45.46555" lon="4.72214">
        <ele>329.60000610352</ele>
        <time>2018-12-24T10:20:50.000Z</time>
      </trkpt>
      <trkpt lat="45.4655" lon="4.72199">
        <ele>329.79998779297</ele>
        <time>2018-12-24T10:20:55.000Z</time>
      </trkpt>
      <trkpt lat="45.46544" lon="4.72185">
        <ele>330.79998779297</ele>
        <time>2018-12-24T10:21:00.000Z</time>
      </trkpt>
      <trkpt lat="45.46541" lon="4.72177">
        <ele>331.79998779297</ele>
        <time>2018-12-24T10:21:03.000Z</time>
      </trkpt>
      <trkpt lat="45.46536" lon="4.72167">
        <ele>332.20001220703</ele>
        <time>2018-12-24T10:21:07.000Z</time>
      </trkpt>
      <trkpt lat="45.46531" lon="4.72153">
        <ele>332.79998779297</ele>
        <time>2018-12-24T10:21:12.000Z</time>
      </trkpt>
      <trkpt lat="45.46527" lon="4.72141">
        <ele>333.39999389648</ele>
        <time>2018-12-24T10:21:16.000Z</time>
      </trkpt>
      <trkpt lat="45.46523" lon="4.7213">
        <ele>334</ele>
        <time>2018-12-24T10:21:20.000Z</time>
      </trkpt>
      <trkpt lat="45.46518" lon="4.72121">
        <ele>334.39999389648</ele>
        <time>2018-12-24T10:21:23.000Z</time>
      </trkpt>
      <trkpt lat="45.46507" lon="4.72103">
        <ele>334.79998779297</ele>
        <time>2018-12-24T10:21:30.000Z</time>
      </trkpt>
      <trkpt lat="45.46501" lon="4.72095">
        <ele>335</ele>
        <time>2018-12-24T10:21:34.000Z</time>
      </trkpt>
      <trkpt lat="45.46494" lon="4.72085">
        <ele>336</ele>
        <time>2018-12-24T10:21:38.000Z</time>
      </trkpt>
      <trkpt lat="45.46491" lon="4.72081">
        <ele>336.20001220703</ele>
        <time>2018-12-24T10:21:40.000Z</time>
      </trkpt>
      <trkpt lat="45.4648" lon="4.72069">
        <ele>337.20001220703</ele>
        <time>2018-12-24T10:21:46.000Z</time>
      </trkpt>
      <trkpt lat="45.46478" lon="4.72068">
        <ele>337.20001220703</ele>
        <time>2018-12-24T10:21:47.000Z</time>
      </trkpt>
      <trkpt lat="45.46474" lon="4.72065">
        <ele>337.39999389648</ele>
        <time>2018-12-24T10:21:49.000Z</time>
      </trkpt>
      <trkpt lat="45.46463" lon="4.72056">
        <ele>338</ele>
        <time>2018-12-24T10:21:55.000Z</time>
      </trkpt>
      <trkpt lat="45.46461" lon="4.72055">
        <ele>338.39999389648</ele>
        <time>2018-12-24T10:21:56.000Z</time>
      </trkpt>
      <trkpt lat="45.46452" lon="4.72046">
        <ele>339.60000610352</ele>
        <time>2018-12-24T10:22:01.000Z</time>
      </trkpt>
      <trkpt lat="45.4645" lon="4.72044">
        <ele>339.60000610352</ele>
        <time>2018-12-24T10:22:02.000Z</time>
      </trkpt>
      <trkpt lat="45.46438" lon="4.72031">
        <ele>340.39999389648</ele>
        <time>2018-12-24T10:22:09.000Z</time>
      </trkpt>
      <trkpt lat="45.46423" lon="4.72018">
        <ele>340.60000610352</ele>
        <time>2018-12-24T10:22:16.000Z</time>
      </trkpt>
      <trkpt lat="45.46421" lon="4.72017">
        <ele>340.79998779297</ele>
        <time>2018-12-24T10:22:17.000Z</time>
      </trkpt>
      <trkpt lat="45.46408" lon="4.72005">
        <ele>341.60000610352</ele>
        <time>2018-12-24T10:22:23.000Z</time>
      </trkpt>
      <trkpt lat="45.46406" lon="4.72003">
        <ele>341.79998779297</ele>
        <time>2018-12-24T10:22:24.000Z</time>
      </trkpt>
      <trkpt lat="45.46391" lon="4.7199">
        <ele>342.39999389648</ele>
        <time>2018-12-24T10:22:31.000Z</time>
      </trkpt>
      <trkpt lat="45.46377" lon="4.71979">
        <ele>343</ele>
        <time>2018-12-24T10:22:38.000Z</time>
      </trkpt>
      <trkpt lat="45.46365" lon="4.71972">
        <ele>343.60000610352</ele>
        <time>2018-12-24T10:22:44.000Z</time>
      </trkpt>
      <trkpt lat="45.46362" lon="4.7197">
        <ele>343.79998779297</ele>
        <time>2018-12-24T10:22:45.000Z</time>
      </trkpt>
      <trkpt lat="45.46358" lon="4.71966">
        <ele>344</ele>
        <time>2018-12-24T10:22:47.000Z</time>
      </trkpt>
      <trkpt lat="45.46356" lon="4.71964">
        <ele>344.20001220703</ele>
        <time>2018-12-24T10:22:48.000Z</time>
      </trkpt>
      <trkpt lat="45.4635" lon="4.71955">
        <ele>344.60000610352</ele>
        <time>2018-12-24T10:22:53.000Z</time>
      </trkpt>
      <trkpt lat="45.46343" lon="4.7194">
        <ele>345</ele>
        <time>2018-12-24T10:22:58.000Z</time>
      </trkpt>
      <trkpt lat="45.46343" lon="4.71937">
        <ele>345</ele>
        <time>2018-12-24T10:22:59.000Z</time>
      </trkpt>
      <trkpt lat="45.46336" lon="4.71918">
        <ele>344.79998779297</ele>
        <time>2018-12-24T10:23:05.000Z</time>
      </trkpt>
      <trkpt lat="45.46332" lon="4.71898">
        <ele>345.20001220703</ele>
        <time>2018-12-24T10:23:12.000Z</time>
      </trkpt>
      <trkpt lat="45.46323" lon="4.7188">
        <ele>346</ele>
        <time>2018-12-24T10:23:18.000Z</time>
      </trkpt>
      <trkpt lat="45.46321" lon="4.71877">
        <ele>346.20001220703</ele>
        <time>2018-12-24T10:23:19.000Z</time>
      </trkpt>
      <trkpt lat="45.46308" lon="4.71864">
        <ele>346.60000610352</ele>
        <time>2018-12-24T10:23:25.000Z</time>
      </trkpt>
      <trkpt lat="45.46295" lon="4.71846">
        <ele>346.39999389648</ele>
        <time>2018-12-24T10:23:32.000Z</time>
      </trkpt>
      <trkpt lat="45.46282" lon="4.71827">
        <ele>345.79998779297</ele>
        <time>2018-12-24T10:23:40.000Z</time>
      </trkpt>
      <trkpt lat="45.46274" lon="4.71815">
        <ele>344.79998779297</ele>
        <time>2018-12-24T10:23:45.000Z</time>
      </trkpt>
      <trkpt lat="45.46271" lon="4.7181">
        <ele>344.79998779297</ele>
        <time>2018-12-24T10:23:47.000Z</time>
      </trkpt>
      <trkpt lat="45.46263" lon="4.71796">
        <ele>345.79998779297</ele>
        <time>2018-12-24T10:23:52.000Z</time>
      </trkpt>
      <trkpt lat="45.46259" lon="4.71787">
        <ele>346.60000610352</ele>
        <time>2018-12-24T10:23:55.000Z</time>
      </trkpt>
      <trkpt lat="45.46248" lon="4.71766">
        <ele>345.20001220703</ele>
        <time>2018-12-24T10:24:02.000Z</time>
      </trkpt>
      <trkpt lat="45.46244" lon="4.7176">
        <ele>344.79998779297</ele>
        <time>2018-12-24T10:24:04.000Z</time>
      </trkpt>
      <trkpt lat="45.46233" lon="4.71743">
        <ele>344.79998779297</ele>
        <time>2018-12-24T10:24:10.000Z</time>
      </trkpt>
      <trkpt lat="45.46227" lon="4.71731">
        <ele>343.79998779297</ele>
        <time>2018-12-24T10:24:14.000Z</time>
      </trkpt>
      <trkpt lat="45.46223" lon="4.71725">
        <ele>343.39999389648</ele>
        <time>2018-12-24T10:24:16.000Z</time>
      </trkpt>
      <trkpt lat="45.46218" lon="4.71716">
        <ele>342.79998779297</ele>
        <time>2018-12-24T10:24:19.000Z</time>
      </trkpt>
      <trkpt lat="45.46212" lon="4.71706">
        <ele>342.39999389648</ele>
        <time>2018-12-24T10:24:22.000Z</time>
      </trkpt>
      <trkpt lat="45.46201" lon="4.71684">
        <ele>342</ele>
        <time>2018-12-24T10:24:29.000Z</time>
      </trkpt>
      <trkpt lat="45.46194" lon="4.71673">
        <ele>341.60000610352</ele>
        <time>2018-12-24T10:24:33.000Z</time>
      </trkpt>
      <trkpt lat="45.46192" lon="4.7167">
        <ele>341.39999389648</ele>
        <time>2018-12-24T10:24:34.000Z</time>
      </trkpt>
      <trkpt lat="45.46181" lon="4.71649">
        <ele>340.39999389648</ele>
        <time>2018-12-24T10:24:41.000Z</time>
      </trkpt>
      <trkpt lat="45.46178" lon="4.71644">
        <ele>340.20001220703</ele>
        <time>2018-12-24T10:24:43.000Z</time>
      </trkpt>
      <trkpt lat="45.46167" lon="4.7162">
        <ele>340</ele>
        <time>2018-12-24T10:24:50.000Z</time>
      </trkpt>
      <trkpt lat="45.46155" lon="4.71603">
        <ele>340.39999389648</ele>
        <time>2018-12-24T10:24:56.000Z</time>
      </trkpt>
      <trkpt lat="45.46147" lon="4.71591">
        <ele>339.39999389648</ele>
        <time>2018-12-24T10:25:01.000Z</time>
      </trkpt>
      <trkpt lat="45.46145" lon="4.71589">
        <ele>339.20001220703</ele>
        <time>2018-12-24T10:25:02.000Z</time>
      </trkpt>
      <trkpt lat="45.46138" lon="4.71579">
        <ele>338.39999389648</ele>
        <time>2018-12-24T10:25:07.000Z</time>
      </trkpt>
      <trkpt lat="45.46135" lon="4.71575">
        <ele>338.20001220703</ele>
        <time>2018-12-24T10:25:09.000Z</time>
      </trkpt>
      <trkpt lat="45.46129" lon="4.71567">
        <ele>337.60000610352</ele>
        <time>2018-12-24T10:25:13.000Z</time>
      </trkpt>
      <trkpt lat="45.46119" lon="4.71553">
        <ele>337.20001220703</ele>
        <time>2018-12-24T10:25:18.000Z</time>
      </trkpt>
      <trkpt lat="45.46116" lon="4.71546">
        <ele>337</ele>
        <time>2018-12-24T10:25:20.000Z</time>
      </trkpt>
      <trkpt lat="45.46104" lon="4.71531">
        <ele>336.79998779297</ele>
        <time>2018-12-24T10:25:26.000Z</time>
      </trkpt>
      <trkpt lat="45.46101" lon="4.71523">
        <ele>336</ele>
        <time>2018-12-24T10:25:29.000Z</time>
      </trkpt>
      <trkpt lat="45.46098" lon="4.71518">
        <ele>335.79998779297</ele>
        <time>2018-12-24T10:25:31.000Z</time>
      </trkpt>
      <trkpt lat="45.46092" lon="4.71507">
        <ele>335.39999389648</ele>
        <time>2018-12-24T10:25:36.000Z</time>
      </trkpt>
      <trkpt lat="45.46084" lon="4.71491">
        <ele>335</ele>
        <time>2018-12-24T10:25:41.000Z</time>
      </trkpt>
      <trkpt lat="45.46074" lon="4.71478">
        <ele>335.20001220703</ele>
        <time>2018-12-24T10:25:46.000Z</time>
      </trkpt>
      <trkpt lat="45.4607" lon="4.71473">
        <ele>335</ele>
        <time>2018-12-24T10:25:48.000Z</time>
      </trkpt>
      <trkpt lat="45.46066" lon="4.71467">
        <ele>334.60000610352</ele>
        <time>2018-12-24T10:25:50.000Z</time>
      </trkpt>
      <trkpt lat="45.4606" lon="4.71458">
        <ele>334.20001220703</ele>
        <time>2018-12-24T10:25:53.000Z</time>
      </trkpt>
      <trkpt lat="45.46052" lon="4.71442">
        <ele>334.39999389648</ele>
        <time>2018-12-24T10:25:59.000Z</time>
      </trkpt>
      <trkpt lat="45.46042" lon="4.71424">
        <ele>334.20001220703</ele>
        <time>2018-12-24T10:26:05.000Z</time>
      </trkpt>
      <trkpt lat="45.4604" lon="4.71422">
        <ele>334</ele>
        <time>2018-12-24T10:26:06.000Z</time>
      </trkpt>
      <trkpt lat="45.46033" lon="4.71408">
        <ele>333.60000610352</ele>
        <time>2018-12-24T10:26:11.000Z</time>
      </trkpt>
      <trkpt lat="45.4602" lon="4.71392">
        <ele>333.20001220703</ele>
        <time>2018-12-24T10:26:17.000Z</time>
      </trkpt>
      <trkpt lat="45.46004" lon="4.71376">
        <ele>333.60000610352</ele>
        <time>2018-12-24T10:26:23.000Z</time>
      </trkpt>
      <trkpt lat="45.45991" lon="4.71368">
        <ele>332.79998779297</ele>
        <time>2018-12-24T10:26:28.000Z</time>
      </trkpt>
      <trkpt lat="45.45986" lon="4.71365">
        <ele>332.60000610352</ele>
        <time>2018-12-24T10:26:30.000Z</time>
      </trkpt>
      <trkpt lat="45.45974" lon="4.71355">
        <ele>331.60000610352</ele>
        <time>2018-12-24T10:26:35.000Z</time>
      </trkpt>
      <trkpt lat="45.45961" lon="4.71346">
        <ele>330.39999389648</ele>
        <time>2018-12-24T10:26:40.000Z</time>
      </trkpt>
      <trkpt lat="45.45958" lon="4.71343">
        <ele>330</ele>
        <time>2018-12-24T10:26:41.000Z</time>
      </trkpt>
      <trkpt lat="45.45952" lon="4.71339">
        <ele>329.20001220703</ele>
        <time>2018-12-24T10:26:43.000Z</time>
      </trkpt>
      <trkpt lat="45.45937" lon="4.71327">
        <ele>329</ele>
        <time>2018-12-24T10:26:49.000Z</time>
      </trkpt>
      <trkpt lat="45.45922" lon="4.71315">
        <ele>328.20001220703</ele>
        <time>2018-12-24T10:26:55.000Z</time>
      </trkpt>
      <trkpt lat="45.45918" lon="4.7131">
        <ele>327</ele>
        <time>2018-12-24T10:26:57.000Z</time>
      </trkpt>
      <trkpt lat="45.45904" lon="4.71294">
        <ele>326</ele>
        <time>2018-12-24T10:27:03.000Z</time>
      </trkpt>
      <trkpt lat="45.45902" lon="4.71292">
        <ele>325.79998779297</ele>
        <time>2018-12-24T10:27:04.000Z</time>
      </trkpt>
      <trkpt lat="45.4589" lon="4.7128">
        <ele>324.79998779297</ele>
        <time>2018-12-24T10:27:09.000Z</time>
      </trkpt>
      <trkpt lat="45.45887" lon="4.71278">
        <ele>324.79998779297</ele>
        <time>2018-12-24T10:27:10.000Z</time>
      </trkpt>
      <trkpt lat="45.45877" lon="4.7127">
        <ele>324.60000610352</ele>
        <time>2018-12-24T10:27:14.000Z</time>
      </trkpt>
      <trkpt lat="45.45869" lon="4.71264">
        <ele>324.60000610352</ele>
        <time>2018-12-24T10:27:17.000Z</time>
      </trkpt>
      <trkpt lat="45.45853" lon="4.71253">
        <ele>323.60000610352</ele>
        <time>2018-12-24T10:27:23.000Z</time>
      </trkpt>
      <trkpt lat="45.45851" lon="4.71252">
        <ele>323.20001220703</ele>
        <time>2018-12-24T10:27:24.000Z</time>
      </trkpt>
      <trkpt lat="45.45833" lon="4.7124">
        <ele>324</ele>
        <time>2018-12-24T10:27:31.000Z</time>
      </trkpt>
      <trkpt lat="45.45819" lon="4.7123">
        <ele>323</ele>
        <time>2018-12-24T10:27:37.000Z</time>
      </trkpt>
      <trkpt lat="45.45814" lon="4.71226">
        <ele>322.20001220703</ele>
        <time>2018-12-24T10:27:39.000Z</time>
      </trkpt>
      <trkpt lat="45.45812" lon="4.71224">
        <ele>321.79998779297</ele>
        <time>2018-12-24T10:27:40.000Z</time>
      </trkpt>
      <trkpt lat="45.45808" lon="4.7122">
        <ele>321</ele>
        <time>2018-12-24T10:27:42.000Z</time>
      </trkpt>
      <trkpt lat="45.45799" lon="4.71211">
        <ele>319.79998779297</ele>
        <time>2018-12-24T10:27:46.000Z</time>
      </trkpt>
      <trkpt lat="45.45788" lon="4.712">
        <ele>319.20001220703</ele>
        <time>2018-12-24T10:27:52.000Z</time>
      </trkpt>
      <trkpt lat="45.45778" lon="4.71185">
        <ele>319.79998779297</ele>
        <time>2018-12-24T10:27:58.000Z</time>
      </trkpt>
      <trkpt lat="45.45765" lon="4.71169">
        <ele>320.79998779297</ele>
        <time>2018-12-24T10:28:05.000Z</time>
      </trkpt>
      <trkpt lat="45.45762" lon="4.71167">
        <ele>321.20001220703</ele>
        <time>2018-12-24T10:28:06.000Z</time>
      </trkpt>
      <trkpt lat="45.45748" lon="4.71163">
        <ele>321.39999389648</ele>
        <time>2018-12-24T10:28:11.000Z</time>
      </trkpt>
      <trkpt lat="45.45731" lon="4.71158">
        <ele>321.20001220703</ele>
        <time>2018-12-24T10:28:17.000Z</time>
      </trkpt>
      <trkpt lat="45.45716" lon="4.71151">
        <ele>320.39999389648</ele>
        <time>2018-12-24T10:28:23.000Z</time>
      </trkpt>
      <trkpt lat="45.45697" lon="4.71142">
        <ele>320.20001220703</ele>
        <time>2018-12-24T10:28:31.000Z</time>
      </trkpt>
      <trkpt lat="45.45694" lon="4.71141">
        <ele>320.20001220703</ele>
        <time>2018-12-24T10:28:32.000Z</time>
      </trkpt>
      <trkpt lat="45.45677" lon="4.71131">
        <ele>320.20001220703</ele>
        <time>2018-12-24T10:28:39.000Z</time>
      </trkpt>
      <trkpt lat="45.45672" lon="4.71128">
        <ele>320.20001220703</ele>
        <time>2018-12-24T10:28:41.000Z</time>
      </trkpt>
      <trkpt lat="45.45663" lon="4.71123">
        <ele>319.39999389648</ele>
        <time>2018-12-24T10:28:45.000Z</time>
      </trkpt>
      <trkpt lat="45.45659" lon="4.71122">
        <ele>319</ele>
        <time>2018-12-24T10:28:47.000Z</time>
      </trkpt>
      <trkpt lat="45.45648" lon="4.71117">
        <ele>318.60000610352</ele>
        <time>2018-12-24T10:28:52.000Z</time>
      </trkpt>
      <trkpt lat="45.4563" lon="4.71106">
        <ele>318.20001220703</ele>
        <time>2018-12-24T10:28:59.000Z</time>
      </trkpt>
      <trkpt lat="45.45624" lon="4.71103">
        <ele>318</ele>
        <time>2018-12-24T10:29:02.000Z</time>
      </trkpt>
      <trkpt lat="45.45619" lon="4.711">
        <ele>317.79998779297</ele>
        <time>2018-12-24T10:29:04.000Z</time>
      </trkpt>
      <trkpt lat="45.45612" lon="4.71092">
        <ele>317.20001220703</ele>
        <time>2018-12-24T10:29:08.000Z</time>
      </trkpt>
      <trkpt lat="45.456" lon="4.71083">
        <ele>317.39999389648</ele>
        <time>2018-12-24T10:29:15.000Z</time>
      </trkpt>
      <trkpt lat="45.45586" lon="4.7107">
        <ele>317.60000610352</ele>
        <time>2018-12-24T10:29:21.000Z</time>
      </trkpt>
      <trkpt lat="45.45571" lon="4.71055">
        <ele>317.60000610352</ele>
        <time>2018-12-24T10:29:27.000Z</time>
      </trkpt>
      <trkpt lat="45.4556" lon="4.71048">
        <ele>318.20001220703</ele>
        <time>2018-12-24T10:29:32.000Z</time>
      </trkpt>
      <trkpt lat="45.45555" lon="4.71046">
        <ele>318.20001220703</ele>
        <time>2018-12-24T10:29:34.000Z</time>
      </trkpt>
      <trkpt lat="45.4554" lon="4.71042">
        <ele>319</ele>
        <time>2018-12-24T10:29:40.000Z</time>
      </trkpt>
      <trkpt lat="45.45529" lon="4.71038">
        <ele>320</ele>
        <time>2018-12-24T10:29:45.000Z</time>
      </trkpt>
      <trkpt lat="45.45526" lon="4.71036">
        <ele>320.60000610352</ele>
        <time>2018-12-24T10:29:46.000Z</time>
      </trkpt>
      <trkpt lat="45.45525" lon="4.71035">
        <ele>321.20001220703</ele>
        <time>2018-12-24T10:29:47.000Z</time>
      </trkpt>
      <trkpt lat="45.45518" lon="4.71028">
        <ele>322.39999389648</ele>
        <time>2018-12-24T10:29:51.000Z</time>
      </trkpt>
      <trkpt lat="45.45515" lon="4.71027">
        <ele>322.39999389648</ele>
        <time>2018-12-24T10:29:52.000Z</time>
      </trkpt>
      <trkpt lat="45.45507" lon="4.71025">
        <ele>323.39999389648</ele>
        <time>2018-12-24T10:29:56.000Z</time>
      </trkpt>
      <trkpt lat="45.45506" lon="4.71027">
        <ele>323.39999389648</ele>
        <time>2018-12-24T10:29:57.000Z</time>
      </trkpt>
      <trkpt lat="45.45502" lon="4.71044">
        <ele>323.60000610352</ele>
        <time>2018-12-24T10:30:02.000Z</time>
      </trkpt>
      <trkpt lat="45.45496" lon="4.71069">
        <ele>324</ele>
        <time>2018-12-24T10:30:10.000Z</time>
      </trkpt>
      <trkpt lat="45.45488" lon="4.71093">
        <ele>323.79998779297</ele>
        <time>2018-12-24T10:30:17.000Z</time>
      </trkpt>
      <trkpt lat="45.45476" lon="4.71113">
        <ele>323.60000610352</ele>
        <time>2018-12-24T10:30:24.000Z</time>
      </trkpt>
      <trkpt lat="45.45474" lon="4.71115">
        <ele>323.39999389648</ele>
        <time>2018-12-24T10:30:25.000Z</time>
      </trkpt>
      <trkpt lat="45.45463" lon="4.71127">
        <ele>324</ele>
        <time>2018-12-24T10:30:31.000Z</time>
      </trkpt>
      <trkpt lat="45.45447" lon="4.71139">
        <ele>324.39999389648</ele>
        <time>2018-12-24T10:30:37.000Z</time>
      </trkpt>
      <trkpt lat="45.45432" lon="4.71151">
        <ele>324</ele>
        <time>2018-12-24T10:30:44.000Z</time>
      </trkpt>
      <trkpt lat="45.45429" lon="4.71153">
        <ele>324.20001220703</ele>
        <time>2018-12-24T10:30:45.000Z</time>
      </trkpt>
      <trkpt lat="45.45412" lon="4.71167">
        <ele>324</ele>
        <time>2018-12-24T10:30:53.000Z</time>
      </trkpt>
      <trkpt lat="45.45408" lon="4.7117">
        <ele>324.20001220703</ele>
        <time>2018-12-24T10:30:55.000Z</time>
      </trkpt>
      <trkpt lat="45.45401" lon="4.71176">
        <ele>324.60000610352</ele>
        <time>2018-12-24T10:30:58.000Z</time>
      </trkpt>
      <trkpt lat="45.4539" lon="4.71184">
        <ele>325.39999389648</ele>
        <time>2018-12-24T10:31:03.000Z</time>
      </trkpt>
      <trkpt lat="45.45386" lon="4.71187">
        <ele>325.60000610352</ele>
        <time>2018-12-24T10:31:05.000Z</time>
      </trkpt>
      <trkpt lat="45.45374" lon="4.71197">
        <ele>326.39999389648</ele>
        <time>2018-12-24T10:31:11.000Z</time>
      </trkpt>
      <trkpt lat="45.45368" lon="4.71202">
        <ele>326.79998779297</ele>
        <time>2018-12-24T10:31:15.000Z</time>
      </trkpt>
      <trkpt lat="45.45367" lon="4.71204">
        <ele>327.20001220703</ele>
        <time>2018-12-24T10:31:16.000Z</time>
      </trkpt>
      <trkpt lat="45.45367" lon="4.71206">
        <ele>327.20001220703</ele>
        <time>2018-12-24T10:31:17.000Z</time>
      </trkpt>
      <trkpt lat="45.45366" lon="4.71232">
        <ele>326.60000610352</ele>
        <time>2018-12-24T10:31:24.000Z</time>
      </trkpt>
      <trkpt lat="45.45368" lon="4.71252">
        <ele>325.60000610352</ele>
        <time>2018-12-24T10:31:29.000Z</time>
      </trkpt>
      <trkpt lat="45.45368" lon="4.71256">
        <ele>325.39999389648</ele>
        <time>2018-12-24T10:31:30.000Z</time>
      </trkpt>
      <trkpt lat="45.45374" lon="4.71279">
        <ele>324.79998779297</ele>
        <time>2018-12-24T10:31:36.000Z</time>
      </trkpt>
      <trkpt lat="45.45376" lon="4.71286">
        <ele>324.60000610352</ele>
        <time>2018-12-24T10:31:38.000Z</time>
      </trkpt>
      <trkpt lat="45.4538" lon="4.71302">
        <ele>324</ele>
        <time>2018-12-24T10:31:42.000Z</time>
      </trkpt>
      <trkpt lat="45.45384" lon="4.71313">
        <ele>323.60000610352</ele>
        <time>2018-12-24T10:31:45.000Z</time>
      </trkpt>
      <trkpt lat="45.45385" lon="4.71326">
        <ele>322.60000610352</ele>
        <time>2018-12-24T10:31:48.000Z</time>
      </trkpt>
      <trkpt lat="45.45385" lon="4.71331">
        <ele>322.20001220703</ele>
        <time>2018-12-24T10:31:49.000Z</time>
      </trkpt>
      <trkpt lat="45.45382" lon="4.71346">
        <ele>321</ele>
        <time>2018-12-24T10:31:53.000Z</time>
      </trkpt>
      <trkpt lat="45.45382" lon="4.7135">
        <ele>320.60000610352</ele>
        <time>2018-12-24T10:31:54.000Z</time>
      </trkpt>
      <trkpt lat="45.45378" lon="4.71365">
        <ele>320</ele>
        <time>2018-12-24T10:31:58.000Z</time>
      </trkpt>
      <trkpt lat="45.45374" lon="4.71377">
        <ele>320</ele>
        <time>2018-12-24T10:32:01.000Z</time>
      </trkpt>
      <trkpt lat="45.4537" lon="4.7139">
        <ele>319.39999389648</ele>
        <time>2018-12-24T10:32:05.000Z</time>
      </trkpt>
      <trkpt lat="45.45371" lon="4.71393">
        <ele>319</ele>
        <time>2018-12-24T10:32:06.000Z</time>
      </trkpt>
      <trkpt lat="45.45379" lon="4.71402">
        <ele>318</ele>
        <time>2018-12-24T10:32:10.000Z</time>
      </trkpt>
      <trkpt lat="45.45382" lon="4.71405">
        <ele>317.60000610352</ele>
        <time>2018-12-24T10:32:11.000Z</time>
      </trkpt>
      <trkpt lat="45.45387" lon="4.7141">
        <ele>316.79998779297</ele>
        <time>2018-12-24T10:32:13.000Z</time>
      </trkpt>
      <trkpt lat="45.45394" lon="4.71416">
        <ele>316.20001220703</ele>
        <time>2018-12-24T10:32:16.000Z</time>
      </trkpt>
      <trkpt lat="45.45397" lon="4.71417">
        <ele>316</ele>
        <time>2018-12-24T10:32:17.000Z</time>
      </trkpt>
      <trkpt lat="45.45399" lon="4.71419">
        <ele>315.79998779297</ele>
        <time>2018-12-24T10:32:18.000Z</time>
      </trkpt>
      <trkpt lat="45.4541" lon="4.71433">
        <ele>315</ele>
        <time>2018-12-24T10:32:23.000Z</time>
      </trkpt>
      <trkpt lat="45.45417" lon="4.71443">
        <ele>314.60000610352</ele>
        <time>2018-12-24T10:32:26.000Z</time>
      </trkpt>
      <trkpt lat="45.45419" lon="4.71445">
        <ele>314.39999389648</ele>
        <time>2018-12-24T10:32:27.000Z</time>
      </trkpt>
      <trkpt lat="45.45424" lon="4.71452">
        <ele>313.60000610352</ele>
        <time>2018-12-24T10:32:30.000Z</time>
      </trkpt>
      <trkpt lat="45.45427" lon="4.71459">
        <ele>313</ele>
        <time>2018-12-24T10:32:32.000Z</time>
      </trkpt>
      <trkpt lat="45.45437" lon="4.7148">
        <ele>312.39999389648</ele>
        <time>2018-12-24T10:32:38.000Z</time>
      </trkpt>
      <trkpt lat="45.45438" lon="4.71483">
        <ele>312.60000610352</ele>
        <time>2018-12-24T10:32:39.000Z</time>
      </trkpt>
      <trkpt lat="45.45445" lon="4.71496">
        <ele>311.20001220703</ele>
        <time>2018-12-24T10:32:43.000Z</time>
      </trkpt>
      <trkpt lat="45.45448" lon="4.71508">
        <ele>309.79998779297</ele>
        <time>2018-12-24T10:32:46.000Z</time>
      </trkpt>
      <trkpt lat="45.45453" lon="4.71519">
        <ele>308.79998779297</ele>
        <time>2018-12-24T10:32:49.000Z</time>
      </trkpt>
      <trkpt lat="45.45458" lon="4.71531">
        <ele>307.79998779297</ele>
        <time>2018-12-24T10:32:52.000Z</time>
      </trkpt>
      <trkpt lat="45.45467" lon="4.71549">
        <ele>306.60000610352</ele>
        <time>2018-12-24T10:32:57.000Z</time>
      </trkpt>
      <trkpt lat="45.4547" lon="4.71556">
        <ele>306</ele>
        <time>2018-12-24T10:32:59.000Z</time>
      </trkpt>
      <trkpt lat="45.45474" lon="4.71562">
        <ele>305.60000610352</ele>
        <time>2018-12-24T10:33:01.000Z</time>
      </trkpt>
      <trkpt lat="45.45477" lon="4.71569">
        <ele>304.60000610352</ele>
        <time>2018-12-24T10:33:03.000Z</time>
      </trkpt>
      <trkpt lat="45.45483" lon="4.7158">
        <ele>304</ele>
        <time>2018-12-24T10:33:06.000Z</time>
      </trkpt>
      <trkpt lat="45.45487" lon="4.71587">
        <ele>303.60000610352</ele>
        <time>2018-12-24T10:33:08.000Z</time>
      </trkpt>
      <trkpt lat="45.45499" lon="4.71608">
        <ele>302.39999389648</ele>
        <time>2018-12-24T10:33:14.000Z</time>
      </trkpt>
      <trkpt lat="45.45501" lon="4.71611">
        <ele>302</ele>
        <time>2018-12-24T10:33:15.000Z</time>
      </trkpt>
      <trkpt lat="45.45505" lon="4.71617">
        <ele>301</ele>
        <time>2018-12-24T10:33:17.000Z</time>
      </trkpt>
      <trkpt lat="45.45511" lon="4.71624">
        <ele>300</ele>
        <time>2018-12-24T10:33:20.000Z</time>
      </trkpt>
      <trkpt lat="45.45515" lon="4.71629">
        <ele>299</ele>
        <time>2018-12-24T10:33:22.000Z</time>
      </trkpt>
      <trkpt lat="45.45517" lon="4.71633">
        <ele>298.39999389648</ele>
        <time>2018-12-24T10:33:23.000Z</time>
      </trkpt>
      <trkpt lat="45.45519" lon="4.71645">
        <ele>297.39999389648</ele>
        <time>2018-12-24T10:33:26.000Z</time>
      </trkpt>
      <trkpt lat="45.4552" lon="4.71649">
        <ele>297</ele>
        <time>2018-12-24T10:33:27.000Z</time>
      </trkpt>
      <trkpt lat="45.4552" lon="4.71667">
        <ele>296.20001220703</ele>
        <time>2018-12-24T10:33:31.000Z</time>
      </trkpt>
      <trkpt lat="45.4552" lon="4.71672">
        <ele>295.79998779297</ele>
        <time>2018-12-24T10:33:32.000Z</time>
      </trkpt>
      <trkpt lat="45.4552" lon="4.71682">
        <ele>294.60000610352</ele>
        <time>2018-12-24T10:33:34.000Z</time>
      </trkpt>
      <trkpt lat="45.45521" lon="4.71695">
        <ele>293.39999389648</ele>
        <time>2018-12-24T10:33:37.000Z</time>
      </trkpt>
      <trkpt lat="45.45522" lon="4.71698">
        <ele>293.39999389648</ele>
        <time>2018-12-24T10:33:38.000Z</time>
      </trkpt>
      <trkpt lat="45.45528" lon="4.71718">
        <ele>293</ele>
        <time>2018-12-24T10:33:43.000Z</time>
      </trkpt>
      <trkpt lat="45.45536" lon="4.71735">
        <ele>292.60000610352</ele>
        <time>2018-12-24T10:33:48.000Z</time>
      </trkpt>
      <trkpt lat="45.4554" lon="4.7175">
        <ele>292.79998779297</ele>
        <time>2018-12-24T10:33:53.000Z</time>
      </trkpt>
      <trkpt lat="45.45541" lon="4.71766">
        <ele>293.39999389648</ele>
        <time>2018-12-24T10:33:59.000Z</time>
      </trkpt>
      <trkpt lat="45.45534" lon="4.71778">
        <ele>294.60000610352</ele>
        <time>2018-12-24T10:34:04.000Z</time>
      </trkpt>
      <trkpt lat="45.45532" lon="4.71781">
        <ele>295</ele>
        <time>2018-12-24T10:34:05.000Z</time>
      </trkpt>
      <trkpt lat="45.45518" lon="4.718">
        <ele>295.39999389648</ele>
        <time>2018-12-24T10:34:12.000Z</time>
      </trkpt>
      <trkpt lat="45.45517" lon="4.71802">
        <ele>295.60000610352</ele>
        <time>2018-12-24T10:34:13.000Z</time>
      </trkpt>
      <trkpt lat="45.45508" lon="4.71818">
        <ele>296.60000610352</ele>
        <time>2018-12-24T10:34:18.000Z</time>
      </trkpt>
      <trkpt lat="45.45499" lon="4.71834">
        <ele>297</ele>
        <time>2018-12-24T10:34:23.000Z</time>
      </trkpt>
      <trkpt lat="45.45485" lon="4.7185">
        <ele>297.60000610352</ele>
        <time>2018-12-24T10:34:30.000Z</time>
      </trkpt>
      <trkpt lat="45.45483" lon="4.71852">
        <ele>297.79998779297</ele>
        <time>2018-12-24T10:34:31.000Z</time>
      </trkpt>
      <trkpt lat="45.45481" lon="4.71861">
        <ele>298.39999389648</ele>
        <time>2018-12-24T10:34:35.000Z</time>
      </trkpt>
      <trkpt lat="45.45481" lon="4.71864">
        <ele>298.79998779297</ele>
        <time>2018-12-24T10:34:36.000Z</time>
      </trkpt>
      <trkpt lat="45.45485" lon="4.71879">
        <ele>299.79998779297</ele>
        <time>2018-12-24T10:34:41.000Z</time>
      </trkpt>
      <trkpt lat="45.45486" lon="4.71885">
        <ele>300.20001220703</ele>
        <time>2018-12-24T10:34:43.000Z</time>
      </trkpt>
      <trkpt lat="45.45488" lon="4.71893">
        <ele>300.79998779297</ele>
        <time>2018-12-24T10:34:46.000Z</time>
      </trkpt>
      <trkpt lat="45.4549" lon="4.71905">
        <ele>301.79998779297</ele>
        <time>2018-12-24T10:34:50.000Z</time>
      </trkpt>
      <trkpt lat="45.45491" lon="4.71909">
        <ele>302</ele>
        <time>2018-12-24T10:34:51.000Z</time>
      </trkpt>
      <trkpt lat="45.45494" lon="4.71923">
        <ele>303.20001220703</ele>
        <time>2018-12-24T10:34:56.000Z</time>
      </trkpt>
      <trkpt lat="45.45495" lon="4.71936">
        <ele>304.20001220703</ele>
        <time>2018-12-24T10:35:01.000Z</time>
      </trkpt>
      <trkpt lat="45.45496" lon="4.71941">
        <ele>305</ele>
        <time>2018-12-24T10:35:03.000Z</time>
      </trkpt>
      <trkpt lat="45.45497" lon="4.71944">
        <ele>305.39999389648</ele>
        <time>2018-12-24T10:35:04.000Z</time>
      </trkpt>
      <trkpt lat="45.45499" lon="4.7195">
        <ele>305.79998779297</ele>
        <time>2018-12-24T10:35:07.000Z</time>
      </trkpt>
      <trkpt lat="45.455" lon="4.71954">
        <ele>306.20001220703</ele>
        <time>2018-12-24T10:35:09.000Z</time>
      </trkpt>
      <trkpt lat="45.45501" lon="4.71957">
        <ele>306.60000610352</ele>
        <time>2018-12-24T10:35:10.000Z</time>
      </trkpt>
      <trkpt lat="45.45503" lon="4.71967">
        <ele>307.60000610352</ele>
        <time>2018-12-24T10:35:14.000Z</time>
      </trkpt>
      <trkpt lat="45.45505" lon="4.71973">
        <ele>307.79998779297</ele>
        <time>2018-12-24T10:35:16.000Z</time>
      </trkpt>
      <trkpt lat="45.45506" lon="4.71979">
        <ele>308.20001220703</ele>
        <time>2018-12-24T10:35:18.000Z</time>
      </trkpt>
      <trkpt lat="45.45506" lon="4.71983">
        <ele>308</ele>
        <time>2018-12-24T10:35:19.000Z</time>
      </trkpt>
      <trkpt lat="45.45507" lon="4.71987">
        <ele>308.20001220703</ele>
        <time>2018-12-24T10:35:20.000Z</time>
      </trkpt>
      <trkpt lat="45.45509" lon="4.71994">
        <ele>308.39999389648</ele>
        <time>2018-12-24T10:35:22.000Z</time>
      </trkpt>
      <trkpt lat="45.45512" lon="4.72">
        <ele>308.39999389648</ele>
        <time>2018-12-24T10:35:24.000Z</time>
      </trkpt>
      <trkpt lat="45.45522" lon="4.72023">
        <ele>307.79998779297</ele>
        <time>2018-12-24T10:35:31.000Z</time>
      </trkpt>
      <trkpt lat="45.45524" lon="4.72026">
        <ele>307.60000610352</ele>
        <time>2018-12-24T10:35:32.000Z</time>
      </trkpt>
      <trkpt lat="45.45527" lon="4.72032">
        <ele>306.60000610352</ele>
        <time>2018-12-24T10:35:34.000Z</time>
      </trkpt>
      <trkpt lat="45.45534" lon="4.72044">
        <ele>305.39999389648</ele>
        <time>2018-12-24T10:35:38.000Z</time>
      </trkpt>
      <trkpt lat="45.45538" lon="4.7205">
        <ele>305</ele>
        <time>2018-12-24T10:35:40.000Z</time>
      </trkpt>
      <trkpt lat="45.4555" lon="4.72073">
        <ele>305</ele>
        <time>2018-12-24T10:35:47.000Z</time>
      </trkpt>
      <trkpt lat="45.45563" lon="4.72092">
        <ele>305</ele>
        <time>2018-12-24T10:35:54.000Z</time>
      </trkpt>
      <trkpt lat="45.45575" lon="4.72113">
        <ele>305.39999389648</ele>
        <time>2018-12-24T10:36:01.000Z</time>
      </trkpt>
      <trkpt lat="45.45574" lon="4.72134">
        <ele>305.39999389648</ele>
        <time>2018-12-24T10:36:06.000Z</time>
      </trkpt>
      <trkpt lat="45.45572" lon="4.72154">
        <ele>304.39999389648</ele>
        <time>2018-12-24T10:36:11.000Z</time>
      </trkpt>
      <trkpt lat="45.45571" lon="4.72161">
        <ele>304</ele>
        <time>2018-12-24T10:36:13.000Z</time>
      </trkpt>
      <trkpt lat="45.45571" lon="4.72169">
        <ele>303.39999389648</ele>
        <time>2018-12-24T10:36:15.000Z</time>
      </trkpt>
      <trkpt lat="45.4557" lon="4.72189">
        <ele>302.20001220703</ele>
        <time>2018-12-24T10:36:20.000Z</time>
      </trkpt>
      <trkpt lat="45.4557" lon="4.72193">
        <ele>302.20001220703</ele>
        <time>2018-12-24T10:36:21.000Z</time>
      </trkpt>
      <trkpt lat="45.45569" lon="4.72206">
        <ele>301.79998779297</ele>
        <time>2018-12-24T10:36:24.000Z</time>
      </trkpt>
      <trkpt lat="45.45568" lon="4.72228">
        <ele>302</ele>
        <time>2018-12-24T10:36:29.000Z</time>
      </trkpt>
      <trkpt lat="45.45567" lon="4.72256">
        <ele>301.60000610352</ele>
        <time>2018-12-24T10:36:36.000Z</time>
      </trkpt>
      <trkpt lat="45.45566" lon="4.7226">
        <ele>301.39999389648</ele>
        <time>2018-12-24T10:36:37.000Z</time>
      </trkpt>
      <trkpt lat="45.45563" lon="4.72289">
        <ele>301.79998779297</ele>
        <time>2018-12-24T10:36:44.000Z</time>
      </trkpt>
      <trkpt lat="45.45562" lon="4.72297">
        <ele>302</ele>
        <time>2018-12-24T10:36:46.000Z</time>
      </trkpt>
      <trkpt lat="45.45561" lon="4.72309">
        <ele>301.79998779297</ele>
        <time>2018-12-24T10:36:49.000Z</time>
      </trkpt>
      <trkpt lat="45.45559" lon="4.72321">
        <ele>301.79998779297</ele>
        <time>2018-12-24T10:36:52.000Z</time>
      </trkpt>
      <trkpt lat="45.45556" lon="4.72341">
        <ele>300.79998779297</ele>
        <time>2018-12-24T10:36:57.000Z</time>
      </trkpt>
      <trkpt lat="45.45554" lon="4.72353">
        <ele>301</ele>
        <time>2018-12-24T10:37:00.000Z</time>
      </trkpt>
      <trkpt lat="45.45551" lon="4.7238">
        <ele>299.79998779297</ele>
        <time>2018-12-24T10:37:07.000Z</time>
      </trkpt>
      <trkpt lat="45.45551" lon="4.72384">
        <ele>299.79998779297</ele>
        <time>2018-12-24T10:37:08.000Z</time>
      </trkpt>
      <trkpt lat="45.45553" lon="4.7241">
        <ele>299</ele>
        <time>2018-12-24T10:37:15.000Z</time>
      </trkpt>
      <trkpt lat="45.45553" lon="4.72413">
        <ele>299</ele>
        <time>2018-12-24T10:37:16.000Z</time>
      </trkpt>
      <trkpt lat="45.45556" lon="4.72424">
        <ele>298.60000610352</ele>
        <time>2018-12-24T10:37:19.000Z</time>
      </trkpt>
      <trkpt lat="45.45559" lon="4.72432">
        <ele>297.39999389648</ele>
        <time>2018-12-24T10:37:22.000Z</time>
      </trkpt>
      <trkpt lat="45.45566" lon="4.72448">
        <ele>297</ele>
        <time>2018-12-24T10:37:27.000Z</time>
      </trkpt>
      <trkpt lat="45.45574" lon="4.72471">
        <ele>296.60000610352</ele>
        <time>2018-12-24T10:37:34.000Z</time>
      </trkpt>
      <trkpt lat="45.45577" lon="4.7248">
        <ele>296.39999389648</ele>
        <time>2018-12-24T10:37:37.000Z</time>
      </trkpt>
      <trkpt lat="45.45583" lon="4.72491">
        <ele>296</ele>
        <time>2018-12-24T10:37:41.000Z</time>
      </trkpt>
      <trkpt lat="45.45593" lon="4.7251">
        <ele>295.20001220703</ele>
        <time>2018-12-24T10:37:47.000Z</time>
      </trkpt>
      <trkpt lat="45.45594" lon="4.72514">
        <ele>295</ele>
        <time>2018-12-24T10:37:48.000Z</time>
      </trkpt>
      <trkpt lat="45.45604" lon="4.72535">
        <ele>295</ele>
        <time>2018-12-24T10:37:54.000Z</time>
      </trkpt>
      <trkpt lat="45.45612" lon="4.72552">
        <ele>293.79998779297</ele>
        <time>2018-12-24T10:37:59.000Z</time>
      </trkpt>
      <trkpt lat="45.45618" lon="4.72561">
        <ele>293.20001220703</ele>
        <time>2018-12-24T10:38:02.000Z</time>
      </trkpt>
      <trkpt lat="45.4563" lon="4.72583">
        <ele>293.39999389648</ele>
        <time>2018-12-24T10:38:09.000Z</time>
      </trkpt>
      <trkpt lat="45.45642" lon="4.72606">
        <ele>293.39999389648</ele>
        <time>2018-12-24T10:38:16.000Z</time>
      </trkpt>
      <trkpt lat="45.45653" lon="4.72629">
        <ele>293.39999389648</ele>
        <time>2018-12-24T10:38:23.000Z</time>
      </trkpt>
      <trkpt lat="45.45663" lon="4.72652">
        <ele>293.20001220703</ele>
        <time>2018-12-24T10:38:30.000Z</time>
      </trkpt>
      <trkpt lat="45.4567" lon="4.72671">
        <ele>293</ele>
        <time>2018-12-24T10:38:36.000Z</time>
      </trkpt>
      <trkpt lat="45.45674" lon="4.72695">
        <ele>293</ele>
        <time>2018-12-24T10:38:43.000Z</time>
      </trkpt>
      <trkpt lat="45.45678" lon="4.72717">
        <ele>293.60000610352</ele>
        <time>2018-12-24T10:38:49.000Z</time>
      </trkpt>
      <trkpt lat="45.45683" lon="4.7274">
        <ele>293.79998779297</ele>
        <time>2018-12-24T10:38:55.000Z</time>
      </trkpt>
      <trkpt lat="45.45685" lon="4.7275">
        <ele>294</ele>
        <time>2018-12-24T10:38:58.000Z</time>
      </trkpt>
      <trkpt lat="45.45688" lon="4.7276">
        <ele>294</ele>
        <time>2018-12-24T10:39:01.000Z</time>
      </trkpt>
      <trkpt lat="45.45696" lon="4.72785">
        <ele>294.60000610352</ele>
        <time>2018-12-24T10:39:08.000Z</time>
      </trkpt>
      <trkpt lat="45.45699" lon="4.72792">
        <ele>295</ele>
        <time>2018-12-24T10:39:10.000Z</time>
      </trkpt>
      <trkpt lat="45.45702" lon="4.72803">
        <ele>295</ele>
        <time>2018-12-24T10:39:13.000Z</time>
      </trkpt>
      <trkpt lat="45.45704" lon="4.72818">
        <ele>295.39999389648</ele>
        <time>2018-12-24T10:39:18.000Z</time>
      </trkpt>
      <trkpt lat="45.45705" lon="4.72821">
        <ele>295.60000610352</ele>
        <time>2018-12-24T10:39:19.000Z</time>
      </trkpt>
      <trkpt lat="45.4571" lon="4.72833">
        <ele>295.39999389648</ele>
        <time>2018-12-24T10:39:23.000Z</time>
      </trkpt>
      <trkpt lat="45.45712" lon="4.7284">
        <ele>295.20001220703</ele>
        <time>2018-12-24T10:39:25.000Z</time>
      </trkpt>
      <trkpt lat="45.45714" lon="4.72848">
        <ele>295</ele>
        <time>2018-12-24T10:39:27.000Z</time>
      </trkpt>
      <trkpt lat="45.45718" lon="4.72871">
        <ele>294.39999389648</ele>
        <time>2018-12-24T10:39:33.000Z</time>
      </trkpt>
      <trkpt lat="45.4572" lon="4.72897">
        <ele>294</ele>
        <time>2018-12-24T10:39:39.000Z</time>
      </trkpt>
      <trkpt lat="45.45721" lon="4.72901">
        <ele>293.79998779297</ele>
        <time>2018-12-24T10:39:40.000Z</time>
      </trkpt>
      <trkpt lat="45.45721" lon="4.7293">
        <ele>293.79998779297</ele>
        <time>2018-12-24T10:39:47.000Z</time>
      </trkpt>
      <trkpt lat="45.45721" lon="4.72938">
        <ele>293.79998779297</ele>
        <time>2018-12-24T10:39:49.000Z</time>
      </trkpt>
      <trkpt lat="45.45721" lon="4.72963">
        <ele>293.60000610352</ele>
        <time>2018-12-24T10:39:56.000Z</time>
      </trkpt>
      <trkpt lat="45.45722" lon="4.72971">
        <ele>293.60000610352</ele>
        <time>2018-12-24T10:39:58.000Z</time>
      </trkpt>
      <trkpt lat="45.45724" lon="4.72994">
        <ele>292.79998779297</ele>
        <time>2018-12-24T10:40:05.000Z</time>
      </trkpt>
      <trkpt lat="45.45725" lon="4.72999">
        <ele>292.60000610352</ele>
        <time>2018-12-24T10:40:07.000Z</time>
      </trkpt>
      <trkpt lat="45.45725" lon="4.73003">
        <ele>292.79998779297</ele>
        <time>2018-12-24T10:40:10.000Z</time>
      </trkpt>
      <trkpt lat="45.45725" lon="4.73004">
        <ele>292.79998779297</ele>
        <time>2018-12-24T10:40:11.000Z</time>
      </trkpt>
      <trkpt lat="45.45727" lon="4.73009">
        <ele>292.60000610352</ele>
        <time>2018-12-24T10:40:15.000Z</time>
      </trkpt>
      <trkpt lat="45.45727" lon="4.73009">
        <ele>292.60000610352</ele>
        <time>2018-12-24T10:40:16.000Z</time>
      </trkpt>
      <trkpt lat="45.45727" lon="4.73011">
        <ele>292.60000610352</ele>
        <time>2018-12-24T10:40:19.000Z</time>
      </trkpt>
      <trkpt lat="45.45729" lon="4.73028">
        <ele>292.39999389648</ele>
        <time>2018-12-24T10:40:25.000Z</time>
      </trkpt>
      <trkpt lat="45.45729" lon="4.73032">
        <ele>292.39999389648</ele>
        <time>2018-12-24T10:40:26.000Z</time>
      </trkpt>
      <trkpt lat="45.45731" lon="4.73053">
        <ele>292</ele>
        <time>2018-12-24T10:40:31.000Z</time>
      </trkpt>
      <trkpt lat="45.45735" lon="4.7308">
        <ele>291.79998779297</ele>
        <time>2018-12-24T10:40:38.000Z</time>
      </trkpt>
      <trkpt lat="45.45739" lon="4.73107">
        <ele>292.39999389648</ele>
        <time>2018-12-24T10:40:45.000Z</time>
      </trkpt>
      <trkpt lat="45.45741" lon="4.73119">
        <ele>291.60000610352</ele>
        <time>2018-12-24T10:40:48.000Z</time>
      </trkpt>
      <trkpt lat="45.45743" lon="4.73134">
        <ele>290.79998779297</ele>
        <time>2018-12-24T10:40:52.000Z</time>
      </trkpt>
      <trkpt lat="45.45743" lon="4.73141">
        <ele>290.39999389648</ele>
        <time>2018-12-24T10:40:54.000Z</time>
      </trkpt>
      <trkpt lat="45.45741" lon="4.73145">
        <ele>290.39999389648</ele>
        <time>2018-12-24T10:40:56.000Z</time>
      </trkpt>
      <trkpt lat="45.45732" lon="4.73144">
        <ele>290.79998779297</ele>
        <time>2018-12-24T10:40:59.000Z</time>
      </trkpt>
      <trkpt lat="45.45727" lon="4.73144">
        <ele>290.79998779297</ele>
        <time>2018-12-24T10:41:01.000Z</time>
      </trkpt>
      <trkpt lat="45.45708" lon="4.73145">
        <ele>291</ele>
        <time>2018-12-24T10:41:07.000Z</time>
      </trkpt>
      <trkpt lat="45.45705" lon="4.73146">
        <ele>291.20001220703</ele>
        <time>2018-12-24T10:41:08.000Z</time>
      </trkpt>
      <trkpt lat="45.45687" lon="4.73149">
        <ele>290.79998779297</ele>
        <time>2018-12-24T10:41:15.000Z</time>
      </trkpt>
      <trkpt lat="45.45669" lon="4.73148">
        <ele>291</ele>
        <time>2018-12-24T10:41:22.000Z</time>
      </trkpt>
      <trkpt lat="45.45661" lon="4.73147">
        <ele>291.60000610352</ele>
        <time>2018-12-24T10:41:25.000Z</time>
      </trkpt>
      <trkpt lat="45.45647" lon="4.73145">
        <ele>292.20001220703</ele>
        <time>2018-12-24T10:41:30.000Z</time>
      </trkpt>
      <trkpt lat="45.45629" lon="4.73143">
        <ele>291.20001220703</ele>
        <time>2018-12-24T10:41:36.000Z</time>
      </trkpt>
      <trkpt lat="45.45623" lon="4.73143">
        <ele>291</ele>
        <time>2018-12-24T10:41:38.000Z</time>
      </trkpt>
      <trkpt lat="45.45614" lon="4.73142">
        <ele>290.60000610352</ele>
        <time>2018-12-24T10:41:41.000Z</time>
      </trkpt>
      <trkpt lat="45.45599" lon="4.7314">
        <ele>290</ele>
        <time>2018-12-24T10:41:46.000Z</time>
      </trkpt>
      <trkpt lat="45.45585" lon="4.73137">
        <ele>289.39999389648</ele>
        <time>2018-12-24T10:41:51.000Z</time>
      </trkpt>
      <trkpt lat="45.45576" lon="4.73136">
        <ele>288.79998779297</ele>
        <time>2018-12-24T10:41:54.000Z</time>
      </trkpt>
      <trkpt lat="45.45564" lon="4.73134">
        <ele>288.39999389648</ele>
        <time>2018-12-24T10:41:58.000Z</time>
      </trkpt>
      <trkpt lat="45.45556" lon="4.73131">
        <ele>288.20001220703</ele>
        <time>2018-12-24T10:42:01.000Z</time>
      </trkpt>
      <trkpt lat="45.45548" lon="4.73127">
        <ele>287.20001220703</ele>
        <time>2018-12-24T10:42:04.000Z</time>
      </trkpt>
      <trkpt lat="45.45537" lon="4.73123">
        <ele>286.39999389648</ele>
        <time>2018-12-24T10:42:08.000Z</time>
      </trkpt>
      <trkpt lat="45.45518" lon="4.73116">
        <ele>286.20001220703</ele>
        <time>2018-12-24T10:42:14.000Z</time>
      </trkpt>
      <trkpt lat="45.45515" lon="4.73115">
        <ele>286</ele>
        <time>2018-12-24T10:42:15.000Z</time>
      </trkpt>
      <trkpt lat="45.45499" lon="4.731">
        <ele>284.79998779297</ele>
        <time>2018-12-24T10:42:21.000Z</time>
      </trkpt>
      <trkpt lat="45.45497" lon="4.73097">
        <ele>284.60000610352</ele>
        <time>2018-12-24T10:42:22.000Z</time>
      </trkpt>
      <trkpt lat="45.45482" lon="4.73078">
        <ele>284</ele>
        <time>2018-12-24T10:42:29.000Z</time>
      </trkpt>
      <trkpt lat="45.4548" lon="4.73075">
        <ele>283.79998779297</ele>
        <time>2018-12-24T10:42:30.000Z</time>
      </trkpt>
      <trkpt lat="45.45478" lon="4.73073">
        <ele>283.79998779297</ele>
        <time>2018-12-24T10:42:31.000Z</time>
      </trkpt>
      <trkpt lat="45.45477" lon="4.73072">
        <ele>283.60000610352</ele>
        <time>2018-12-24T10:42:33.000Z</time>
      </trkpt>
      <trkpt lat="45.45477" lon="4.73072">
        <ele>283.60000610352</ele>
        <time>2018-12-24T10:42:34.000Z</time>
      </trkpt>
      <trkpt lat="45.45477" lon="4.73072">
        <ele>283.39999389648</ele>
        <time>2018-12-24T10:42:36.000Z</time>
      </trkpt>
      <trkpt lat="45.45472" lon="4.73064">
        <ele>284.39999389648</ele>
        <time>2018-12-24T10:43:02.000Z</time>
      </trkpt>
      <trkpt lat="45.4547" lon="4.73062">
        <ele>284.20001220703</ele>
        <time>2018-12-24T10:43:03.000Z</time>
      </trkpt>
      <trkpt lat="45.45463" lon="4.73054">
        <ele>282.39999389648</ele>
        <time>2018-12-24T10:43:06.000Z</time>
      </trkpt>
      <trkpt lat="45.45456" lon="4.73048">
        <ele>282</ele>
        <time>2018-12-24T10:43:09.000Z</time>
      </trkpt>
      <trkpt lat="45.45441" lon="4.73034">
        <ele>282.79998779297</ele>
        <time>2018-12-24T10:43:16.000Z</time>
      </trkpt>
      <trkpt lat="45.45438" lon="4.73032">
        <ele>282.60000610352</ele>
        <time>2018-12-24T10:43:17.000Z</time>
      </trkpt>
      <trkpt lat="45.45433" lon="4.73027">
        <ele>282.20001220703</ele>
        <time>2018-12-24T10:43:19.000Z</time>
      </trkpt>
      <trkpt lat="45.45425" lon="4.73022">
        <ele>282</ele>
        <time>2018-12-24T10:43:22.000Z</time>
      </trkpt>
      <trkpt lat="45.45423" lon="4.7302">
        <ele>281.79998779297</ele>
        <time>2018-12-24T10:43:23.000Z</time>
      </trkpt>
      <trkpt lat="45.45412" lon="4.73013">
        <ele>281.20001220703</ele>
        <time>2018-12-24T10:43:27.000Z</time>
      </trkpt>
      <trkpt lat="45.45405" lon="4.73006">
        <ele>280.39999389648</ele>
        <time>2018-12-24T10:43:30.000Z</time>
      </trkpt>
      <trkpt lat="45.454" lon="4.73001">
        <ele>280</ele>
        <time>2018-12-24T10:43:32.000Z</time>
      </trkpt>
      <trkpt lat="45.4539" lon="4.72992">
        <ele>279.20001220703</ele>
        <time>2018-12-24T10:43:36.000Z</time>
      </trkpt>
      <trkpt lat="45.45388" lon="4.72991">
        <ele>278.79998779297</ele>
        <time>2018-12-24T10:43:37.000Z</time>
      </trkpt>
      <trkpt lat="45.45377" lon="4.72982">
        <ele>277.79998779297</ele>
        <time>2018-12-24T10:43:41.000Z</time>
      </trkpt>
      <trkpt lat="45.45374" lon="4.7298">
        <ele>277.39999389648</ele>
        <time>2018-12-24T10:43:42.000Z</time>
      </trkpt>
      <trkpt lat="45.45371" lon="4.72978">
        <ele>276.60000610352</ele>
        <time>2018-12-24T10:43:43.000Z</time>
      </trkpt>
      <trkpt lat="45.45366" lon="4.72974">
        <ele>275.60000610352</ele>
        <time>2018-12-24T10:43:45.000Z</time>
      </trkpt>
      <trkpt lat="45.45355" lon="4.72966">
        <ele>274.39999389648</ele>
        <time>2018-12-24T10:43:49.000Z</time>
      </trkpt>
      <trkpt lat="45.45353" lon="4.72964">
        <ele>274.20001220703</ele>
        <time>2018-12-24T10:43:50.000Z</time>
      </trkpt>
      <trkpt lat="45.45346" lon="4.72957">
        <ele>273.20001220703</ele>
        <time>2018-12-24T10:43:53.000Z</time>
      </trkpt>
      <trkpt lat="45.45335" lon="4.72949">
        <ele>272.20001220703</ele>
        <time>2018-12-24T10:43:57.000Z</time>
      </trkpt>
      <trkpt lat="45.45325" lon="4.72942">
        <ele>271.39999389648</ele>
        <time>2018-12-24T10:44:01.000Z</time>
      </trkpt>
      <trkpt lat="45.45316" lon="4.72936">
        <ele>271.39999389648</ele>
        <time>2018-12-24T10:44:04.000Z</time>
      </trkpt>
      <trkpt lat="45.45308" lon="4.7293">
        <ele>271</ele>
        <time>2018-12-24T10:44:07.000Z</time>
      </trkpt>
      <trkpt lat="45.45297" lon="4.72921">
        <ele>269.39999389648</ele>
        <time>2018-12-24T10:44:11.000Z</time>
      </trkpt>
      <trkpt lat="45.45291" lon="4.72914">
        <ele>268.20001220703</ele>
        <time>2018-12-24T10:44:14.000Z</time>
      </trkpt>
      <trkpt lat="45.45284" lon="4.72907">
        <ele>267</ele>
        <time>2018-12-24T10:44:17.000Z</time>
      </trkpt>
      <trkpt lat="45.45281" lon="4.72906">
        <ele>266.79998779297</ele>
        <time>2018-12-24T10:44:18.000Z</time>
      </trkpt>
      <trkpt lat="45.45266" lon="4.72906">
        <ele>266</ele>
        <time>2018-12-24T10:44:23.000Z</time>
      </trkpt>
      <trkpt lat="45.45264" lon="4.72908">
        <ele>265.79998779297</ele>
        <time>2018-12-24T10:44:24.000Z</time>
      </trkpt>
      <trkpt lat="45.45252" lon="4.72912">
        <ele>264.79998779297</ele>
        <time>2018-12-24T10:44:28.000Z</time>
      </trkpt>
      <trkpt lat="45.45244" lon="4.72914">
        <ele>263.20001220703</ele>
        <time>2018-12-24T10:44:31.000Z</time>
      </trkpt>
      <trkpt lat="45.4524" lon="4.72911">
        <ele>262.20001220703</ele>
        <time>2018-12-24T10:44:33.000Z</time>
      </trkpt>
      <trkpt lat="45.45238" lon="4.72911">
        <ele>261.60000610352</ele>
        <time>2018-12-24T10:44:34.000Z</time>
      </trkpt>
      <trkpt lat="45.45236" lon="4.72909">
        <ele>261.20001220703</ele>
        <time>2018-12-24T10:44:35.000Z</time>
      </trkpt>
      <trkpt lat="45.45233" lon="4.72905">
        <ele>259.79998779297</ele>
        <time>2018-12-24T10:44:37.000Z</time>
      </trkpt>
      <trkpt lat="45.45227" lon="4.72904">
        <ele>259.20001220703</ele>
        <time>2018-12-24T10:44:40.000Z</time>
      </trkpt>
      <trkpt lat="45.45225" lon="4.72904">
        <ele>258.79998779297</ele>
        <time>2018-12-24T10:44:41.000Z</time>
      </trkpt>
      <trkpt lat="45.45217" lon="4.72909">
        <ele>257.60000610352</ele>
        <time>2018-12-24T10:44:45.000Z</time>
      </trkpt>
      <trkpt lat="45.45211" lon="4.72913">
        <ele>256.39999389648</ele>
        <time>2018-12-24T10:44:48.000Z</time>
      </trkpt>
      <trkpt lat="45.45206" lon="4.72916">
        <ele>255.60000610352</ele>
        <time>2018-12-24T10:44:50.000Z</time>
      </trkpt>
      <trkpt lat="45.45196" lon="4.72926">
        <ele>255.19999694824</ele>
        <time>2018-12-24T10:44:54.000Z</time>
      </trkpt>
      <trkpt lat="45.45189" lon="4.72935">
        <ele>255</ele>
        <time>2018-12-24T10:44:59.000Z</time>
      </trkpt>
      <trkpt lat="45.45186" lon="4.72946">
        <ele>256</ele>
        <time>2018-12-24T10:45:03.000Z</time>
      </trkpt>
      <trkpt lat="45.45186" lon="4.72949">
        <ele>256.39999389648</ele>
        <time>2018-12-24T10:45:04.000Z</time>
      </trkpt>
      <trkpt lat="45.45186" lon="4.72958">
        <ele>257</ele>
        <time>2018-12-24T10:45:08.000Z</time>
      </trkpt>
      <trkpt lat="45.45186" lon="4.72968">
        <ele>257.60000610352</ele>
        <time>2018-12-24T10:45:10.000Z</time>
      </trkpt>
      <trkpt lat="45.45185" lon="4.72977">
        <ele>258.20001220703</ele>
        <time>2018-12-24T10:45:13.000Z</time>
      </trkpt>
      <trkpt lat="45.45185" lon="4.72982">
        <ele>258.39999389648</ele>
        <time>2018-12-24T10:45:15.000Z</time>
      </trkpt>
      <trkpt lat="45.45186" lon="4.72988">
        <ele>258.79998779297</ele>
        <time>2018-12-24T10:45:17.000Z</time>
      </trkpt>
      <trkpt lat="45.45187" lon="4.72994">
        <ele>259</ele>
        <time>2018-12-24T10:45:19.000Z</time>
      </trkpt>
      <trkpt lat="45.45187" lon="4.73">
        <ele>259.79998779297</ele>
        <time>2018-12-24T10:45:21.000Z</time>
      </trkpt>
      <trkpt lat="45.45188" lon="4.73017">
        <ele>260.60000610352</ele>
        <time>2018-12-24T10:45:26.000Z</time>
      </trkpt>
      <trkpt lat="45.45189" lon="4.7302">
        <ele>260.79998779297</ele>
        <time>2018-12-24T10:45:27.000Z</time>
      </trkpt>
      <trkpt lat="45.4519" lon="4.73032">
        <ele>261.79998779297</ele>
        <time>2018-12-24T10:45:31.000Z</time>
      </trkpt>
      <trkpt lat="45.4519" lon="4.73038">
        <ele>262</ele>
        <time>2018-12-24T10:45:33.000Z</time>
      </trkpt>
      <trkpt lat="45.45189" lon="4.73056">
        <ele>263</ele>
        <time>2018-12-24T10:45:39.000Z</time>
      </trkpt>
      <trkpt lat="45.4519" lon="4.7306">
        <ele>263.20001220703</ele>
        <time>2018-12-24T10:45:40.000Z</time>
      </trkpt>
      <trkpt lat="45.45191" lon="4.73064">
        <ele>263.79998779297</ele>
        <time>2018-12-24T10:45:42.000Z</time>
      </trkpt>
      <trkpt lat="45.45192" lon="4.73067">
        <ele>264</ele>
        <time>2018-12-24T10:45:43.000Z</time>
      </trkpt>
      <trkpt lat="45.45194" lon="4.73073">
        <ele>263.79998779297</ele>
        <time>2018-12-24T10:45:45.000Z</time>
      </trkpt>
      <trkpt lat="45.45197" lon="4.73089">
        <ele>263.39999389648</ele>
        <time>2018-12-24T10:45:50.000Z</time>
      </trkpt>
      <trkpt lat="45.45199" lon="4.73106">
        <ele>263.20001220703</ele>
        <time>2018-12-24T10:45:56.000Z</time>
      </trkpt>
      <trkpt lat="45.45204" lon="4.7312">
        <ele>263.20001220703</ele>
        <time>2018-12-24T10:46:01.000Z</time>
      </trkpt>
      <trkpt lat="45.45207" lon="4.7314">
        <ele>264.20001220703</ele>
        <time>2018-12-24T10:46:07.000Z</time>
      </trkpt>
      <trkpt lat="45.45207" lon="4.73145">
        <ele>264.39999389648</ele>
        <time>2018-12-24T10:46:08.000Z</time>
      </trkpt>
      <trkpt lat="45.4521" lon="4.73157">
        <ele>264.60000610352</ele>
        <time>2018-12-24T10:46:12.000Z</time>
      </trkpt>
      <trkpt lat="45.45215" lon="4.73179">
        <ele>264.79998779297</ele>
        <time>2018-12-24T10:46:18.000Z</time>
      </trkpt>
      <trkpt lat="45.45215" lon="4.73203">
        <ele>265</ele>
        <time>2018-12-24T10:46:24.000Z</time>
      </trkpt>
      <trkpt lat="45.45216" lon="4.73206">
        <ele>265</ele>
        <time>2018-12-24T10:46:25.000Z</time>
      </trkpt>
      <trkpt lat="45.45217" lon="4.73211">
        <ele>265.39999389648</ele>
        <time>2018-12-24T10:46:27.000Z</time>
      </trkpt>
      <trkpt lat="45.45217" lon="4.73216">
        <ele>265.60000610352</ele>
        <time>2018-12-24T10:46:29.000Z</time>
      </trkpt>
      <trkpt lat="45.45221" lon="4.73236">
        <ele>265.20001220703</ele>
        <time>2018-12-24T10:46:35.000Z</time>
      </trkpt>
      <trkpt lat="45.45229" lon="4.73253">
        <ele>264</ele>
        <time>2018-12-24T10:46:40.000Z</time>
      </trkpt>
      <trkpt lat="45.45229" lon="4.73256">
        <ele>264</ele>
        <time>2018-12-24T10:46:41.000Z</time>
      </trkpt>
      <trkpt lat="45.45225" lon="4.73263">
        <ele>264</ele>
        <time>2018-12-24T10:46:46.000Z</time>
      </trkpt>
      <trkpt lat="45.45225" lon="4.73265">
        <ele>264</ele>
        <time>2018-12-24T10:46:47.000Z</time>
      </trkpt>
      <trkpt lat="45.45228" lon="4.73275">
        <ele>264</ele>
        <time>2018-12-24T10:46:51.000Z</time>
      </trkpt>
      <trkpt lat="45.45228" lon="4.73279">
        <ele>264</ele>
        <time>2018-12-24T10:46:52.000Z</time>
      </trkpt>
      <trkpt lat="45.45225" lon="4.73287">
        <ele>263.79998779297</ele>
        <time>2018-12-24T10:46:55.000Z</time>
      </trkpt>
      <trkpt lat="45.45221" lon="4.73292">
        <ele>263.79998779297</ele>
        <time>2018-12-24T10:46:57.000Z</time>
      </trkpt>
      <trkpt lat="45.4522" lon="4.73299">
        <ele>263.60000610352</ele>
        <time>2018-12-24T10:47:00.000Z</time>
      </trkpt>
      <trkpt lat="45.45219" lon="4.73301">
        <ele>263.39999389648</ele>
        <time>2018-12-24T10:47:01.000Z</time>
      </trkpt>
      <trkpt lat="45.45219" lon="4.73304">
        <ele>263.39999389648</ele>
        <time>2018-12-24T10:47:03.000Z</time>
      </trkpt>
      <trkpt lat="45.45219" lon="4.73308">
        <ele>263.39999389648</ele>
        <time>2018-12-24T10:47:05.000Z</time>
      </trkpt>
      <trkpt lat="45.4522" lon="4.73311">
        <ele>263.20001220703</ele>
        <time>2018-12-24T10:47:06.000Z</time>
      </trkpt>
      <trkpt lat="45.45221" lon="4.73313">
        <ele>263</ele>
        <time>2018-12-24T10:47:07.000Z</time>
      </trkpt>
      <trkpt lat="45.45223" lon="4.73316">
        <ele>262.39999389648</ele>
        <time>2018-12-24T10:47:09.000Z</time>
      </trkpt>
      <trkpt lat="45.45225" lon="4.73318">
        <ele>262.20001220703</ele>
        <time>2018-12-24T10:47:10.000Z</time>
      </trkpt>
      <trkpt lat="45.45227" lon="4.7332">
        <ele>262</ele>
        <time>2018-12-24T10:47:11.000Z</time>
      </trkpt>
      <trkpt lat="45.45229" lon="4.73322">
        <ele>261.39999389648</ele>
        <time>2018-12-24T10:47:12.000Z</time>
      </trkpt>
      <trkpt lat="45.45231" lon="4.73327">
        <ele>260.60000610352</ele>
        <time>2018-12-24T10:47:14.000Z</time>
      </trkpt>
      <trkpt lat="45.45238" lon="4.7334">
        <ele>259.39999389648</ele>
        <time>2018-12-24T10:47:18.000Z</time>
      </trkpt>
      <trkpt lat="45.45242" lon="4.73347">
        <ele>258.39999389648</ele>
        <time>2018-12-24T10:47:20.000Z</time>
      </trkpt>
      <trkpt lat="45.45244" lon="4.7335">
        <ele>258</ele>
        <time>2018-12-24T10:47:21.000Z</time>
      </trkpt>
      <trkpt lat="45.45245" lon="4.73352">
        <ele>257.79998779297</ele>
        <time>2018-12-24T10:47:22.000Z</time>
      </trkpt>
      <trkpt lat="45.45243" lon="4.73356">
        <ele>257.20001220703</ele>
        <time>2018-12-24T10:47:24.000Z</time>
      </trkpt>
      <trkpt lat="45.45236" lon="4.73361">
        <ele>255.60000610352</ele>
        <time>2018-12-24T10:47:27.000Z</time>
      </trkpt>
      <trkpt lat="45.45233" lon="4.73363">
        <ele>255</ele>
        <time>2018-12-24T10:47:28.000Z</time>
      </trkpt>
      <trkpt lat="45.45231" lon="4.73365">
        <ele>254.39999389648</ele>
        <time>2018-12-24T10:47:29.000Z</time>
      </trkpt>
      <trkpt lat="45.45223" lon="4.73369">
        <ele>253</ele>
        <time>2018-12-24T10:47:32.000Z</time>
      </trkpt>
      <trkpt lat="45.45219" lon="4.73374">
        <ele>252</ele>
        <time>2018-12-24T10:47:34.000Z</time>
      </trkpt>
      <trkpt lat="45.45213" lon="4.7338">
        <ele>250.80000305176</ele>
        <time>2018-12-24T10:47:37.000Z</time>
      </trkpt>
      <trkpt lat="45.4521" lon="4.7338">
        <ele>250.39999389648</ele>
        <time>2018-12-24T10:47:38.000Z</time>
      </trkpt>
      <trkpt lat="45.45206" lon="4.73378">
        <ele>250.19999694824</ele>
        <time>2018-12-24T10:47:40.000Z</time>
      </trkpt>
      <trkpt lat="45.45196" lon="4.73375">
        <ele>250.80000305176</ele>
        <time>2018-12-24T10:47:44.000Z</time>
      </trkpt>
      <trkpt lat="45.45184" lon="4.73369">
        <ele>251.19999694824</ele>
        <time>2018-12-24T10:47:49.000Z</time>
      </trkpt>
      <trkpt lat="45.4518" lon="4.73366">
        <ele>251.39999389648</ele>
        <time>2018-12-24T10:47:51.000Z</time>
      </trkpt>
      <trkpt lat="45.45175" lon="4.73363">
        <ele>251.60000610352</ele>
        <time>2018-12-24T10:47:53.000Z</time>
      </trkpt>
      <trkpt lat="45.4517" lon="4.7336">
        <ele>251.80000305176</ele>
        <time>2018-12-24T10:47:55.000Z</time>
      </trkpt>
      <trkpt lat="45.45164" lon="4.73358">
        <ele>252</ele>
        <time>2018-12-24T10:47:57.000Z</time>
      </trkpt>
      <trkpt lat="45.45154" lon="4.73359">
        <ele>251.80000305176</ele>
        <time>2018-12-24T10:48:01.000Z</time>
      </trkpt>
      <trkpt lat="45.45152" lon="4.7336">
        <ele>251.80000305176</ele>
        <time>2018-12-24T10:48:02.000Z</time>
      </trkpt>
      <trkpt lat="45.45151" lon="4.73361">
        <ele>251.60000610352</ele>
        <time>2018-12-24T10:48:03.000Z</time>
      </trkpt>
      <trkpt lat="45.45153" lon="4.73369">
        <ele>251.80000305176</ele>
        <time>2018-12-24T10:48:06.000Z</time>
      </trkpt>
      <trkpt lat="45.45162" lon="4.73381">
        <ele>252.19999694824</ele>
        <time>2018-12-24T10:48:11.000Z</time>
      </trkpt>
      <trkpt lat="45.45172" lon="4.73396">
        <ele>252.39999389648</ele>
        <time>2018-12-24T10:48:17.000Z</time>
      </trkpt>
      <trkpt lat="45.45184" lon="4.73413">
        <ele>252.60000610352</ele>
        <time>2018-12-24T10:48:23.000Z</time>
      </trkpt>
      <trkpt lat="45.45192" lon="4.73429">
        <ele>252.80000305176</ele>
        <time>2018-12-24T10:48:29.000Z</time>
      </trkpt>
      <trkpt lat="45.45192" lon="4.73432">
        <ele>252.80000305176</ele>
        <time>2018-12-24T10:48:30.000Z</time>
      </trkpt>
      <trkpt lat="45.45193" lon="4.73436">
        <ele>253</ele>
        <time>2018-12-24T10:48:31.000Z</time>
      </trkpt>
      <trkpt lat="45.45195" lon="4.73447">
        <ele>254.19999694824</ele>
        <time>2018-12-24T10:48:35.000Z</time>
      </trkpt>
      <trkpt lat="45.45195" lon="4.7345">
        <ele>254.39999389648</ele>
        <time>2018-12-24T10:48:36.000Z</time>
      </trkpt>
      <trkpt lat="45.45193" lon="4.73457">
        <ele>255.39999389648</ele>
        <time>2018-12-24T10:48:39.000Z</time>
      </trkpt>
      <trkpt lat="45.4519" lon="4.73465">
        <ele>256.20001220703</ele>
        <time>2018-12-24T10:48:42.000Z</time>
      </trkpt>
      <trkpt lat="45.4519" lon="4.73468">
        <ele>256.39999389648</ele>
        <time>2018-12-24T10:48:43.000Z</time>
      </trkpt>
      <trkpt lat="45.45189" lon="4.7348">
        <ele>257.60000610352</ele>
        <time>2018-12-24T10:48:47.000Z</time>
      </trkpt>
      <trkpt lat="45.45189" lon="4.73484">
        <ele>257.60000610352</ele>
        <time>2018-12-24T10:48:48.000Z</time>
      </trkpt>
      <trkpt lat="45.45191" lon="4.73506">
        <ele>258</ele>
        <time>2018-12-24T10:48:55.000Z</time>
      </trkpt>
      <trkpt lat="45.45192" lon="4.73511">
        <ele>258.60000610352</ele>
        <time>2018-12-24T10:48:57.000Z</time>
      </trkpt>
      <trkpt lat="45.45197" lon="4.73525">
        <ele>259.39999389648</ele>
        <time>2018-12-24T10:49:02.000Z</time>
      </trkpt>
      <trkpt lat="45.45196" lon="4.73532">
        <ele>259.79998779297</ele>
        <time>2018-12-24T10:49:04.000Z</time>
      </trkpt>
      <trkpt lat="45.45195" lon="4.73537">
        <ele>260</ele>
        <time>2018-12-24T10:49:06.000Z</time>
      </trkpt>
      <trkpt lat="45.45191" lon="4.73546">
        <ele>261</ele>
        <time>2018-12-24T10:49:10.000Z</time>
      </trkpt>
      <trkpt lat="45.45188" lon="4.7355">
        <ele>261.60000610352</ele>
        <time>2018-12-24T10:49:12.000Z</time>
      </trkpt>
      <trkpt lat="45.45187" lon="4.73552">
        <ele>262</ele>
        <time>2018-12-24T10:49:13.000Z</time>
      </trkpt>
      <trkpt lat="45.4518" lon="4.73564">
        <ele>263</ele>
        <time>2018-12-24T10:49:18.000Z</time>
      </trkpt>
      <trkpt lat="45.45179" lon="4.73566">
        <ele>263.20001220703</ele>
        <time>2018-12-24T10:49:19.000Z</time>
      </trkpt>
      <trkpt lat="45.45176" lon="4.73577">
        <ele>264.20001220703</ele>
        <time>2018-12-24T10:49:23.000Z</time>
      </trkpt>
      <trkpt lat="45.45174" lon="4.73582">
        <ele>264.60000610352</ele>
        <time>2018-12-24T10:49:25.000Z</time>
      </trkpt>
      <trkpt lat="45.45173" lon="4.73588">
        <ele>265.20001220703</ele>
        <time>2018-12-24T10:49:27.000Z</time>
      </trkpt>
      <trkpt lat="45.45173" lon="4.736">
        <ele>266</ele>
        <time>2018-12-24T10:49:31.000Z</time>
      </trkpt>
      <trkpt lat="45.45173" lon="4.73607">
        <ele>266.20001220703</ele>
        <time>2018-12-24T10:49:33.000Z</time>
      </trkpt>
      <trkpt lat="45.45172" lon="4.73622">
        <ele>267</ele>
        <time>2018-12-24T10:49:37.000Z</time>
      </trkpt>
      <trkpt lat="45.45171" lon="4.73643">
        <ele>267.39999389648</ele>
        <time>2018-12-24T10:49:42.000Z</time>
      </trkpt>
      <trkpt lat="45.45171" lon="4.7365">
        <ele>267.20001220703</ele>
        <time>2018-12-24T10:49:44.000Z</time>
      </trkpt>
      <trkpt lat="45.45174" lon="4.7367">
        <ele>267.20001220703</ele>
        <time>2018-12-24T10:49:50.000Z</time>
      </trkpt>
      <trkpt lat="45.45174" lon="4.73691">
        <ele>268.39999389648</ele>
        <time>2018-12-24T10:49:56.000Z</time>
      </trkpt>
      <trkpt lat="45.45167" lon="4.7371">
        <ele>269.39999389648</ele>
        <time>2018-12-24T10:50:02.000Z</time>
      </trkpt>
      <trkpt lat="45.45164" lon="4.73716">
        <ele>269.79998779297</ele>
        <time>2018-12-24T10:50:04.000Z</time>
      </trkpt>
      <trkpt lat="45.45159" lon="4.73729">
        <ele>270.20001220703</ele>
        <time>2018-12-24T10:50:08.000Z</time>
      </trkpt>
      <trkpt lat="45.45149" lon="4.73747">
        <ele>270.39999389648</ele>
        <time>2018-12-24T10:50:14.000Z</time>
      </trkpt>
      <trkpt lat="45.45136" lon="4.73752">
        <ele>270.60000610352</ele>
        <time>2018-12-24T10:50:19.000Z</time>
      </trkpt>
      <trkpt lat="45.45125" lon="4.73755">
        <ele>270.79998779297</ele>
        <time>2018-12-24T10:50:23.000Z</time>
      </trkpt>
      <trkpt lat="45.45118" lon="4.73758">
        <ele>271.20001220703</ele>
        <time>2018-12-24T10:50:26.000Z</time>
      </trkpt>
      <trkpt lat="45.45101" lon="4.73768">
        <ele>271.60000610352</ele>
        <time>2018-12-24T10:50:33.000Z</time>
      </trkpt>
      <trkpt lat="45.45093" lon="4.73772">
        <ele>272</ele>
        <time>2018-12-24T10:50:37.000Z</time>
      </trkpt>
      <trkpt lat="45.4509" lon="4.73773">
        <ele>272.20001220703</ele>
        <time>2018-12-24T10:50:38.000Z</time>
      </trkpt>
      <trkpt lat="45.45076" lon="4.7378">
        <ele>272.60000610352</ele>
        <time>2018-12-24T10:50:44.000Z</time>
      </trkpt>
      <trkpt lat="45.45067" lon="4.73785">
        <ele>273.20001220703</ele>
        <time>2018-12-24T10:50:48.000Z</time>
      </trkpt>
      <trkpt lat="45.45065" lon="4.73786">
        <ele>273.20001220703</ele>
        <time>2018-12-24T10:50:49.000Z</time>
      </trkpt>
      <trkpt lat="45.45059" lon="4.73785">
        <ele>273.20001220703</ele>
        <time>2018-12-24T10:50:52.000Z</time>
      </trkpt>
      <trkpt lat="45.45057" lon="4.73782">
        <ele>273.39999389648</ele>
        <time>2018-12-24T10:50:54.000Z</time>
      </trkpt>
      <trkpt lat="45.45052" lon="4.73772">
        <ele>274.20001220703</ele>
        <time>2018-12-24T10:50:58.000Z</time>
      </trkpt>
      <trkpt lat="45.45051" lon="4.7377">
        <ele>274.20001220703</ele>
        <time>2018-12-24T10:50:59.000Z</time>
      </trkpt>
      <trkpt lat="45.45043" lon="4.73763">
        <ele>274.79998779297</ele>
        <time>2018-12-24T10:51:03.000Z</time>
      </trkpt>
      <trkpt lat="45.45041" lon="4.73764">
        <ele>275.20001220703</ele>
        <time>2018-12-24T10:51:04.000Z</time>
      </trkpt>
      <trkpt lat="45.45037" lon="4.7377">
        <ele>276.39999389648</ele>
        <time>2018-12-24T10:51:07.000Z</time>
      </trkpt>
      <trkpt lat="45.45036" lon="4.73773">
        <ele>276.60000610352</ele>
        <time>2018-12-24T10:51:08.000Z</time>
      </trkpt>
      <trkpt lat="45.45035" lon="4.73776">
        <ele>276.60000610352</ele>
        <time>2018-12-24T10:51:09.000Z</time>
      </trkpt>
      <trkpt lat="45.45037" lon="4.73786">
        <ele>276.60000610352</ele>
        <time>2018-12-24T10:51:12.000Z</time>
      </trkpt>
      <trkpt lat="45.4504" lon="4.7381">
        <ele>275</ele>
        <time>2018-12-24T10:51:18.000Z</time>
      </trkpt>
      <trkpt lat="45.4504" lon="4.73814">
        <ele>274.60000610352</ele>
        <time>2018-12-24T10:51:19.000Z</time>
      </trkpt>
      <trkpt lat="45.45041" lon="4.73823">
        <ele>274</ele>
        <time>2018-12-24T10:51:21.000Z</time>
      </trkpt>
      <trkpt lat="45.45041" lon="4.73839">
        <ele>273.79998779297</ele>
        <time>2018-12-24T10:51:25.000Z</time>
      </trkpt>
      <trkpt lat="45.45042" lon="4.73857">
        <ele>274</ele>
        <time>2018-12-24T10:51:30.000Z</time>
      </trkpt>
      <trkpt lat="45.45042" lon="4.73876">
        <ele>273.60000610352</ele>
        <time>2018-12-24T10:51:35.000Z</time>
      </trkpt>
      <trkpt lat="45.45042" lon="4.7388">
        <ele>273.39999389648</ele>
        <time>2018-12-24T10:51:36.000Z</time>
      </trkpt>
      <trkpt lat="45.45042" lon="4.73888">
        <ele>272.60000610352</ele>
        <time>2018-12-24T10:51:38.000Z</time>
      </trkpt>
      <trkpt lat="45.45042" lon="4.73901">
        <ele>272.20001220703</ele>
        <time>2018-12-24T10:51:41.000Z</time>
      </trkpt>
      <trkpt lat="45.45046" lon="4.73926">
        <ele>271.39999389648</ele>
        <time>2018-12-24T10:51:47.000Z</time>
      </trkpt>
      <trkpt lat="45.45051" lon="4.73954">
        <ele>270.79998779297</ele>
        <time>2018-12-24T10:51:54.000Z</time>
      </trkpt>
      <trkpt lat="45.45055" lon="4.73979">
        <ele>271</ele>
        <time>2018-12-24T10:52:00.000Z</time>
      </trkpt>
      <trkpt lat="45.45056" lon="4.73987">
        <ele>270.60000610352</ele>
        <time>2018-12-24T10:52:02.000Z</time>
      </trkpt>
      <trkpt lat="45.45057" lon="4.73991">
        <ele>270</ele>
        <time>2018-12-24T10:52:03.000Z</time>
      </trkpt>
      <trkpt lat="45.45058" lon="4.74016">
        <ele>269</ele>
        <time>2018-12-24T10:52:09.000Z</time>
      </trkpt>
      <trkpt lat="45.45059" lon="4.74045">
        <ele>268.60000610352</ele>
        <time>2018-12-24T10:52:16.000Z</time>
      </trkpt>
      <trkpt lat="45.45058" lon="4.7407">
        <ele>268</ele>
        <time>2018-12-24T10:52:22.000Z</time>
      </trkpt>
      <trkpt lat="45.45058" lon="4.74074">
        <ele>267.79998779297</ele>
        <time>2018-12-24T10:52:23.000Z</time>
      </trkpt>
      <trkpt lat="45.45059" lon="4.74099">
        <ele>267.39999389648</ele>
        <time>2018-12-24T10:52:29.000Z</time>
      </trkpt>
      <trkpt lat="45.45061" lon="4.74127">
        <ele>267.20001220703</ele>
        <time>2018-12-24T10:52:36.000Z</time>
      </trkpt>
      <trkpt lat="45.45062" lon="4.74131">
        <ele>267</ele>
        <time>2018-12-24T10:52:37.000Z</time>
      </trkpt>
      <trkpt lat="45.45072" lon="4.74153">
        <ele>266.79998779297</ele>
        <time>2018-12-24T10:52:44.000Z</time>
      </trkpt>
      <trkpt lat="45.45084" lon="4.74169">
        <ele>266.60000610352</ele>
        <time>2018-12-24T10:52:50.000Z</time>
      </trkpt>
      <trkpt lat="45.45091" lon="4.74178">
        <ele>266</ele>
        <time>2018-12-24T10:52:54.000Z</time>
      </trkpt>
      <trkpt lat="45.45094" lon="4.74182">
        <ele>265.39999389648</ele>
        <time>2018-12-24T10:52:56.000Z</time>
      </trkpt>
      <trkpt lat="45.45096" lon="4.74188">
        <ele>264.79998779297</ele>
        <time>2018-12-24T10:52:58.000Z</time>
      </trkpt>
      <trkpt lat="45.451" lon="4.74196">
        <ele>263.79998779297</ele>
        <time>2018-12-24T10:53:01.000Z</time>
      </trkpt>
      <trkpt lat="45.45104" lon="4.74204">
        <ele>262.60000610352</ele>
        <time>2018-12-24T10:53:04.000Z</time>
      </trkpt>
      <trkpt lat="45.45106" lon="4.74209">
        <ele>261.60000610352</ele>
        <time>2018-12-24T10:53:06.000Z</time>
      </trkpt>
      <trkpt lat="45.45111" lon="4.74216">
        <ele>260.20001220703</ele>
        <time>2018-12-24T10:53:09.000Z</time>
      </trkpt>
      <trkpt lat="45.45115" lon="4.7422">
        <ele>258.60000610352</ele>
        <time>2018-12-24T10:53:11.000Z</time>
      </trkpt>
      <trkpt lat="45.45119" lon="4.74225">
        <ele>257.60000610352</ele>
        <time>2018-12-24T10:53:13.000Z</time>
      </trkpt>
      <trkpt lat="45.45125" lon="4.74231">
        <ele>256.39999389648</ele>
        <time>2018-12-24T10:53:16.000Z</time>
      </trkpt>
      <trkpt lat="45.45131" lon="4.74235">
        <ele>255.19999694824</ele>
        <time>2018-12-24T10:53:18.000Z</time>
      </trkpt>
      <trkpt lat="45.45135" lon="4.7424">
        <ele>253.80000305176</ele>
        <time>2018-12-24T10:53:20.000Z</time>
      </trkpt>
      <trkpt lat="45.4514" lon="4.74246">
        <ele>252.60000610352</ele>
        <time>2018-12-24T10:53:22.000Z</time>
      </trkpt>
      <trkpt lat="45.45141" lon="4.74248">
        <ele>252.19999694824</ele>
        <time>2018-12-24T10:53:23.000Z</time>
      </trkpt>
      <trkpt lat="45.45142" lon="4.74258">
        <ele>251.60000610352</ele>
        <time>2018-12-24T10:53:26.000Z</time>
      </trkpt>
      <trkpt lat="45.45142" lon="4.74265">
        <ele>250.80000305176</ele>
        <time>2018-12-24T10:53:28.000Z</time>
      </trkpt>
      <trkpt lat="45.45141" lon="4.74269">
        <ele>250.39999389648</ele>
        <time>2018-12-24T10:53:29.000Z</time>
      </trkpt>
      <trkpt lat="45.4514" lon="4.74275">
        <ele>248.80000305176</ele>
        <time>2018-12-24T10:53:31.000Z</time>
      </trkpt>
      <trkpt lat="45.45139" lon="4.7428">
        <ele>247.19999694824</ele>
        <time>2018-12-24T10:53:33.000Z</time>
      </trkpt>
      <trkpt lat="45.45139" lon="4.74285">
        <ele>246</ele>
        <time>2018-12-24T10:53:35.000Z</time>
      </trkpt>
      <trkpt lat="45.45139" lon="4.74295">
        <ele>244.80000305176</ele>
        <time>2018-12-24T10:53:38.000Z</time>
      </trkpt>
      <trkpt lat="45.4514" lon="4.74299">
        <ele>244.19999694824</ele>
        <time>2018-12-24T10:53:39.000Z</time>
      </trkpt>
      <trkpt lat="45.4514" lon="4.74305">
        <ele>243.39999389648</ele>
        <time>2018-12-24T10:53:41.000Z</time>
      </trkpt>
      <trkpt lat="45.45141" lon="4.74316">
        <ele>242.19999694824</ele>
        <time>2018-12-24T10:53:44.000Z</time>
      </trkpt>
      <trkpt lat="45.45141" lon="4.74322">
        <ele>241</ele>
        <time>2018-12-24T10:53:46.000Z</time>
      </trkpt>
      <trkpt lat="45.45137" lon="4.74336">
        <ele>240</ele>
        <time>2018-12-24T10:53:49.000Z</time>
      </trkpt>
      <trkpt lat="45.45135" lon="4.74339">
        <ele>239.60000610352</ele>
        <time>2018-12-24T10:53:50.000Z</time>
      </trkpt>
      <trkpt lat="45.45129" lon="4.74355">
        <ele>239</ele>
        <time>2018-12-24T10:53:54.000Z</time>
      </trkpt>
      <trkpt lat="45.45125" lon="4.74367">
        <ele>238.60000610352</ele>
        <time>2018-12-24T10:53:57.000Z</time>
      </trkpt>
      <trkpt lat="45.45124" lon="4.74376">
        <ele>238.19999694824</ele>
        <time>2018-12-24T10:53:59.000Z</time>
      </trkpt>
      <trkpt lat="45.45123" lon="4.74393">
        <ele>237.39999389648</ele>
        <time>2018-12-24T10:54:03.000Z</time>
      </trkpt>
      <trkpt lat="45.45123" lon="4.74396">
        <ele>237</ele>
        <time>2018-12-24T10:54:04.000Z</time>
      </trkpt>
      <trkpt lat="45.45124" lon="4.74413">
        <ele>236.19999694824</ele>
        <time>2018-12-24T10:54:08.000Z</time>
      </trkpt>
      <trkpt lat="45.45126" lon="4.74417">
        <ele>235.80000305176</ele>
        <time>2018-12-24T10:54:09.000Z</time>
      </trkpt>
      <trkpt lat="45.45129" lon="4.74431">
        <ele>235</ele>
        <time>2018-12-24T10:54:12.000Z</time>
      </trkpt>
      <trkpt lat="45.45134" lon="4.74443">
        <ele>234.39999389648</ele>
        <time>2018-12-24T10:54:15.000Z</time>
      </trkpt>
      <trkpt lat="45.45139" lon="4.74454">
        <ele>233.80000305176</ele>
        <time>2018-12-24T10:54:18.000Z</time>
      </trkpt>
      <trkpt lat="45.45144" lon="4.74465">
        <ele>233.39999389648</ele>
        <time>2018-12-24T10:54:21.000Z</time>
      </trkpt>
      <trkpt lat="45.4515" lon="4.74476">
        <ele>232.80000305176</ele>
        <time>2018-12-24T10:54:24.000Z</time>
      </trkpt>
      <trkpt lat="45.45156" lon="4.74485">
        <ele>232.39999389648</ele>
        <time>2018-12-24T10:54:27.000Z</time>
      </trkpt>
      <trkpt lat="45.45169" lon="4.745">
        <ele>231.60000610352</ele>
        <time>2018-12-24T10:54:33.000Z</time>
      </trkpt>
      <trkpt lat="45.45172" lon="4.74503">
        <ele>231.19999694824</ele>
        <time>2018-12-24T10:54:34.000Z</time>
      </trkpt>
      <trkpt lat="45.45178" lon="4.74507">
        <ele>230.39999389648</ele>
        <time>2018-12-24T10:54:37.000Z</time>
      </trkpt>
      <trkpt lat="45.45181" lon="4.74512">
        <ele>230</ele>
        <time>2018-12-24T10:54:39.000Z</time>
      </trkpt>
      <trkpt lat="45.45183" lon="4.74515">
        <ele>230</ele>
        <time>2018-12-24T10:54:41.000Z</time>
      </trkpt>
      <trkpt lat="45.45182" lon="4.74519">
        <ele>230.60000610352</ele>
        <time>2018-12-24T10:54:43.000Z</time>
      </trkpt>
      <trkpt lat="45.45181" lon="4.74533">
        <ele>231.60000610352</ele>
        <time>2018-12-24T10:54:47.000Z</time>
      </trkpt>
      <trkpt lat="45.45179" lon="4.74542">
        <ele>231.80000305176</ele>
        <time>2018-12-24T10:54:49.000Z</time>
      </trkpt>
      <trkpt lat="45.45177" lon="4.74562">
        <ele>230.80000305176</ele>
        <time>2018-12-24T10:54:55.000Z</time>
      </trkpt>
      <trkpt lat="45.45176" lon="4.74565">
        <ele>230.39999389648</ele>
        <time>2018-12-24T10:54:56.000Z</time>
      </trkpt>
      <trkpt lat="45.45174" lon="4.74578">
        <ele>229.80000305176</ele>
        <time>2018-12-24T10:55:00.000Z</time>
      </trkpt>
      <trkpt lat="45.45174" lon="4.74585">
        <ele>229</ele>
        <time>2018-12-24T10:55:02.000Z</time>
      </trkpt>
      <trkpt lat="45.45177" lon="4.74597">
        <ele>228.19999694824</ele>
        <time>2018-12-24T10:55:05.000Z</time>
      </trkpt>
      <trkpt lat="45.45179" lon="4.746">
        <ele>227.80000305176</ele>
        <time>2018-12-24T10:55:06.000Z</time>
      </trkpt>
      <trkpt lat="45.45184" lon="4.74608">
        <ele>226.60000610352</ele>
        <time>2018-12-24T10:55:09.000Z</time>
      </trkpt>
      <trkpt lat="45.45187" lon="4.74613">
        <ele>226</ele>
        <time>2018-12-24T10:55:11.000Z</time>
      </trkpt>
      <trkpt lat="45.45188" lon="4.74618">
        <ele>225.19999694824</ele>
        <time>2018-12-24T10:55:13.000Z</time>
      </trkpt>
      <trkpt lat="45.45191" lon="4.74627">
        <ele>224.19999694824</ele>
        <time>2018-12-24T10:55:16.000Z</time>
      </trkpt>
      <trkpt lat="45.45191" lon="4.7463">
        <ele>224</ele>
        <time>2018-12-24T10:55:17.000Z</time>
      </trkpt>
      <trkpt lat="45.4519" lon="4.74642">
        <ele>222.60000610352</ele>
        <time>2018-12-24T10:55:20.000Z</time>
      </trkpt>
      <trkpt lat="45.45189" lon="4.74651">
        <ele>221.60000610352</ele>
        <time>2018-12-24T10:55:22.000Z</time>
      </trkpt>
      <trkpt lat="45.45185" lon="4.74668">
        <ele>220.60000610352</ele>
        <time>2018-12-24T10:55:26.000Z</time>
      </trkpt>
      <trkpt lat="45.45182" lon="4.74676">
        <ele>220</ele>
        <time>2018-12-24T10:55:28.000Z</time>
      </trkpt>
      <trkpt lat="45.4518" lon="4.7468">
        <ele>219.60000610352</ele>
        <time>2018-12-24T10:55:29.000Z</time>
      </trkpt>
      <trkpt lat="45.45176" lon="4.74692">
        <ele>218.39999389648</ele>
        <time>2018-12-24T10:55:32.000Z</time>
      </trkpt>
      <trkpt lat="45.45174" lon="4.74699">
        <ele>218.19999694824</ele>
        <time>2018-12-24T10:55:34.000Z</time>
      </trkpt>
      <trkpt lat="45.45173" lon="4.74716">
        <ele>217.39999389648</ele>
        <time>2018-12-24T10:55:38.000Z</time>
      </trkpt>
      <trkpt lat="45.45172" lon="4.74727">
        <ele>216.19999694824</ele>
        <time>2018-12-24T10:55:41.000Z</time>
      </trkpt>
      <trkpt lat="45.45173" lon="4.74736">
        <ele>215.19999694824</ele>
        <time>2018-12-24T10:55:43.000Z</time>
      </trkpt>
      <trkpt lat="45.45174" lon="4.74749">
        <ele>214.19999694824</ele>
        <time>2018-12-24T10:55:46.000Z</time>
      </trkpt>
      <trkpt lat="45.45175" lon="4.74753">
        <ele>214.19999694824</ele>
        <time>2018-12-24T10:55:47.000Z</time>
      </trkpt>
      <trkpt lat="45.45178" lon="4.74772">
        <ele>213</ele>
        <time>2018-12-24T10:55:52.000Z</time>
      </trkpt>
      <trkpt lat="45.45181" lon="4.74789">
        <ele>212.19999694824</ele>
        <time>2018-12-24T10:55:57.000Z</time>
      </trkpt>
      <trkpt lat="45.45182" lon="4.74794">
        <ele>212</ele>
        <time>2018-12-24T10:55:59.000Z</time>
      </trkpt>
      <trkpt lat="45.45185" lon="4.74799">
        <ele>212</ele>
        <time>2018-12-24T10:56:01.000Z</time>
      </trkpt>
      <trkpt lat="45.45185" lon="4.74803">
        <ele>212</ele>
        <time>2018-12-24T10:56:02.000Z</time>
      </trkpt>
      <trkpt lat="45.45188" lon="4.7482">
        <ele>211.60000610352</ele>
        <time>2018-12-24T10:56:07.000Z</time>
      </trkpt>
      <trkpt lat="45.45191" lon="4.74836">
        <ele>211.80000305176</ele>
        <time>2018-12-24T10:56:11.000Z</time>
      </trkpt>
      <trkpt lat="45.45193" lon="4.74856">
        <ele>211.60000610352</ele>
        <time>2018-12-24T10:56:16.000Z</time>
      </trkpt>
      <trkpt lat="45.45194" lon="4.74863">
        <ele>211.60000610352</ele>
        <time>2018-12-24T10:56:18.000Z</time>
      </trkpt>
      <trkpt lat="45.45196" lon="4.7487">
        <ele>211.39999389648</ele>
        <time>2018-12-24T10:56:20.000Z</time>
      </trkpt>
      <trkpt lat="45.45194" lon="4.74883">
        <ele>211.60000610352</ele>
        <time>2018-12-24T10:56:23.000Z</time>
      </trkpt>
      <trkpt lat="45.45191" lon="4.74891">
        <ele>211.80000305176</ele>
        <time>2018-12-24T10:56:25.000Z</time>
      </trkpt>
      <trkpt lat="45.45184" lon="4.74903">
        <ele>212.60000610352</ele>
        <time>2018-12-24T10:56:30.000Z</time>
      </trkpt>
      <trkpt lat="45.45176" lon="4.74914">
        <ele>211.19999694824</ele>
        <time>2018-12-24T10:56:35.000Z</time>
      </trkpt>
      <trkpt lat="45.45174" lon="4.74916">
        <ele>210.60000610352</ele>
        <time>2018-12-24T10:56:36.000Z</time>
      </trkpt>
      <trkpt lat="45.45171" lon="4.74921">
        <ele>209</ele>
        <time>2018-12-24T10:56:38.000Z</time>
      </trkpt>
      <trkpt lat="45.45167" lon="4.74927">
        <ele>207.60000610352</ele>
        <time>2018-12-24T10:56:40.000Z</time>
      </trkpt>
      <trkpt lat="45.45164" lon="4.7493">
        <ele>207</ele>
        <time>2018-12-24T10:56:41.000Z</time>
      </trkpt>
      <trkpt lat="45.45161" lon="4.74931">
        <ele>206.39999389648</ele>
        <time>2018-12-24T10:56:42.000Z</time>
      </trkpt>
      <trkpt lat="45.45156" lon="4.74936">
        <ele>205.19999694824</ele>
        <time>2018-12-24T10:56:45.000Z</time>
      </trkpt>
      <trkpt lat="45.45153" lon="4.74943">
        <ele>204.19999694824</ele>
        <time>2018-12-24T10:56:49.000Z</time>
      </trkpt>
      <trkpt lat="45.45154" lon="4.74943">
        <ele>204</ele>
        <time>2018-12-24T10:56:50.000Z</time>
      </trkpt>
      <trkpt lat="45.45157" lon="4.74945">
        <ele>203.80000305176</ele>
        <time>2018-12-24T10:56:52.000Z</time>
      </trkpt>
      <trkpt lat="45.45159" lon="4.74951">
        <ele>203.19999694824</ele>
        <time>2018-12-24T10:56:54.000Z</time>
      </trkpt>
      <trkpt lat="45.4516" lon="4.74955">
        <ele>202.60000610352</ele>
        <time>2018-12-24T10:56:55.000Z</time>
      </trkpt>
      <trkpt lat="45.45162" lon="4.74962">
        <ele>201.39999389648</ele>
        <time>2018-12-24T10:56:57.000Z</time>
      </trkpt>
      <trkpt lat="45.45165" lon="4.74968">
        <ele>200.39999389648</ele>
        <time>2018-12-24T10:56:59.000Z</time>
      </trkpt>
      <trkpt lat="45.45167" lon="4.74973">
        <ele>199</ele>
        <time>2018-12-24T10:57:01.000Z</time>
      </trkpt>
      <trkpt lat="45.4517" lon="4.74978">
        <ele>197.80000305176</ele>
        <time>2018-12-24T10:57:03.000Z</time>
      </trkpt>
      <trkpt lat="45.45174" lon="4.74981">
        <ele>197</ele>
        <time>2018-12-24T10:57:05.000Z</time>
      </trkpt>
      <trkpt lat="45.45176" lon="4.74981">
        <ele>196.19999694824</ele>
        <time>2018-12-24T10:57:06.000Z</time>
      </trkpt>
      <trkpt lat="45.45178" lon="4.74982">
        <ele>195.80000305176</ele>
        <time>2018-12-24T10:57:07.000Z</time>
      </trkpt>
      <trkpt lat="45.45182" lon="4.74987">
        <ele>195.19999694824</ele>
        <time>2018-12-24T10:57:09.000Z</time>
      </trkpt>
      <trkpt lat="45.45183" lon="4.7499">
        <ele>194.80000305176</ele>
        <time>2018-12-24T10:57:10.000Z</time>
      </trkpt>
      <trkpt lat="45.45184" lon="4.74996">
        <ele>193.80000305176</ele>
        <time>2018-12-24T10:57:12.000Z</time>
      </trkpt>
      <trkpt lat="45.45186" lon="4.75003">
        <ele>193</ele>
        <time>2018-12-24T10:57:14.000Z</time>
      </trkpt>
      <trkpt lat="45.45188" lon="4.75005">
        <ele>192.60000610352</ele>
        <time>2018-12-24T10:57:15.000Z</time>
      </trkpt>
      <trkpt lat="45.45194" lon="4.7502">
        <ele>191.39999389648</ele>
        <time>2018-12-24T10:57:19.000Z</time>
      </trkpt>
      <trkpt lat="45.45197" lon="4.75032">
        <ele>190.80000305176</ele>
        <time>2018-12-24T10:57:22.000Z</time>
      </trkpt>
      <trkpt lat="45.45199" lon="4.75039">
        <ele>189.80000305176</ele>
        <time>2018-12-24T10:57:24.000Z</time>
      </trkpt>
      <trkpt lat="45.452" lon="4.75049">
        <ele>188.60000610352</ele>
        <time>2018-12-24T10:57:27.000Z</time>
      </trkpt>
      <trkpt lat="45.45201" lon="4.75057">
        <ele>187.80000305176</ele>
        <time>2018-12-24T10:57:29.000Z</time>
      </trkpt>
      <trkpt lat="45.45201" lon="4.7506">
        <ele>187.60000610352</ele>
        <time>2018-12-24T10:57:30.000Z</time>
      </trkpt>
      <trkpt lat="45.45202" lon="4.75072">
        <ele>186.19999694824</ele>
        <time>2018-12-24T10:57:33.000Z</time>
      </trkpt>
      <trkpt lat="45.45201" lon="4.75078">
        <ele>185</ele>
        <time>2018-12-24T10:57:35.000Z</time>
      </trkpt>
      <trkpt lat="45.452" lon="4.75084">
        <ele>183.80000305176</ele>
        <time>2018-12-24T10:57:37.000Z</time>
      </trkpt>
      <trkpt lat="45.45198" lon="4.75095">
        <ele>182.80000305176</ele>
        <time>2018-12-24T10:57:40.000Z</time>
      </trkpt>
      <trkpt lat="45.45198" lon="4.75104">
        <ele>181.39999389648</ele>
        <time>2018-12-24T10:57:43.000Z</time>
      </trkpt>
      <trkpt lat="45.45197" lon="4.75111">
        <ele>180</ele>
        <time>2018-12-24T10:57:45.000Z</time>
      </trkpt>
      <trkpt lat="45.45196" lon="4.75118">
        <ele>178.60000610352</ele>
        <time>2018-12-24T10:57:47.000Z</time>
      </trkpt>
      <trkpt lat="45.45194" lon="4.75127">
        <ele>177.19999694824</ele>
        <time>2018-12-24T10:57:50.000Z</time>
      </trkpt>
      <trkpt lat="45.45192" lon="4.75133">
        <ele>176</ele>
        <time>2018-12-24T10:57:52.000Z</time>
      </trkpt>
      <trkpt lat="45.45189" lon="4.75144">
        <ele>174.80000305176</ele>
        <time>2018-12-24T10:57:55.000Z</time>
      </trkpt>
      <trkpt lat="45.45185" lon="4.7515">
        <ele>173.39999389648</ele>
        <time>2018-12-24T10:57:57.000Z</time>
      </trkpt>
      <trkpt lat="45.45179" lon="4.75155">
        <ele>172</ele>
        <time>2018-12-24T10:57:59.000Z</time>
      </trkpt>
      <trkpt lat="45.45172" lon="4.75158">
        <ele>170.39999389648</ele>
        <time>2018-12-24T10:58:02.000Z</time>
      </trkpt>
      <trkpt lat="45.45164" lon="4.75161">
        <ele>169.19999694824</ele>
        <time>2018-12-24T10:58:05.000Z</time>
      </trkpt>
      <trkpt lat="45.45162" lon="4.75161">
        <ele>168.60000610352</ele>
        <time>2018-12-24T10:58:06.000Z</time>
      </trkpt>
      <trkpt lat="45.45159" lon="4.75163">
        <ele>168</ele>
        <time>2018-12-24T10:58:07.000Z</time>
      </trkpt>
      <trkpt lat="45.45158" lon="4.75165">
        <ele>167.39999389648</ele>
        <time>2018-12-24T10:58:08.000Z</time>
      </trkpt>
      <trkpt lat="45.45156" lon="4.75167">
        <ele>166.80000305176</ele>
        <time>2018-12-24T10:58:09.000Z</time>
      </trkpt>
      <trkpt lat="45.45155" lon="4.75169">
        <ele>166.39999389648</ele>
        <time>2018-12-24T10:58:10.000Z</time>
      </trkpt>
      <trkpt lat="45.45154" lon="4.7517">
        <ele>165.60000610352</ele>
        <time>2018-12-24T10:58:11.000Z</time>
      </trkpt>
      <trkpt lat="45.45153" lon="4.75173">
        <ele>165</ele>
        <time>2018-12-24T10:58:12.000Z</time>
      </trkpt>
      <trkpt lat="45.45153" lon="4.75176">
        <ele>164.60000610352</ele>
        <time>2018-12-24T10:58:13.000Z</time>
      </trkpt>
      <trkpt lat="45.45153" lon="4.75178">
        <ele>164.19999694824</ele>
        <time>2018-12-24T10:58:14.000Z</time>
      </trkpt>
      <trkpt lat="45.45155" lon="4.75184">
        <ele>163.39999389648</ele>
        <time>2018-12-24T10:58:16.000Z</time>
      </trkpt>
      <trkpt lat="45.45158" lon="4.75191">
        <ele>162.60000610352</ele>
        <time>2018-12-24T10:58:19.000Z</time>
      </trkpt>
      <trkpt lat="45.45159" lon="4.75194">
        <ele>162.19999694824</ele>
        <time>2018-12-24T10:58:20.000Z</time>
      </trkpt>
      <trkpt lat="45.45168" lon="4.75199">
        <ele>160.80000305176</ele>
        <time>2018-12-24T10:58:24.000Z</time>
      </trkpt>
      <trkpt lat="45.45173" lon="4.75198">
        <ele>159.60000610352</ele>
        <time>2018-12-24T10:58:26.000Z</time>
      </trkpt>
      <trkpt lat="45.45178" lon="4.75197">
        <ele>158.39999389648</ele>
        <time>2018-12-24T10:58:29.000Z</time>
      </trkpt>
      <trkpt lat="45.45179" lon="4.75196">
        <ele>158</ele>
        <time>2018-12-24T10:58:30.000Z</time>
      </trkpt>
      <trkpt lat="45.4518" lon="4.75195">
        <ele>157.39999389648</ele>
        <time>2018-12-24T10:58:31.000Z</time>
      </trkpt>
      <trkpt lat="45.45185" lon="4.75194">
        <ele>156.19999694824</ele>
        <time>2018-12-24T10:58:34.000Z</time>
      </trkpt>
      <trkpt lat="45.45186" lon="4.75193">
        <ele>155.80000305176</ele>
        <time>2018-12-24T10:58:35.000Z</time>
      </trkpt>
      <trkpt lat="45.45188" lon="4.75192">
        <ele>155.19999694824</ele>
        <time>2018-12-24T10:58:36.000Z</time>
      </trkpt>
      <trkpt lat="45.45193" lon="4.75191">
        <ele>154.19999694824</ele>
        <time>2018-12-24T10:58:38.000Z</time>
      </trkpt>
      <trkpt lat="45.45197" lon="4.7519">
        <ele>153.19999694824</ele>
        <time>2018-12-24T10:58:40.000Z</time>
      </trkpt>
      <trkpt lat="45.45199" lon="4.75188">
        <ele>152.60000610352</ele>
        <time>2018-12-24T10:58:41.000Z</time>
      </trkpt>
      <trkpt lat="45.45203" lon="4.75186">
        <ele>151.60000610352</ele>
        <time>2018-12-24T10:58:43.000Z</time>
      </trkpt>
      <trkpt lat="45.45208" lon="4.75183">
        <ele>150.60000610352</ele>
        <time>2018-12-24T10:58:45.000Z</time>
      </trkpt>
      <trkpt lat="45.4521" lon="4.75181">
        <ele>150.19999694824</ele>
        <time>2018-12-24T10:58:46.000Z</time>
      </trkpt>
      <trkpt lat="45.45212" lon="4.75178">
        <ele>149.80000305176</ele>
        <time>2018-12-24T10:58:47.000Z</time>
      </trkpt>
      <trkpt lat="45.45212" lon="4.75176">
        <ele>149</ele>
        <time>2018-12-24T10:58:48.000Z</time>
      </trkpt>
      <trkpt lat="45.45213" lon="4.75174">
        <ele>148</ele>
        <time>2018-12-24T10:58:49.000Z</time>
      </trkpt>
      <trkpt lat="45.45215" lon="4.75172">
        <ele>146.80000305176</ele>
        <time>2018-12-24T10:58:50.000Z</time>
      </trkpt>
      <trkpt lat="45.45219" lon="4.7517">
        <ele>145.80000305176</ele>
        <time>2018-12-24T10:58:52.000Z</time>
      </trkpt>
      <trkpt lat="45.4522" lon="4.75169">
        <ele>145.39999389648</ele>
        <time>2018-12-24T10:58:53.000Z</time>
      </trkpt>
      <trkpt lat="45.45221" lon="4.75166">
        <ele>144.60000610352</ele>
        <time>2018-12-24T10:58:55.000Z</time>
      </trkpt>
      <trkpt lat="45.45221" lon="4.75165">
        <ele>144</ele>
        <time>2018-12-24T10:58:56.000Z</time>
      </trkpt>
      <trkpt lat="45.45222" lon="4.75164">
        <ele>143.39999389648</ele>
        <time>2018-12-24T10:58:57.000Z</time>
      </trkpt>
      <trkpt lat="45.45224" lon="4.75161">
        <ele>142.19999694824</ele>
        <time>2018-12-24T10:58:59.000Z</time>
      </trkpt>
      <trkpt lat="45.45226" lon="4.75159">
        <ele>141.60000610352</ele>
        <time>2018-12-24T10:59:00.000Z</time>
      </trkpt>
      <trkpt lat="45.45228" lon="4.75159">
        <ele>141</ele>
        <time>2018-12-24T10:59:01.000Z</time>
      </trkpt>
      <trkpt lat="45.45233" lon="4.75158">
        <ele>140</ele>
        <time>2018-12-24T10:59:04.000Z</time>
      </trkpt>
      <trkpt lat="45.45237" lon="4.75156">
        <ele>139.19999694824</ele>
        <time>2018-12-24T10:59:06.000Z</time>
      </trkpt>
      <trkpt lat="45.45239" lon="4.75156">
        <ele>138.39999389648</ele>
        <time>2018-12-24T10:59:07.000Z</time>
      </trkpt>
      <trkpt lat="45.45242" lon="4.75156">
        <ele>136.80000305176</ele>
        <time>2018-12-24T10:59:09.000Z</time>
      </trkpt>
      <trkpt lat="45.45246" lon="4.75158">
        <ele>136</ele>
        <time>2018-12-24T10:59:11.000Z</time>
      </trkpt>
      <trkpt lat="45.45248" lon="4.7516">
        <ele>135.60000610352</ele>
        <time>2018-12-24T10:59:12.000Z</time>
      </trkpt>
      <trkpt lat="45.45252" lon="4.75162">
        <ele>134.60000610352</ele>
        <time>2018-12-24T10:59:14.000Z</time>
      </trkpt>
      <trkpt lat="45.45257" lon="4.75165">
        <ele>133.60000610352</ele>
        <time>2018-12-24T10:59:16.000Z</time>
      </trkpt>
      <trkpt lat="45.45262" lon="4.75167">
        <ele>132.60000610352</ele>
        <time>2018-12-24T10:59:18.000Z</time>
      </trkpt>
      <trkpt lat="45.45266" lon="4.75174">
        <ele>131.19999694824</ele>
        <time>2018-12-24T10:59:21.000Z</time>
      </trkpt>
      <trkpt lat="45.45267" lon="4.75177">
        <ele>130.60000610352</ele>
        <time>2018-12-24T10:59:22.000Z</time>
      </trkpt>
      <trkpt lat="45.45268" lon="4.75184">
        <ele>129.80000305176</ele>
        <time>2018-12-24T10:59:24.000Z</time>
      </trkpt>
      <trkpt lat="45.4527" lon="4.75195">
        <ele>128.39999389648</ele>
        <time>2018-12-24T10:59:27.000Z</time>
      </trkpt>
      <trkpt lat="45.45271" lon="4.75198">
        <ele>128</ele>
        <time>2018-12-24T10:59:28.000Z</time>
      </trkpt>
      <trkpt lat="45.45271" lon="4.75203">
        <ele>127.19999694824</ele>
        <time>2018-12-24T10:59:30.000Z</time>
      </trkpt>
      <trkpt lat="45.4527" lon="4.75205">
        <ele>127</ele>
        <time>2018-12-24T10:59:31.000Z</time>
      </trkpt>
      <trkpt lat="45.45268" lon="4.75209">
        <ele>126.19999694824</ele>
        <time>2018-12-24T10:59:33.000Z</time>
      </trkpt>
      <trkpt lat="45.45267" lon="4.75211">
        <ele>125.80000305176</ele>
        <time>2018-12-24T10:59:34.000Z</time>
      </trkpt>
      <trkpt lat="45.45267" lon="4.75216">
        <ele>125.19999694824</ele>
        <time>2018-12-24T10:59:36.000Z</time>
      </trkpt>
      <trkpt lat="45.45267" lon="4.75219">
        <ele>124.80000305176</ele>
        <time>2018-12-24T10:59:37.000Z</time>
      </trkpt>
      <trkpt lat="45.45267" lon="4.75225">
        <ele>123.80000305176</ele>
        <time>2018-12-24T10:59:39.000Z</time>
      </trkpt>
      <trkpt lat="45.45268" lon="4.75228">
        <ele>123.40000152588</ele>
        <time>2018-12-24T10:59:40.000Z</time>
      </trkpt>
      <trkpt lat="45.4527" lon="4.75231">
        <ele>123</ele>
        <time>2018-12-24T10:59:42.000Z</time>
      </trkpt>
      <trkpt lat="45.45272" lon="4.75231">
        <ele>122.59999847412</ele>
        <time>2018-12-24T10:59:43.000Z</time>
      </trkpt>
      <trkpt lat="45.45272" lon="4.75231">
        <ele>122</ele>
        <time>2018-12-24T10:59:44.000Z</time>
      </trkpt>
      <trkpt lat="45.45274" lon="4.75231">
        <ele>121.19999694824</ele>
        <time>2018-12-24T10:59:45.000Z</time>
      </trkpt>
      <trkpt lat="45.45275" lon="4.7523">
        <ele>120.40000152588</ele>
        <time>2018-12-24T10:59:46.000Z</time>
      </trkpt>
      <trkpt lat="45.45277" lon="4.75228">
        <ele>119.59999847412</ele>
        <time>2018-12-24T10:59:47.000Z</time>
      </trkpt>
      <trkpt lat="45.45278" lon="4.75226">
        <ele>119</ele>
        <time>2018-12-24T10:59:48.000Z</time>
      </trkpt>
      <trkpt lat="45.45283" lon="4.75221">
        <ele>118</ele>
        <time>2018-12-24T10:59:50.000Z</time>
      </trkpt>
      <trkpt lat="45.45288" lon="4.75217">
        <ele>116.40000152588</ele>
        <time>2018-12-24T10:59:52.000Z</time>
      </trkpt>
      <trkpt lat="45.45294" lon="4.75213">
        <ele>115</ele>
        <time>2018-12-24T10:59:54.000Z</time>
      </trkpt>
      <trkpt lat="45.45308" lon="4.75206">
        <ele>114</ele>
        <time>2018-12-24T10:59:58.000Z</time>
      </trkpt>
      <trkpt lat="45.45311" lon="4.75206">
        <ele>113.59999847412</ele>
        <time>2018-12-24T10:59:59.000Z</time>
      </trkpt>
      <trkpt lat="45.45317" lon="4.75205">
        <ele>112.40000152588</ele>
        <time>2018-12-24T11:00:01.000Z</time>
      </trkpt>
      <trkpt lat="45.45319" lon="4.75206">
        <ele>112</ele>
        <time>2018-12-24T11:00:02.000Z</time>
      </trkpt>
      <trkpt lat="45.45321" lon="4.75208">
        <ele>111.19999694824</ele>
        <time>2018-12-24T11:00:03.000Z</time>
      </trkpt>
      <trkpt lat="45.45321" lon="4.75213">
        <ele>110</ele>
        <time>2018-12-24T11:00:05.000Z</time>
      </trkpt>
      <trkpt lat="45.45321" lon="4.75216">
        <ele>109.59999847412</ele>
        <time>2018-12-24T11:00:06.000Z</time>
      </trkpt>
      <trkpt lat="45.4532" lon="4.75222">
        <ele>109</ele>
        <time>2018-12-24T11:00:08.000Z</time>
      </trkpt>
      <trkpt lat="45.4532" lon="4.7523">
        <ele>108</ele>
        <time>2018-12-24T11:00:11.000Z</time>
      </trkpt>
      <trkpt lat="45.4532" lon="4.75233">
        <ele>107.40000152588</ele>
        <time>2018-12-24T11:00:12.000Z</time>
      </trkpt>
      <trkpt lat="45.45323" lon="4.75239">
        <ele>106.59999847412</ele>
        <time>2018-12-24T11:00:14.000Z</time>
      </trkpt>
      <trkpt lat="45.45326" lon="4.75247">
        <ele>105.59999847412</ele>
        <time>2018-12-24T11:00:17.000Z</time>
      </trkpt>
      <trkpt lat="45.45328" lon="4.7525">
        <ele>105</ele>
        <time>2018-12-24T11:00:18.000Z</time>
      </trkpt>
      <trkpt lat="45.4533" lon="4.75253">
        <ele>104.40000152588</ele>
        <time>2018-12-24T11:00:19.000Z</time>
      </trkpt>
      <trkpt lat="45.45332" lon="4.75258">
        <ele>103.59999847412</ele>
        <time>2018-12-24T11:00:21.000Z</time>
      </trkpt>
      <trkpt lat="45.45332" lon="4.75261">
        <ele>103</ele>
        <time>2018-12-24T11:00:22.000Z</time>
      </trkpt>
      <trkpt lat="45.45332" lon="4.75264">
        <ele>102.40000152588</ele>
        <time>2018-12-24T11:00:23.000Z</time>
      </trkpt>
      <trkpt lat="45.45333" lon="4.75269">
        <ele>101.80000305176</ele>
        <time>2018-12-24T11:00:24.000Z</time>
      </trkpt>
      <trkpt lat="45.45334" lon="4.75275">
        <ele>101.19999694824</ele>
        <time>2018-12-24T11:00:26.000Z</time>
      </trkpt>
      <trkpt lat="45.45338" lon="4.75276">
        <ele>101</ele>
        <time>2018-12-24T11:00:28.000Z</time>
      </trkpt>
      <trkpt lat="45.45345" lon="4.75282">
        <ele>100.80000305176</ele>
        <time>2018-12-24T11:00:30.000Z</time>
      </trkpt>
      <trkpt lat="45.45351" lon="4.75293">
        <ele>99.599998474121</ele>
        <time>2018-12-24T11:00:33.000Z</time>
      </trkpt>
      <trkpt lat="45.45358" lon="4.75312">
        <ele>98.599998474121</ele>
        <time>2018-12-24T11:00:38.000Z</time>
      </trkpt>
      <trkpt lat="45.45358" lon="4.75316">
        <ele>98</ele>
        <time>2018-12-24T11:00:39.000Z</time>
      </trkpt>
      <trkpt lat="45.45359" lon="4.75319">
        <ele>97.599998474121</ele>
        <time>2018-12-24T11:00:40.000Z</time>
      </trkpt>
      <trkpt lat="45.4536" lon="4.75323">
        <ele>97.599998474121</ele>
        <time>2018-12-24T11:00:41.000Z</time>
      </trkpt>
      <trkpt lat="45.45363" lon="4.75329">
        <ele>97.199996948242</ele>
        <time>2018-12-24T11:00:43.000Z</time>
      </trkpt>
      <trkpt lat="45.45375" lon="4.75339">
        <ele>96.800003051758</ele>
        <time>2018-12-24T11:00:48.000Z</time>
      </trkpt>
      <trkpt lat="45.45375" lon="4.7534">
        <ele>97</ele>
        <time>2018-12-24T11:00:49.000Z</time>
      </trkpt>
      <trkpt lat="45.45379" lon="4.7534">
        <ele>96.599998474121</ele>
        <time>2018-12-24T11:00:51.000Z</time>
      </trkpt>
      <trkpt lat="45.45381" lon="4.75339">
        <ele>96.400001525879</ele>
        <time>2018-12-24T11:00:52.000Z</time>
      </trkpt>
      <trkpt lat="45.45392" lon="4.75334">
        <ele>96.199996948242</ele>
        <time>2018-12-24T11:00:57.000Z</time>
      </trkpt>
      <trkpt lat="45.45399" lon="4.7533">
        <ele>96.599998474121</ele>
        <time>2018-12-24T11:01:01.000Z</time>
      </trkpt>
      <trkpt lat="45.45405" lon="4.7533">
        <ele>96.400001525879</ele>
        <time>2018-12-24T11:01:04.000Z</time>
      </trkpt>
      <trkpt lat="45.45418" lon="4.75323">
        <ele>96</ele>
        <time>2018-12-24T11:01:09.000Z</time>
      </trkpt>
      <trkpt lat="45.45422" lon="4.75318">
        <ele>96</ele>
        <time>2018-12-24T11:01:10.000Z</time>
      </trkpt>
      <trkpt lat="45.45428" lon="4.75313">
        <ele>96</ele>
        <time>2018-12-24T11:01:12.000Z</time>
      </trkpt>
      <trkpt lat="45.45437" lon="4.75311">
        <ele>95.800003051758</ele>
        <time>2018-12-24T11:01:16.000Z</time>
      </trkpt>
      <trkpt lat="45.45439" lon="4.75311">
        <ele>96.199996948242</ele>
        <time>2018-12-24T11:01:17.000Z</time>
      </trkpt>
      <trkpt lat="45.45452" lon="4.7531">
        <ele>96.199996948242</ele>
        <time>2018-12-24T11:01:21.000Z</time>
      </trkpt>
      <trkpt lat="45.45467" lon="4.75313">
        <ele>96.199996948242</ele>
        <time>2018-12-24T11:01:26.000Z</time>
      </trkpt>
      <trkpt lat="45.4547" lon="4.75314">
        <ele>96</ele>
        <time>2018-12-24T11:01:27.000Z</time>
      </trkpt>
      <trkpt lat="45.45483" lon="4.75327">
        <ele>95.800003051758</ele>
        <time>2018-12-24T11:01:33.000Z</time>
      </trkpt>
      <trkpt lat="45.45497" lon="4.75343">
        <ele>96</ele>
        <time>2018-12-24T11:01:40.000Z</time>
      </trkpt>
      <trkpt lat="45.45508" lon="4.75361">
        <ele>95.800003051758</ele>
        <time>2018-12-24T11:01:46.000Z</time>
      </trkpt>
      <trkpt lat="45.45524" lon="4.7537">
        <ele>96.400001525879</ele>
        <time>2018-12-24T11:01:52.000Z</time>
      </trkpt>
      <trkpt lat="45.45539" lon="4.7538">
        <ele>96.800003051758</ele>
        <time>2018-12-24T11:01:58.000Z</time>
      </trkpt>
      <trkpt lat="45.45552" lon="4.7539">
        <ele>96.199996948242</ele>
        <time>2018-12-24T11:02:04.000Z</time>
      </trkpt>
      <trkpt lat="45.45565" lon="4.75403">
        <ele>96</ele>
        <time>2018-12-24T11:02:09.000Z</time>
      </trkpt>
      <trkpt lat="45.45568" lon="4.75408">
        <ele>96</ele>
        <time>2018-12-24T11:02:11.000Z</time>
      </trkpt>
      <trkpt lat="45.45571" lon="4.75415">
        <ele>96</ele>
        <time>2018-12-24T11:02:13.000Z</time>
      </trkpt>
      <trkpt lat="45.4558" lon="4.75428">
        <ele>96.400001525879</ele>
        <time>2018-12-24T11:02:18.000Z</time>
      </trkpt>
      <trkpt lat="45.45587" lon="4.75438">
        <ele>96.400001525879</ele>
        <time>2018-12-24T11:02:22.000Z</time>
      </trkpt>
      <trkpt lat="45.45588" lon="4.7544">
        <ele>96.599998474121</ele>
        <time>2018-12-24T11:02:23.000Z</time>
      </trkpt>
      <trkpt lat="45.45587" lon="4.75445">
        <ele>96.800003051758</ele>
        <time>2018-12-24T11:02:24.000Z</time>
      </trkpt>
      <trkpt lat="45.45586" lon="4.75452">
        <ele>96.800003051758</ele>
        <time>2018-12-24T11:02:26.000Z</time>
      </trkpt>
      <trkpt lat="45.45594" lon="4.75449">
        <ele>97.400001525879</ele>
        <time>2018-12-24T11:02:29.000Z</time>
      </trkpt>
      <trkpt lat="45.45602" lon="4.75454">
        <ele>97.400001525879</ele>
        <time>2018-12-24T11:02:31.000Z</time>
      </trkpt>
      <trkpt lat="45.45611" lon="4.75462">
        <ele>97</ele>
        <time>2018-12-24T11:02:34.000Z</time>
      </trkpt>
      <trkpt lat="45.45623" lon="4.7548">
        <ele>96.400001525879</ele>
        <time>2018-12-24T11:02:40.000Z</time>
      </trkpt>
      <trkpt lat="45.4562" lon="4.75494">
        <ele>96</ele>
        <time>2018-12-24T11:02:44.000Z</time>
      </trkpt>
      <trkpt lat="45.45613" lon="4.75506">
        <ele>95.199996948242</ele>
        <time>2018-12-24T11:02:49.000Z</time>
      </trkpt>
      <trkpt lat="45.45604" lon="4.75512">
        <ele>94.800003051758</ele>
        <time>2018-12-24T11:02:53.000Z</time>
      </trkpt>
      <trkpt lat="45.45597" lon="4.75524">
        <ele>94.599998474121</ele>
        <time>2018-12-24T11:02:57.000Z</time>
      </trkpt>
      <trkpt lat="45.45595" lon="4.75532">
        <ele>94.400001525879</ele>
        <time>2018-12-24T11:03:00.000Z</time>
      </trkpt>
      <trkpt lat="45.45596" lon="4.75535">
        <ele>94.599998474121</ele>
        <time>2018-12-24T11:03:01.000Z</time>
      </trkpt>
      <trkpt lat="45.45604" lon="4.75551">
        <ele>94</ele>
        <time>2018-12-24T11:03:06.000Z</time>
      </trkpt>
      <trkpt lat="45.45615" lon="4.75575">
        <ele>94.400001525879</ele>
        <time>2018-12-24T11:03:13.000Z</time>
      </trkpt>
      <trkpt lat="45.45623" lon="4.75595">
        <ele>94.400001525879</ele>
        <time>2018-12-24T11:03:19.000Z</time>
      </trkpt>
      <trkpt lat="45.45624" lon="4.75599">
        <ele>94.400001525879</ele>
        <time>2018-12-24T11:03:20.000Z</time>
      </trkpt>
      <trkpt lat="45.45629" lon="4.75618">
        <ele>94.599998474121</ele>
        <time>2018-12-24T11:03:25.000Z</time>
      </trkpt>
      <trkpt lat="45.45635" lon="4.75638">
        <ele>94.599998474121</ele>
        <time>2018-12-24T11:03:31.000Z</time>
      </trkpt>
      <trkpt lat="45.45638" lon="4.75646">
        <ele>95</ele>
        <time>2018-12-24T11:03:34.000Z</time>
      </trkpt>
      <trkpt lat="45.4564" lon="4.75651">
        <ele>95.199996948242</ele>
        <time>2018-12-24T11:03:36.000Z</time>
      </trkpt>
      <trkpt lat="45.4565" lon="4.75672">
        <ele>95</ele>
        <time>2018-12-24T11:03:42.000Z</time>
      </trkpt>
      <trkpt lat="45.4566" lon="4.75696">
        <ele>94</ele>
        <time>2018-12-24T11:03:48.000Z</time>
      </trkpt>
      <trkpt lat="45.45667" lon="4.75718">
        <ele>93.400001525879</ele>
        <time>2018-12-24T11:03:54.000Z</time>
      </trkpt>
      <trkpt lat="45.45673" lon="4.75734">
        <ele>93</ele>
        <time>2018-12-24T11:03:58.000Z</time>
      </trkpt>
      <trkpt lat="45.45674" lon="4.75738">
        <ele>92.800003051758</ele>
        <time>2018-12-24T11:03:59.000Z</time>
      </trkpt>
      <trkpt lat="45.45683" lon="4.75759">
        <ele>92.800003051758</ele>
        <time>2018-12-24T11:04:05.000Z</time>
      </trkpt>
      <trkpt lat="45.4569" lon="4.75783">
        <ele>93.199996948242</ele>
        <time>2018-12-24T11:04:12.000Z</time>
      </trkpt>
      <trkpt lat="45.45691" lon="4.75787">
        <ele>93.199996948242</ele>
        <time>2018-12-24T11:04:13.000Z</time>
      </trkpt>
      <trkpt lat="45.45694" lon="4.7581">
        <ele>93.199996948242</ele>
        <time>2018-12-24T11:04:19.000Z</time>
      </trkpt>
      <trkpt lat="45.45699" lon="4.75835">
        <ele>93.199996948242</ele>
        <time>2018-12-24T11:04:26.000Z</time>
      </trkpt>
      <trkpt lat="45.45703" lon="4.75853">
        <ele>92.400001525879</ele>
        <time>2018-12-24T11:04:31.000Z</time>
      </trkpt>
      <trkpt lat="45.4571" lon="4.75874">
        <ele>93.800003051758</ele>
        <time>2018-12-24T11:04:37.000Z</time>
      </trkpt>
      <trkpt lat="45.45712" lon="4.75897">
        <ele>93.599998474121</ele>
        <time>2018-12-24T11:04:43.000Z</time>
      </trkpt>
      <trkpt lat="45.45717" lon="4.75917">
        <ele>94.199996948242</ele>
        <time>2018-12-24T11:04:49.000Z</time>
      </trkpt>
      <trkpt lat="45.45723" lon="4.75938">
        <ele>94.199996948242</ele>
        <time>2018-12-24T11:04:55.000Z</time>
      </trkpt>
      <trkpt lat="45.45725" lon="4.75939">
        <ele>94.199996948242</ele>
        <time>2018-12-24T11:04:56.000Z</time>
      </trkpt>
      <trkpt lat="45.45736" lon="4.75952">
        <ele>94</ele>
        <time>2018-12-24T11:05:01.000Z</time>
      </trkpt>
      <trkpt lat="45.45747" lon="4.75965">
        <ele>94</ele>
        <time>2018-12-24T11:05:06.000Z</time>
      </trkpt>
      <trkpt lat="45.45752" lon="4.75979">
        <ele>94.599998474121</ele>
        <time>2018-12-24T11:05:11.000Z</time>
      </trkpt>
      <trkpt lat="45.45754" lon="4.75985">
        <ele>94.599998474121</ele>
        <time>2018-12-24T11:05:14.000Z</time>
      </trkpt>
      <trkpt lat="45.45755" lon="4.75987">
        <ele>94.599998474121</ele>
        <time>2018-12-24T11:05:15.000Z</time>
      </trkpt>
      <trkpt lat="45.45758" lon="4.75989">
        <ele>94.599998474121</ele>
        <time>2018-12-24T11:05:16.000Z</time>
      </trkpt>
      <trkpt lat="45.45763" lon="4.7599">
        <ele>94.800003051758</ele>
        <time>2018-12-24T11:05:18.000Z</time>
      </trkpt>
      <trkpt lat="45.45766" lon="4.75988">
        <ele>94.800003051758</ele>
        <time>2018-12-24T11:05:19.000Z</time>
      </trkpt>
      <trkpt lat="45.45778" lon="4.75983">
        <ele>95.599998474121</ele>
        <time>2018-12-24T11:05:23.000Z</time>
      </trkpt>
      <trkpt lat="45.45795" lon="4.75982">
        <ele>95.400001525879</ele>
        <time>2018-12-24T11:05:28.000Z</time>
      </trkpt>
      <trkpt lat="45.45814" lon="4.75985">
        <ele>95</ele>
        <time>2018-12-24T11:05:35.000Z</time>
      </trkpt>
      <trkpt lat="45.4582" lon="4.75983">
        <ele>95</ele>
        <time>2018-12-24T11:05:37.000Z</time>
      </trkpt>
      <trkpt lat="45.45824" lon="4.75985">
        <ele>95.400001525879</ele>
        <time>2018-12-24T11:05:39.000Z</time>
      </trkpt>
      <trkpt lat="45.45828" lon="4.75991">
        <ele>95.800003051758</ele>
        <time>2018-12-24T11:05:41.000Z</time>
      </trkpt>
      <trkpt lat="45.45834" lon="4.76002">
        <ele>96.400001525879</ele>
        <time>2018-12-24T11:05:44.000Z</time>
      </trkpt>
      <trkpt lat="45.45844" lon="4.76025">
        <ele>96.800003051758</ele>
        <time>2018-12-24T11:05:50.000Z</time>
      </trkpt>
      <trkpt lat="45.45845" lon="4.76029">
        <ele>96.800003051758</ele>
        <time>2018-12-24T11:05:51.000Z</time>
      </trkpt>
      <trkpt lat="45.45855" lon="4.7605">
        <ele>96.400001525879</ele>
        <time>2018-12-24T11:05:57.000Z</time>
      </trkpt>
      <trkpt lat="45.45857" lon="4.76053">
        <ele>96</ele>
        <time>2018-12-24T11:05:58.000Z</time>
      </trkpt>
      <trkpt lat="45.45866" lon="4.76074">
        <ele>96.199996948242</ele>
        <time>2018-12-24T11:06:04.000Z</time>
      </trkpt>
      <trkpt lat="45.4587" lon="4.76093">
        <ele>96</ele>
        <time>2018-12-24T11:06:09.000Z</time>
      </trkpt>
      <trkpt lat="45.45862" lon="4.7611">
        <ele>96.199996948242</ele>
        <time>2018-12-24T11:06:14.000Z</time>
      </trkpt>
      <trkpt lat="45.4585" lon="4.76131">
        <ele>95.400001525879</ele>
        <time>2018-12-24T11:06:20.000Z</time>
      </trkpt>
      <trkpt lat="45.45848" lon="4.76134">
        <ele>95.199996948242</ele>
        <time>2018-12-24T11:06:21.000Z</time>
      </trkpt>
      <trkpt lat="45.45835" lon="4.76155">
        <ele>94.800003051758</ele>
        <time>2018-12-24T11:06:28.000Z</time>
      </trkpt>
      <trkpt lat="45.45824" lon="4.76166">
        <ele>95</ele>
        <time>2018-12-24T11:06:33.000Z</time>
      </trkpt>
      <trkpt lat="45.45822" lon="4.76165">
        <ele>95</ele>
        <time>2018-12-24T11:06:34.000Z</time>
      </trkpt>
      <trkpt lat="45.45812" lon="4.76155">
        <ele>95</ele>
        <time>2018-12-24T11:06:39.000Z</time>
      </trkpt>
      <trkpt lat="45.45799" lon="4.76163">
        <ele>94.599998474121</ele>
        <time>2018-12-24T11:06:44.000Z</time>
      </trkpt>
      <trkpt lat="45.45795" lon="4.76169">
        <ele>94.800003051758</ele>
        <time>2018-12-24T11:06:47.000Z</time>
      </trkpt>
      <trkpt lat="45.45795" lon="4.76176">
        <ele>95</ele>
        <time>2018-12-24T11:06:49.000Z</time>
      </trkpt>
      <trkpt lat="45.45799" lon="4.76198">
        <ele>94.400001525879</ele>
        <time>2018-12-24T11:06:55.000Z</time>
      </trkpt>
      <trkpt lat="45.45803" lon="4.76222">
        <ele>94.599998474121</ele>
        <time>2018-12-24T11:07:01.000Z</time>
      </trkpt>
      <trkpt lat="45.45806" lon="4.76246">
        <ele>94.599998474121</ele>
        <time>2018-12-24T11:07:07.000Z</time>
      </trkpt>
      <trkpt lat="45.45808" lon="4.76268">
        <ele>94.599998474121</ele>
        <time>2018-12-24T11:07:12.000Z</time>
      </trkpt>
      <trkpt lat="45.45813" lon="4.76294">
        <ele>94.400001525879</ele>
        <time>2018-12-24T11:07:19.000Z</time>
      </trkpt>
      <trkpt lat="45.45817" lon="4.76323">
        <ele>94.800003051758</ele>
        <time>2018-12-24T11:07:26.000Z</time>
      </trkpt>
      <trkpt lat="45.45822" lon="4.76351">
        <ele>94.400001525879</ele>
        <time>2018-12-24T11:07:33.000Z</time>
      </trkpt>
      <trkpt lat="45.45823" lon="4.76376">
        <ele>94.800003051758</ele>
        <time>2018-12-24T11:07:39.000Z</time>
      </trkpt>
      <trkpt lat="45.45826" lon="4.76399">
        <ele>95</ele>
        <time>2018-12-24T11:07:45.000Z</time>
      </trkpt>
      <trkpt lat="45.45828" lon="4.76422">
        <ele>95.199996948242</ele>
        <time>2018-12-24T11:07:51.000Z</time>
      </trkpt>
      <trkpt lat="45.4583" lon="4.76446">
        <ele>95</ele>
        <time>2018-12-24T11:07:57.000Z</time>
      </trkpt>
      <trkpt lat="45.45831" lon="4.76462">
        <ele>95.199996948242</ele>
        <time>2018-12-24T11:08:01.000Z</time>
      </trkpt>
      <trkpt lat="45.45831" lon="4.76475">
        <ele>95.800003051758</ele>
        <time>2018-12-24T11:08:04.000Z</time>
      </trkpt>
      <trkpt lat="45.45832" lon="4.76491">
        <ele>96</ele>
        <time>2018-12-24T11:08:08.000Z</time>
      </trkpt>
      <trkpt lat="45.45833" lon="4.76498">
        <ele>95.800003051758</ele>
        <time>2018-12-24T11:08:10.000Z</time>
      </trkpt>
      <trkpt lat="45.45834" lon="4.76522">
        <ele>95.800003051758</ele>
        <time>2018-12-24T11:08:16.000Z</time>
      </trkpt>
      <trkpt lat="45.4583" lon="4.76547">
        <ele>95.400001525879</ele>
        <time>2018-12-24T11:08:22.000Z</time>
      </trkpt>
      <trkpt lat="45.45829" lon="4.76552">
        <ele>95.400001525879</ele>
        <time>2018-12-24T11:08:23.000Z</time>
      </trkpt>
      <trkpt lat="45.45826" lon="4.76574">
        <ele>94.800003051758</ele>
        <time>2018-12-24T11:08:29.000Z</time>
      </trkpt>
      <trkpt lat="45.4582" lon="4.766">
        <ele>94.599998474121</ele>
        <time>2018-12-24T11:08:36.000Z</time>
      </trkpt>
      <trkpt lat="45.45816" lon="4.76621">
        <ele>95</ele>
        <time>2018-12-24T11:08:41.000Z</time>
      </trkpt>
      <trkpt lat="45.45815" lon="4.76625">
        <ele>94.599998474121</ele>
        <time>2018-12-24T11:08:42.000Z</time>
      </trkpt>
      <trkpt lat="45.45811" lon="4.76651">
        <ele>94.599998474121</ele>
        <time>2018-12-24T11:08:48.000Z</time>
      </trkpt>
      <trkpt lat="45.45811" lon="4.76655">
        <ele>94.599998474121</ele>
        <time>2018-12-24T11:08:49.000Z</time>
      </trkpt>
      <trkpt lat="45.45806" lon="4.76682">
        <ele>95</ele>
        <time>2018-12-24T11:08:56.000Z</time>
      </trkpt>
      <trkpt lat="45.45804" lon="4.76705">
        <ele>95</ele>
        <time>2018-12-24T11:09:03.000Z</time>
      </trkpt>
      <trkpt lat="45.45799" lon="4.7673">
        <ele>94.800003051758</ele>
        <time>2018-12-24T11:09:09.000Z</time>
      </trkpt>
      <trkpt lat="45.45797" lon="4.76739">
        <ele>94.800003051758</ele>
        <time>2018-12-24T11:09:11.000Z</time>
      </trkpt>
      <trkpt lat="45.45792" lon="4.76767">
        <ele>95</ele>
        <time>2018-12-24T11:09:18.000Z</time>
      </trkpt>
      <trkpt lat="45.45787" lon="4.76794">
        <ele>94.800003051758</ele>
        <time>2018-12-24T11:09:25.000Z</time>
      </trkpt>
      <trkpt lat="45.45784" lon="4.76816">
        <ele>95</ele>
        <time>2018-12-24T11:09:31.000Z</time>
      </trkpt>
      <trkpt lat="45.45786" lon="4.76835">
        <ele>95</ele>
        <time>2018-12-24T11:09:36.000Z</time>
      </trkpt>
      <trkpt lat="45.45787" lon="4.76839">
        <ele>95.199996948242</ele>
        <time>2018-12-24T11:09:38.000Z</time>
      </trkpt>
      <trkpt lat="45.45792" lon="4.7684">
        <ele>95</ele>
        <time>2018-12-24T11:09:40.000Z</time>
      </trkpt>
      <trkpt lat="45.45805" lon="4.76833">
        <ele>95</ele>
        <time>2018-12-24T11:09:45.000Z</time>
      </trkpt>
      <trkpt lat="45.45809" lon="4.76831">
        <ele>95.199996948242</ele>
        <time>2018-12-24T11:09:47.000Z</time>
      </trkpt>
      <trkpt lat="45.4581" lon="4.76829">
        <ele>95.599998474121</ele>
        <time>2018-12-24T11:09:49.000Z</time>
      </trkpt>
      <trkpt lat="45.45821" lon="4.76819">
        <ele>95.800003051758</ele>
        <time>2018-12-24T11:09:54.000Z</time>
      </trkpt>
      <trkpt lat="45.45825" lon="4.76813">
        <ele>95.800003051758</ele>
        <time>2018-12-24T11:09:56.000Z</time>
      </trkpt>
      <trkpt lat="45.45828" lon="4.76811">
        <ele>95.800003051758</ele>
        <time>2018-12-24T11:09:58.000Z</time>
      </trkpt>
      <trkpt lat="45.45829" lon="4.7681">
        <ele>95.599998474121</ele>
        <time>2018-12-24T11:09:59.000Z</time>
      </trkpt>
      <trkpt lat="45.45829" lon="4.76808">
        <ele>95.800003051758</ele>
        <time>2018-12-24T11:10:00.000Z</time>
      </trkpt>
      <trkpt lat="45.45832" lon="4.76808">
        <ele>96.199996948242</ele>
        <time>2018-12-24T11:10:02.000Z</time>
      </trkpt>
      <trkpt lat="45.45839" lon="4.76816">
        <ele>96</ele>
        <time>2018-12-24T11:10:05.000Z</time>
      </trkpt>
      <trkpt lat="45.45844" lon="4.76824">
        <ele>96.199996948242</ele>
        <time>2018-12-24T11:10:08.000Z</time>
      </trkpt>
      <trkpt lat="45.45845" lon="4.76826">
        <ele>96.199996948242</ele>
        <time>2018-12-24T11:10:09.000Z</time>
      </trkpt>
      <trkpt lat="45.45847" lon="4.76829">
        <ele>96.199996948242</ele>
        <time>2018-12-24T11:10:10.000Z</time>
      </trkpt>
      <trkpt lat="45.45849" lon="4.76841">
        <ele>96.400001525879</ele>
        <time>2018-12-24T11:10:13.000Z</time>
      </trkpt>
      <trkpt lat="45.45847" lon="4.76857">
        <ele>97</ele>
        <time>2018-12-24T11:10:17.000Z</time>
      </trkpt>
      <trkpt lat="45.45845" lon="4.76859">
        <ele>97.400001525879</ele>
        <time>2018-12-24T11:10:18.000Z</time>
      </trkpt>
      <trkpt lat="45.45837" lon="4.76871">
        <ele>98</ele>
        <time>2018-12-24T11:10:22.000Z</time>
      </trkpt>
      <trkpt lat="45.45835" lon="4.76872">
        <ele>98.199996948242</ele>
        <time>2018-12-24T11:10:23.000Z</time>
      </trkpt>
      <trkpt lat="45.45827" lon="4.76876">
        <ele>98.800003051758</ele>
        <time>2018-12-24T11:10:27.000Z</time>
      </trkpt>
      <trkpt lat="45.45817" lon="4.76879">
        <ele>99.400001525879</ele>
        <time>2018-12-24T11:10:31.000Z</time>
      </trkpt>
      <trkpt lat="45.45815" lon="4.76879">
        <ele>99.400001525879</ele>
        <time>2018-12-24T11:10:32.000Z</time>
      </trkpt>
      <trkpt lat="45.45797" lon="4.76878">
        <ele>100.19999694824</ele>
        <time>2018-12-24T11:10:39.000Z</time>
      </trkpt>
      <trkpt lat="45.45787" lon="4.76874">
        <ele>100.59999847412</ele>
        <time>2018-12-24T11:10:43.000Z</time>
      </trkpt>
      <trkpt lat="45.45779" lon="4.76871">
        <ele>101</ele>
        <time>2018-12-24T11:10:47.000Z</time>
      </trkpt>
      <trkpt lat="45.45767" lon="4.7687">
        <ele>101.59999847412</ele>
        <time>2018-12-24T11:10:52.000Z</time>
      </trkpt>
      <trkpt lat="45.45762" lon="4.76869">
        <ele>101.80000305176</ele>
        <time>2018-12-24T11:10:54.000Z</time>
      </trkpt>
      <trkpt lat="45.45748" lon="4.76869">
        <ele>102</ele>
        <time>2018-12-24T11:11:00.000Z</time>
      </trkpt>
      <trkpt lat="45.45731" lon="4.76867">
        <ele>103.19999694824</ele>
        <time>2018-12-24T11:11:07.000Z</time>
      </trkpt>
      <trkpt lat="45.45724" lon="4.76866">
        <ele>103.40000152588</ele>
        <time>2018-12-24T11:11:10.000Z</time>
      </trkpt>
      <trkpt lat="45.45717" lon="4.76865">
        <ele>103.80000305176</ele>
        <time>2018-12-24T11:11:13.000Z</time>
      </trkpt>
      <trkpt lat="45.45703" lon="4.76863">
        <ele>104</ele>
        <time>2018-12-24T11:11:19.000Z</time>
      </trkpt>
      <trkpt lat="45.45683" lon="4.76862">
        <ele>102.80000305176</ele>
        <time>2018-12-24T11:11:26.000Z</time>
      </trkpt>
      <trkpt lat="45.45668" lon="4.76863">
        <ele>102.59999847412</ele>
        <time>2018-12-24T11:11:31.000Z</time>
      </trkpt>
      <trkpt lat="45.45649" lon="4.76862">
        <ele>102.40000152588</ele>
        <time>2018-12-24T11:11:38.000Z</time>
      </trkpt>
      <trkpt lat="45.45641" lon="4.76862">
        <ele>101.80000305176</ele>
        <time>2018-12-24T11:11:41.000Z</time>
      </trkpt>
      <trkpt lat="45.45631" lon="4.7686">
        <ele>101.19999694824</ele>
        <time>2018-12-24T11:11:45.000Z</time>
      </trkpt>
      <trkpt lat="45.45622" lon="4.76859">
        <ele>100.80000305176</ele>
        <time>2018-12-24T11:11:48.000Z</time>
      </trkpt>
      <trkpt lat="45.45616" lon="4.76859">
        <ele>100.40000152588</ele>
        <time>2018-12-24T11:11:50.000Z</time>
      </trkpt>
      <trkpt lat="45.45603" lon="4.76859">
        <ele>99.599998474121</ele>
        <time>2018-12-24T11:11:54.000Z</time>
      </trkpt>
      <trkpt lat="45.45597" lon="4.7686">
        <ele>99.400001525879</ele>
        <time>2018-12-24T11:11:56.000Z</time>
      </trkpt>
      <trkpt lat="45.45591" lon="4.7686">
        <ele>98.800003051758</ele>
        <time>2018-12-24T11:11:58.000Z</time>
      </trkpt>
      <trkpt lat="45.45576" lon="4.76859">
        <ele>98.599998474121</ele>
        <time>2018-12-24T11:12:03.000Z</time>
      </trkpt>
      <trkpt lat="45.45573" lon="4.76859">
        <ele>98.199996948242</ele>
        <time>2018-12-24T11:12:04.000Z</time>
      </trkpt>
      <trkpt lat="45.45562" lon="4.76856">
        <ele>97.400001525879</ele>
        <time>2018-12-24T11:12:08.000Z</time>
      </trkpt>
      <trkpt lat="45.45561" lon="4.76853">
        <ele>97</ele>
        <time>2018-12-24T11:12:09.000Z</time>
      </trkpt>
      <trkpt lat="45.45563" lon="4.76846">
        <ele>96.800003051758</ele>
        <time>2018-12-24T11:12:10.000Z</time>
      </trkpt>
      <trkpt lat="45.45565" lon="4.76835">
        <ele>96.199996948242</ele>
        <time>2018-12-24T11:12:12.000Z</time>
      </trkpt>
      <trkpt lat="45.45566" lon="4.76832">
        <ele>95.800003051758</ele>
        <time>2018-12-24T11:12:13.000Z</time>
      </trkpt>
      <trkpt lat="45.45575" lon="4.76828">
        <ele>95.400001525879</ele>
        <time>2018-12-24T11:12:17.000Z</time>
      </trkpt>
      <trkpt lat="45.45581" lon="4.76823">
        <ele>95.599998474121</ele>
        <time>2018-12-24T11:12:21.000Z</time>
      </trkpt>
      <trkpt lat="45.45591" lon="4.76822">
        <ele>95.599998474121</ele>
        <time>2018-12-24T11:12:25.000Z</time>
      </trkpt>
      <trkpt lat="45.45601" lon="4.76816">
        <ele>96</ele>
        <time>2018-12-24T11:12:29.000Z</time>
      </trkpt>
      <trkpt lat="45.45605" lon="4.76812">
        <ele>96</ele>
        <time>2018-12-24T11:12:31.000Z</time>
      </trkpt>
      <trkpt lat="45.45613" lon="4.76809">
        <ele>96.199996948242</ele>
        <time>2018-12-24T11:12:34.000Z</time>
      </trkpt>
      <trkpt lat="45.45617" lon="4.76801">
        <ele>96.800003051758</ele>
        <time>2018-12-24T11:12:37.000Z</time>
      </trkpt>
      <trkpt lat="45.45618" lon="4.76795">
        <ele>97.199996948242</ele>
        <time>2018-12-24T11:12:39.000Z</time>
      </trkpt>
      <trkpt lat="45.45618" lon="4.76792">
        <ele>97.400001525879</ele>
        <time>2018-12-24T11:12:40.000Z</time>
      </trkpt>
      <trkpt lat="45.45619" lon="4.76778">
        <ele>97.599998474121</ele>
        <time>2018-12-24T11:12:45.000Z</time>
      </trkpt>
      <trkpt lat="45.4562" lon="4.76757">
        <ele>98</ele>
        <time>2018-12-24T11:12:51.000Z</time>
      </trkpt>
      <trkpt lat="45.45621" lon="4.76729">
        <ele>97.800003051758</ele>
        <time>2018-12-24T11:12:58.000Z</time>
      </trkpt>
      <trkpt lat="45.4562" lon="4.76704">
        <ele>97.800003051758</ele>
        <time>2018-12-24T11:13:04.000Z</time>
      </trkpt>
      <trkpt lat="45.45618" lon="4.76677">
        <ele>97.800003051758</ele>
        <time>2018-12-24T11:13:11.000Z</time>
      </trkpt>
      <trkpt lat="45.45617" lon="4.7665">
        <ele>97.800003051758</ele>
        <time>2018-12-24T11:13:18.000Z</time>
      </trkpt>
      <trkpt lat="45.45617" lon="4.76645">
        <ele>97.800003051758</ele>
        <time>2018-12-24T11:13:19.000Z</time>
      </trkpt>
      <trkpt lat="45.45616" lon="4.76623">
        <ele>97.599998474121</ele>
        <time>2018-12-24T11:13:25.000Z</time>
      </trkpt>
      <trkpt lat="45.45616" lon="4.76595">
        <ele>97.199996948242</ele>
        <time>2018-12-24T11:13:32.000Z</time>
      </trkpt>
      <trkpt lat="45.45615" lon="4.76569">
        <ele>97.599998474121</ele>
        <time>2018-12-24T11:13:38.000Z</time>
      </trkpt>
      <trkpt lat="45.45614" lon="4.76561">
        <ele>97.599998474121</ele>
        <time>2018-12-24T11:13:40.000Z</time>
      </trkpt>
      <trkpt lat="45.45614" lon="4.76537">
        <ele>97.800003051758</ele>
        <time>2018-12-24T11:13:46.000Z</time>
      </trkpt>
      <trkpt lat="45.45612" lon="4.76511">
        <ele>97.800003051758</ele>
        <time>2018-12-24T11:13:52.000Z</time>
      </trkpt>
      <trkpt lat="45.45612" lon="4.76507">
        <ele>97.800003051758</ele>
        <time>2018-12-24T11:13:53.000Z</time>
      </trkpt>
      <trkpt lat="45.4561" lon="4.76477">
        <ele>97.199996948242</ele>
        <time>2018-12-24T11:14:00.000Z</time>
      </trkpt>
      <trkpt lat="45.45607" lon="4.76451">
        <ele>97.800003051758</ele>
        <time>2018-12-24T11:14:06.000Z</time>
      </trkpt>
      <trkpt lat="45.45607" lon="4.76447">
        <ele>97.800003051758</ele>
        <time>2018-12-24T11:14:07.000Z</time>
      </trkpt>
      <trkpt lat="45.45604" lon="4.76418">
        <ele>97.599998474121</ele>
        <time>2018-12-24T11:14:14.000Z</time>
      </trkpt>
      <trkpt lat="45.45603" lon="4.76414">
        <ele>97.599998474121</ele>
        <time>2018-12-24T11:14:15.000Z</time>
      </trkpt>
      <trkpt lat="45.45601" lon="4.76397">
        <ele>97.400001525879</ele>
        <time>2018-12-24T11:14:19.000Z</time>
      </trkpt>
      <trkpt lat="45.456" lon="4.76388">
        <ele>97.400001525879</ele>
        <time>2018-12-24T11:14:21.000Z</time>
      </trkpt>
      <trkpt lat="45.45595" lon="4.76364">
        <ele>97.599998474121</ele>
        <time>2018-12-24T11:14:27.000Z</time>
      </trkpt>
      <trkpt lat="45.4559" lon="4.76339">
        <ele>97.400001525879</ele>
        <time>2018-12-24T11:14:33.000Z</time>
      </trkpt>
      <trkpt lat="45.45589" lon="4.76335">
        <ele>97.400001525879</ele>
        <time>2018-12-24T11:14:34.000Z</time>
      </trkpt>
      <trkpt lat="45.45583" lon="4.76309">
        <ele>97.199996948242</ele>
        <time>2018-12-24T11:14:41.000Z</time>
      </trkpt>
      <trkpt lat="45.45576" lon="4.76285">
        <ele>97.400001525879</ele>
        <time>2018-12-24T11:14:47.000Z</time>
      </trkpt>
      <trkpt lat="45.4557" lon="4.7626">
        <ele>97.800003051758</ele>
        <time>2018-12-24T11:14:53.000Z</time>
      </trkpt>
      <trkpt lat="45.45564" lon="4.76241">
        <ele>97.599998474121</ele>
        <time>2018-12-24T11:14:58.000Z</time>
      </trkpt>
      <trkpt lat="45.45554" lon="4.76217">
        <ele>98</ele>
        <time>2018-12-24T11:15:05.000Z</time>
      </trkpt>
      <trkpt lat="45.45549" lon="4.76208">
        <ele>97.599998474121</ele>
        <time>2018-12-24T11:15:08.000Z</time>
      </trkpt>
      <trkpt lat="45.45548" lon="4.76203">
        <ele>97.599998474121</ele>
        <time>2018-12-24T11:15:09.000Z</time>
      </trkpt>
      <trkpt lat="45.45542" lon="4.76189">
        <ele>97.199996948242</ele>
        <time>2018-12-24T11:15:13.000Z</time>
      </trkpt>
      <trkpt lat="45.45536" lon="4.76176">
        <ele>97.400001525879</ele>
        <time>2018-12-24T11:15:17.000Z</time>
      </trkpt>
      <trkpt lat="45.45528" lon="4.7616">
        <ele>98.199996948242</ele>
        <time>2018-12-24T11:15:22.000Z</time>
      </trkpt>
      <trkpt lat="45.45521" lon="4.76145">
        <ele>98.400001525879</ele>
        <time>2018-12-24T11:15:26.000Z</time>
      </trkpt>
      <trkpt lat="45.45519" lon="4.76141">
        <ele>98.400001525879</ele>
        <time>2018-12-24T11:15:27.000Z</time>
      </trkpt>
      <trkpt lat="45.4551" lon="4.76126">
        <ele>98.199996948242</ele>
        <time>2018-12-24T11:15:32.000Z</time>
      </trkpt>
      <trkpt lat="45.45503" lon="4.76113">
        <ele>98</ele>
        <time>2018-12-24T11:15:36.000Z</time>
      </trkpt>
      <trkpt lat="45.45493" lon="4.76096">
        <ele>98</ele>
        <time>2018-12-24T11:15:41.000Z</time>
      </trkpt>
      <trkpt lat="45.45483" lon="4.76085">
        <ele>97.800003051758</ele>
        <time>2018-12-24T11:15:45.000Z</time>
      </trkpt>
      <trkpt lat="45.45473" lon="4.76073">
        <ele>97.400001525879</ele>
        <time>2018-12-24T11:15:49.000Z</time>
      </trkpt>
      <trkpt lat="45.45471" lon="4.76069">
        <ele>97.199996948242</ele>
        <time>2018-12-24T11:15:50.000Z</time>
      </trkpt>
      <trkpt lat="45.4546" lon="4.76058">
        <ele>97.400001525879</ele>
        <time>2018-12-24T11:15:54.000Z</time>
      </trkpt>
      <trkpt lat="45.4545" lon="4.76046">
        <ele>98</ele>
        <time>2018-12-24T11:15:58.000Z</time>
      </trkpt>
      <trkpt lat="45.45438" lon="4.76031">
        <ele>98</ele>
        <time>2018-12-24T11:16:03.000Z</time>
      </trkpt>
      <trkpt lat="45.45427" lon="4.7602">
        <ele>97.400001525879</ele>
        <time>2018-12-24T11:16:07.000Z</time>
      </trkpt>
      <trkpt lat="45.45411" lon="4.76005">
        <ele>97.400001525879</ele>
        <time>2018-12-24T11:16:13.000Z</time>
      </trkpt>
      <trkpt lat="45.45396" lon="4.75994">
        <ele>97.599998474121</ele>
        <time>2018-12-24T11:16:18.000Z</time>
      </trkpt>
      <trkpt lat="45.45391" lon="4.75988">
        <ele>97.599998474121</ele>
        <time>2018-12-24T11:16:20.000Z</time>
      </trkpt>
      <trkpt lat="45.45388" lon="4.75987">
        <ele>97.599998474121</ele>
        <time>2018-12-24T11:16:21.000Z</time>
      </trkpt>
      <trkpt lat="45.45386" lon="4.75983">
        <ele>97.800003051758</ele>
        <time>2018-12-24T11:16:22.000Z</time>
      </trkpt>
      <trkpt lat="45.45381" lon="4.75977">
        <ele>97.800003051758</ele>
        <time>2018-12-24T11:16:24.000Z</time>
      </trkpt>
      <trkpt lat="45.45372" lon="4.75967">
        <ele>98.400001525879</ele>
        <time>2018-12-24T11:16:28.000Z</time>
      </trkpt>
      <trkpt lat="45.45369" lon="4.75965">
        <ele>98.199996948242</ele>
        <time>2018-12-24T11:16:29.000Z</time>
      </trkpt>
      <trkpt lat="45.45367" lon="4.75963">
        <ele>98.400001525879</ele>
        <time>2018-12-24T11:16:30.000Z</time>
      </trkpt>
      <trkpt lat="45.45358" lon="4.75956">
        <ele>98</ele>
        <time>2018-12-24T11:16:33.000Z</time>
      </trkpt>
      <trkpt lat="45.45345" lon="4.75945">
        <ele>97.800003051758</ele>
        <time>2018-12-24T11:16:38.000Z</time>
      </trkpt>
      <trkpt lat="45.45342" lon="4.75943">
        <ele>97.800003051758</ele>
        <time>2018-12-24T11:16:39.000Z</time>
      </trkpt>
      <trkpt lat="45.45333" lon="4.75937">
        <ele>97.599998474121</ele>
        <time>2018-12-24T11:16:42.000Z</time>
      </trkpt>
      <trkpt lat="45.45323" lon="4.75927">
        <ele>97.599998474121</ele>
        <time>2018-12-24T11:16:46.000Z</time>
      </trkpt>
      <trkpt lat="45.45318" lon="4.75922">
        <ele>97.599998474121</ele>
        <time>2018-12-24T11:16:48.000Z</time>
      </trkpt>
      <trkpt lat="45.45315" lon="4.75921">
        <ele>97.800003051758</ele>
        <time>2018-12-24T11:16:49.000Z</time>
      </trkpt>
      <trkpt lat="45.45312" lon="4.7592">
        <ele>98.199996948242</ele>
        <time>2018-12-24T11:16:50.000Z</time>
      </trkpt>
      <trkpt lat="45.45295" lon="4.7591">
        <ele>98.800003051758</ele>
        <time>2018-12-24T11:16:56.000Z</time>
      </trkpt>
      <trkpt lat="45.45281" lon="4.75901">
        <ele>98.199996948242</ele>
        <time>2018-12-24T11:17:01.000Z</time>
      </trkpt>
      <trkpt lat="45.45276" lon="4.75897">
        <ele>98</ele>
        <time>2018-12-24T11:17:03.000Z</time>
      </trkpt>
      <trkpt lat="45.45272" lon="4.75895">
        <ele>98</ele>
        <time>2018-12-24T11:17:04.000Z</time>
      </trkpt>
      <trkpt lat="45.45257" lon="4.7589">
        <ele>98.199996948242</ele>
        <time>2018-12-24T11:17:09.000Z</time>
      </trkpt>
      <trkpt lat="45.45239" lon="4.75885">
        <ele>97.599998474121</ele>
        <time>2018-12-24T11:17:15.000Z</time>
      </trkpt>
      <trkpt lat="45.4522" lon="4.75879">
        <ele>97.800003051758</ele>
        <time>2018-12-24T11:17:21.000Z</time>
      </trkpt>
      <trkpt lat="45.45217" lon="4.75879">
        <ele>98</ele>
        <time>2018-12-24T11:17:22.000Z</time>
      </trkpt>
      <trkpt lat="45.452" lon="4.75877">
        <ele>97.599998474121</ele>
        <time>2018-12-24T11:17:27.000Z</time>
      </trkpt>
      <trkpt lat="45.45185" lon="4.75873">
        <ele>97.400001525879</ele>
        <time>2018-12-24T11:17:32.000Z</time>
      </trkpt>
      <trkpt lat="45.4518" lon="4.75869">
        <ele>97.400001525879</ele>
        <time>2018-12-24T11:17:34.000Z</time>
      </trkpt>
      <trkpt lat="45.45177" lon="4.75868">
        <ele>97.400001525879</ele>
        <time>2018-12-24T11:17:35.000Z</time>
      </trkpt>
      <trkpt lat="45.45158" lon="4.75865">
        <ele>97.599998474121</ele>
        <time>2018-12-24T11:17:41.000Z</time>
      </trkpt>
      <trkpt lat="45.45142" lon="4.75864">
        <ele>97</ele>
        <time>2018-12-24T11:17:46.000Z</time>
      </trkpt>
      <trkpt lat="45.45127" lon="4.75861">
        <ele>97</ele>
        <time>2018-12-24T11:17:51.000Z</time>
      </trkpt>
      <trkpt lat="45.45113" lon="4.75857">
        <ele>97</ele>
        <time>2018-12-24T11:17:56.000Z</time>
      </trkpt>
      <trkpt lat="45.45111" lon="4.75855">
        <ele>97</ele>
        <time>2018-12-24T11:17:57.000Z</time>
      </trkpt>
      <trkpt lat="45.45106" lon="4.75854">
        <ele>97</ele>
        <time>2018-12-24T11:17:59.000Z</time>
      </trkpt>
      <trkpt lat="45.45091" lon="4.7585">
        <ele>97</ele>
        <time>2018-12-24T11:18:04.000Z</time>
      </trkpt>
      <trkpt lat="45.45074" lon="4.75847">
        <ele>97.199996948242</ele>
        <time>2018-12-24T11:18:10.000Z</time>
      </trkpt>
      <trkpt lat="45.45068" lon="4.75844">
        <ele>97.400001525879</ele>
        <time>2018-12-24T11:18:12.000Z</time>
      </trkpt>
      <trkpt lat="45.45065" lon="4.75844">
        <ele>97.400001525879</ele>
        <time>2018-12-24T11:18:13.000Z</time>
      </trkpt>
      <trkpt lat="45.45063" lon="4.75843">
        <ele>97.599998474121</ele>
        <time>2018-12-24T11:18:14.000Z</time>
      </trkpt>
      <trkpt lat="45.45058" lon="4.75841">
        <ele>97.800003051758</ele>
        <time>2018-12-24T11:18:16.000Z</time>
      </trkpt>
      <trkpt lat="45.45053" lon="4.7584">
        <ele>97.800003051758</ele>
        <time>2018-12-24T11:18:18.000Z</time>
      </trkpt>
      <trkpt lat="45.45047" lon="4.75839">
        <ele>97.599998474121</ele>
        <time>2018-12-24T11:18:20.000Z</time>
      </trkpt>
      <trkpt lat="45.45038" lon="4.75839">
        <ele>97.599998474121</ele>
        <time>2018-12-24T11:18:23.000Z</time>
      </trkpt>
      <trkpt lat="45.45035" lon="4.7584">
        <ele>97.400001525879</ele>
        <time>2018-12-24T11:18:24.000Z</time>
      </trkpt>
      <trkpt lat="45.45025" lon="4.7584">
        <ele>97.400001525879</ele>
        <time>2018-12-24T11:18:28.000Z</time>
      </trkpt>
      <trkpt lat="45.4502" lon="4.75839">
        <ele>97.599998474121</ele>
        <time>2018-12-24T11:18:30.000Z</time>
      </trkpt>
      <trkpt lat="45.45017" lon="4.75841">
        <ele>97.800003051758</ele>
        <time>2018-12-24T11:18:31.000Z</time>
      </trkpt>
      <trkpt lat="45.45003" lon="4.75848">
        <ele>97.599998474121</ele>
        <time>2018-12-24T11:18:37.000Z</time>
      </trkpt>
      <trkpt lat="45.45" lon="4.75864">
        <ele>96.800003051758</ele>
        <time>2018-12-24T11:18:42.000Z</time>
      </trkpt>
      <trkpt lat="45.45" lon="4.7588">
        <ele>96.400001525879</ele>
        <time>2018-12-24T11:18:46.000Z</time>
      </trkpt>
      <trkpt lat="45.44999" lon="4.75889">
        <ele>96.199996948242</ele>
        <time>2018-12-24T11:18:48.000Z</time>
      </trkpt>
      <trkpt lat="45.45" lon="4.75909">
        <ele>95.599998474121</ele>
        <time>2018-12-24T11:18:53.000Z</time>
      </trkpt>
      <trkpt lat="45.45001" lon="4.75917">
        <ele>95.400001525879</ele>
        <time>2018-12-24T11:18:55.000Z</time>
      </trkpt>
      <trkpt lat="45.45003" lon="4.75935">
        <ele>94.199996948242</ele>
        <time>2018-12-24T11:18:59.000Z</time>
      </trkpt>
      <trkpt lat="45.45006" lon="4.75964">
        <ele>93.400001525879</ele>
        <time>2018-12-24T11:19:06.000Z</time>
      </trkpt>
      <trkpt lat="45.45007" lon="4.75968">
        <ele>93.199996948242</ele>
        <time>2018-12-24T11:19:07.000Z</time>
      </trkpt>
      <trkpt lat="45.45011" lon="4.75997">
        <ele>93.800003051758</ele>
        <time>2018-12-24T11:19:14.000Z</time>
      </trkpt>
      <trkpt lat="45.45011" lon="4.76009">
        <ele>94.199996948242</ele>
        <time>2018-12-24T11:19:17.000Z</time>
      </trkpt>
      <trkpt lat="45.45011" lon="4.76013">
        <ele>94.400001525879</ele>
        <time>2018-12-24T11:19:18.000Z</time>
      </trkpt>
      <trkpt lat="45.45011" lon="4.76021">
        <ele>94.400001525879</ele>
        <time>2018-12-24T11:19:20.000Z</time>
      </trkpt>
      <trkpt lat="45.45009" lon="4.76044">
        <ele>94.599998474121</ele>
        <time>2018-12-24T11:19:26.000Z</time>
      </trkpt>
      <trkpt lat="45.45008" lon="4.76061">
        <ele>94.800003051758</ele>
        <time>2018-12-24T11:19:31.000Z</time>
      </trkpt>
      <trkpt lat="45.45003" lon="4.76084">
        <ele>94.599998474121</ele>
        <time>2018-12-24T11:19:37.000Z</time>
      </trkpt>
      <trkpt lat="45.45001" lon="4.76109">
        <ele>95</ele>
        <time>2018-12-24T11:19:43.000Z</time>
      </trkpt>
      <trkpt lat="45.44998" lon="4.76121">
        <ele>95.400001525879</ele>
        <time>2018-12-24T11:19:46.000Z</time>
      </trkpt>
      <trkpt lat="45.44996" lon="4.76133">
        <ele>95.199996948242</ele>
        <time>2018-12-24T11:19:49.000Z</time>
      </trkpt>
      <trkpt lat="45.44991" lon="4.76161">
        <ele>94.599998474121</ele>
        <time>2018-12-24T11:19:56.000Z</time>
      </trkpt>
      <trkpt lat="45.44986" lon="4.76184">
        <ele>94.599998474121</ele>
        <time>2018-12-24T11:20:02.000Z</time>
      </trkpt>
      <trkpt lat="45.44982" lon="4.7621">
        <ele>95.400001525879</ele>
        <time>2018-12-24T11:20:09.000Z</time>
      </trkpt>
      <trkpt lat="45.44976" lon="4.76235">
        <ele>95.400001525879</ele>
        <time>2018-12-24T11:20:15.000Z</time>
      </trkpt>
      <trkpt lat="45.44973" lon="4.7626">
        <ele>94.800003051758</ele>
        <time>2018-12-24T11:20:21.000Z</time>
      </trkpt>
      <trkpt lat="45.44972" lon="4.76264">
        <ele>94.800003051758</ele>
        <time>2018-12-24T11:20:22.000Z</time>
      </trkpt>
      <trkpt lat="45.44968" lon="4.76292">
        <ele>95</ele>
        <time>2018-12-24T11:20:29.000Z</time>
      </trkpt>
      <trkpt lat="45.44967" lon="4.76296">
        <ele>95</ele>
        <time>2018-12-24T11:20:30.000Z</time>
      </trkpt>
      <trkpt lat="45.44964" lon="4.76322">
        <ele>94.400001525879</ele>
        <time>2018-12-24T11:20:36.000Z</time>
      </trkpt>
      <trkpt lat="45.44962" lon="4.7633">
        <ele>94.599998474121</ele>
        <time>2018-12-24T11:20:38.000Z</time>
      </trkpt>
      <trkpt lat="45.44957" lon="4.76359">
        <ele>95.199996948242</ele>
        <time>2018-12-24T11:20:45.000Z</time>
      </trkpt>
      <trkpt lat="45.44956" lon="4.76363">
        <ele>95.199996948242</ele>
        <time>2018-12-24T11:20:46.000Z</time>
      </trkpt>
      <trkpt lat="45.44952" lon="4.7639">
        <ele>95.599998474121</ele>
        <time>2018-12-24T11:20:53.000Z</time>
      </trkpt>
      <trkpt lat="45.44948" lon="4.76416">
        <ele>95.599998474121</ele>
        <time>2018-12-24T11:21:00.000Z</time>
      </trkpt>
      <trkpt lat="45.44947" lon="4.7642">
        <ele>95.599998474121</ele>
        <time>2018-12-24T11:21:01.000Z</time>
      </trkpt>
      <trkpt lat="45.44944" lon="4.7644">
        <ele>95.199996948242</ele>
        <time>2018-12-24T11:21:07.000Z</time>
      </trkpt>
      <trkpt lat="45.4494" lon="4.76456">
        <ele>95.199996948242</ele>
        <time>2018-12-24T11:21:12.000Z</time>
      </trkpt>
      <trkpt lat="45.44938" lon="4.7646">
        <ele>95</ele>
        <time>2018-12-24T11:21:13.000Z</time>
      </trkpt>
      <trkpt lat="45.44933" lon="4.76485">
        <ele>95.599998474121</ele>
        <time>2018-12-24T11:21:19.000Z</time>
      </trkpt>
      <trkpt lat="45.44933" lon="4.7649">
        <ele>95.599998474121</ele>
        <time>2018-12-24T11:21:20.000Z</time>
      </trkpt>
      <trkpt lat="45.44931" lon="4.76514">
        <ele>96</ele>
        <time>2018-12-24T11:21:26.000Z</time>
      </trkpt>
      <trkpt lat="45.44926" lon="4.76543">
        <ele>96</ele>
        <time>2018-12-24T11:21:33.000Z</time>
      </trkpt>
      <trkpt lat="45.44923" lon="4.76569">
        <ele>96</ele>
        <time>2018-12-24T11:21:40.000Z</time>
      </trkpt>
      <trkpt lat="45.44922" lon="4.76585">
        <ele>96.400001525879</ele>
        <time>2018-12-24T11:21:45.000Z</time>
      </trkpt>
      <trkpt lat="45.44921" lon="4.76591">
        <ele>96.599998474121</ele>
        <time>2018-12-24T11:21:47.000Z</time>
      </trkpt>
      <trkpt lat="45.4492" lon="4.7661">
        <ele>97.199996948242</ele>
        <time>2018-12-24T11:21:53.000Z</time>
      </trkpt>
      <trkpt lat="45.44918" lon="4.76626">
        <ele>97.199996948242</ele>
        <time>2018-12-24T11:21:58.000Z</time>
      </trkpt>
      <trkpt lat="45.44919" lon="4.76629">
        <ele>97.400001525879</ele>
        <time>2018-12-24T11:21:59.000Z</time>
      </trkpt>
      <trkpt lat="45.4492" lon="4.76632">
        <ele>97.400001525879</ele>
        <time>2018-12-24T11:22:00.000Z</time>
      </trkpt>
      <trkpt lat="45.44918" lon="4.76641">
        <ele>97.400001525879</ele>
        <time>2018-12-24T11:22:03.000Z</time>
      </trkpt>
      <trkpt lat="45.44916" lon="4.76653">
        <ele>98.400001525879</ele>
        <time>2018-12-24T11:22:07.000Z</time>
      </trkpt>
      <trkpt lat="45.44913" lon="4.76659">
        <ele>98.599998474121</ele>
        <time>2018-12-24T11:22:09.000Z</time>
      </trkpt>
      <trkpt lat="45.44912" lon="4.76674">
        <ele>99.599998474121</ele>
        <time>2018-12-24T11:22:13.000Z</time>
      </trkpt>
      <trkpt lat="45.44909" lon="4.76682">
        <ele>100.59999847412</ele>
        <time>2018-12-24T11:22:16.000Z</time>
      </trkpt>
      <trkpt lat="45.44907" lon="4.76702">
        <ele>101</ele>
        <time>2018-12-24T11:22:22.000Z</time>
      </trkpt>
      <trkpt lat="45.44904" lon="4.76723">
        <ele>101.40000152588</ele>
        <time>2018-12-24T11:22:28.000Z</time>
      </trkpt>
      <trkpt lat="45.44902" lon="4.7673">
        <ele>101.59999847412</ele>
        <time>2018-12-24T11:22:30.000Z</time>
      </trkpt>
      <trkpt lat="45.449" lon="4.76743">
        <ele>102</ele>
        <time>2018-12-24T11:22:34.000Z</time>
      </trkpt>
      <trkpt lat="45.44897" lon="4.76757">
        <ele>102</ele>
        <time>2018-12-24T11:22:38.000Z</time>
      </trkpt>
      <trkpt lat="45.44892" lon="4.76775">
        <ele>102</ele>
        <time>2018-12-24T11:22:43.000Z</time>
      </trkpt>
      <trkpt lat="45.44886" lon="4.7679">
        <ele>102.40000152588</ele>
        <time>2018-12-24T11:22:48.000Z</time>
      </trkpt>
      <trkpt lat="45.44878" lon="4.76793">
        <ele>102.80000305176</ele>
        <time>2018-12-24T11:22:51.000Z</time>
      </trkpt>
      <trkpt lat="45.44876" lon="4.7679">
        <ele>103</ele>
        <time>2018-12-24T11:22:52.000Z</time>
      </trkpt>
      <trkpt lat="45.44872" lon="4.76788">
        <ele>103</ele>
        <time>2018-12-24T11:22:54.000Z</time>
      </trkpt>
      <trkpt lat="45.44864" lon="4.76784">
        <ele>103.19999694824</ele>
        <time>2018-12-24T11:22:57.000Z</time>
      </trkpt>
      <trkpt lat="45.44863" lon="4.76784">
        <ele>103.40000152588</ele>
        <time>2018-12-24T11:22:58.000Z</time>
      </trkpt>
      <trkpt lat="45.44861" lon="4.76784">
        <ele>103.40000152588</ele>
        <time>2018-12-24T11:22:59.000Z</time>
      </trkpt>
      <trkpt lat="45.44858" lon="4.76781">
        <ele>103.40000152588</ele>
        <time>2018-12-24T11:23:01.000Z</time>
      </trkpt>
      <trkpt lat="45.44849" lon="4.76781">
        <ele>103.40000152588</ele>
        <time>2018-12-24T11:23:05.000Z</time>
      </trkpt>
      <trkpt lat="45.44847" lon="4.76782">
        <ele>103.40000152588</ele>
        <time>2018-12-24T11:23:06.000Z</time>
      </trkpt>
      <trkpt lat="45.44845" lon="4.76782">
        <ele>103.59999847412</ele>
        <time>2018-12-24T11:23:07.000Z</time>
      </trkpt>
      <trkpt lat="45.4484" lon="4.76778">
        <ele>103.59999847412</ele>
        <time>2018-12-24T11:23:09.000Z</time>
      </trkpt>
      <trkpt lat="45.44836" lon="4.76778">
        <ele>103.80000305176</ele>
        <time>2018-12-24T11:23:10.000Z</time>
      </trkpt>
      <trkpt lat="45.44832" lon="4.76776">
        <ele>104.19999694824</ele>
        <time>2018-12-24T11:23:11.000Z</time>
      </trkpt>
      <trkpt lat="45.44829" lon="4.76774">
        <ele>104.40000152588</ele>
        <time>2018-12-24T11:23:12.000Z</time>
      </trkpt>
      <trkpt lat="45.44827" lon="4.76774">
        <ele>104.40000152588</ele>
        <time>2018-12-24T11:23:13.000Z</time>
      </trkpt>
      <trkpt lat="45.4482" lon="4.76775">
        <ele>104.59999847412</ele>
        <time>2018-12-24T11:23:15.000Z</time>
      </trkpt>
      <trkpt lat="45.44817" lon="4.76773">
        <ele>104.40000152588</ele>
        <time>2018-12-24T11:23:16.000Z</time>
      </trkpt>
      <trkpt lat="45.44811" lon="4.76773">
        <ele>104.40000152588</ele>
        <time>2018-12-24T11:23:18.000Z</time>
      </trkpt>
      <trkpt lat="45.44809" lon="4.76774">
        <ele>104.40000152588</ele>
        <time>2018-12-24T11:23:19.000Z</time>
      </trkpt>
      <trkpt lat="45.44806" lon="4.76779">
        <ele>104.40000152588</ele>
        <time>2018-12-24T11:23:22.000Z</time>
      </trkpt>
      <trkpt lat="45.44803" lon="4.76788">
        <ele>104.80000305176</ele>
        <time>2018-12-24T11:23:25.000Z</time>
      </trkpt>
      <trkpt lat="45.44801" lon="4.76792">
        <ele>105.40000152588</ele>
        <time>2018-12-24T11:23:27.000Z</time>
      </trkpt>
      <trkpt lat="45.448" lon="4.76799">
        <ele>106</ele>
        <time>2018-12-24T11:23:29.000Z</time>
      </trkpt>
      <trkpt lat="45.44797" lon="4.76813">
        <ele>106.40000152588</ele>
        <time>2018-12-24T11:23:34.000Z</time>
      </trkpt>
      <trkpt lat="45.44793" lon="4.76832">
        <ele>107.40000152588</ele>
        <time>2018-12-24T11:23:39.000Z</time>
      </trkpt>
      <trkpt lat="45.44791" lon="4.76836">
        <ele>107.80000305176</ele>
        <time>2018-12-24T11:23:40.000Z</time>
      </trkpt>
      <trkpt lat="45.44792" lon="4.76858">
        <ele>108.59999847412</ele>
        <time>2018-12-24T11:23:45.000Z</time>
      </trkpt>
      <trkpt lat="45.4479" lon="4.76861">
        <ele>108.59999847412</ele>
        <time>2018-12-24T11:23:46.000Z</time>
      </trkpt>
      <trkpt lat="45.44785" lon="4.76874">
        <ele>109.80000305176</ele>
        <time>2018-12-24T11:23:53.000Z</time>
      </trkpt>
      <trkpt lat="45.44781" lon="4.76885">
        <ele>110.59999847412</ele>
        <time>2018-12-24T11:23:57.000Z</time>
      </trkpt>
      <trkpt lat="45.4478" lon="4.76887">
        <ele>111.19999694824</ele>
        <time>2018-12-24T11:23:58.000Z</time>
      </trkpt>
      <trkpt lat="45.44776" lon="4.76897">
        <ele>112.19999694824</ele>
        <time>2018-12-24T11:24:03.000Z</time>
      </trkpt>
      <trkpt lat="45.44775" lon="4.76902">
        <ele>112.59999847412</ele>
        <time>2018-12-24T11:24:05.000Z</time>
      </trkpt>
      <trkpt lat="45.44775" lon="4.76905">
        <ele>112.59999847412</ele>
        <time>2018-12-24T11:24:06.000Z</time>
      </trkpt>
      <trkpt lat="45.44781" lon="4.76909">
        <ele>113</ele>
        <time>2018-12-24T11:24:09.000Z</time>
      </trkpt>
      <trkpt lat="45.44796" lon="4.76908">
        <ele>112.80000305176</ele>
        <time>2018-12-24T11:24:14.000Z</time>
      </trkpt>
      <trkpt lat="45.44809" lon="4.76909">
        <ele>111.19999694824</ele>
        <time>2018-12-24T11:24:19.000Z</time>
      </trkpt>
      <trkpt lat="45.44815" lon="4.7691">
        <ele>111.19999694824</ele>
        <time>2018-12-24T11:24:21.000Z</time>
      </trkpt>
      <trkpt lat="45.44824" lon="4.76911">
        <ele>111</ele>
        <time>2018-12-24T11:24:25.000Z</time>
      </trkpt>
      <trkpt lat="45.44837" lon="4.76913">
        <ele>111</ele>
        <time>2018-12-24T11:24:30.000Z</time>
      </trkpt>
      <trkpt lat="45.44845" lon="4.76914">
        <ele>110</ele>
        <time>2018-12-24T11:24:33.000Z</time>
      </trkpt>
      <trkpt lat="45.44847" lon="4.76914">
        <ele>109.80000305176</ele>
        <time>2018-12-24T11:24:34.000Z</time>
      </trkpt>
      <trkpt lat="45.44859" lon="4.76915">
        <ele>109.19999694824</ele>
        <time>2018-12-24T11:24:39.000Z</time>
      </trkpt>
      <trkpt lat="45.4487" lon="4.76914">
        <ele>109</ele>
        <time>2018-12-24T11:24:43.000Z</time>
      </trkpt>
      <trkpt lat="45.44876" lon="4.76915">
        <ele>109</ele>
        <time>2018-12-24T11:24:45.000Z</time>
      </trkpt>
      <trkpt lat="45.44887" lon="4.76916">
        <ele>109.19999694824</ele>
        <time>2018-12-24T11:24:49.000Z</time>
      </trkpt>
      <trkpt lat="45.44892" lon="4.76915">
        <ele>109.59999847412</ele>
        <time>2018-12-24T11:24:51.000Z</time>
      </trkpt>
      <trkpt lat="45.44892" lon="4.76913">
        <ele>109.80000305176</ele>
        <time>2018-12-24T11:24:52.000Z</time>
      </trkpt>
      <trkpt lat="45.44888" lon="4.76912">
        <ele>110.19999694824</ele>
        <time>2018-12-24T11:24:54.000Z</time>
      </trkpt>
      <trkpt lat="45.44876" lon="4.76915">
        <ele>110.19999694824</ele>
        <time>2018-12-24T11:24:58.000Z</time>
      </trkpt>
      <trkpt lat="45.44873" lon="4.76916">
        <ele>110</ele>
        <time>2018-12-24T11:24:59.000Z</time>
      </trkpt>
      <trkpt lat="45.4486" lon="4.76919">
        <ele>110.40000152588</ele>
        <time>2018-12-24T11:25:03.000Z</time>
      </trkpt>
      <trkpt lat="45.44855" lon="4.76922">
        <ele>110.59999847412</ele>
        <time>2018-12-24T11:25:05.000Z</time>
      </trkpt>
      <trkpt lat="45.44844" lon="4.76921">
        <ele>110.80000305176</ele>
        <time>2018-12-24T11:25:09.000Z</time>
      </trkpt>
      <trkpt lat="45.44839" lon="4.76921">
        <ele>110.80000305176</ele>
        <time>2018-12-24T11:25:11.000Z</time>
      </trkpt>
      <trkpt lat="45.44821" lon="4.76919">
        <ele>110.80000305176</ele>
        <time>2018-12-24T11:25:19.000Z</time>
      </trkpt>
      <trkpt lat="45.44819" lon="4.76919">
        <ele>110.80000305176</ele>
        <time>2018-12-24T11:25:20.000Z</time>
      </trkpt>
    </trkseg>
  </trk>
</gpx>